﻿<?xml version="1.0" encoding="utf-8"?><gpx creator="Garmin Desktop App" version="1.1" xsi:schemaLocation="http://www.topografix.com/GPX/1/1 http://www.topografix.com/GPX/1/1/gpx.xsd http://www.garmin.com/xmlschemas/WaypointExtension/v1 http://www8.garmin.com/xmlschemas/WaypointExtensionv1.xsd http://www.garmin.com/xmlschemas/TrackPointExtension/v1 http://www.garmin.com/xmlschemas/TrackPointExtensionv1.xsd http://www.garmin.com/xmlschemas/GpxExtensions/v3 http://www8.garmin.com/xmlschemas/GpxExtensionsv3.xsd http://www.garmin.com/xmlschemas/ActivityExtension/v1 http://www8.garmin.com/xmlschemas/ActivityExtensionv1.xsd http://www.garmin.com/xmlschemas/AdventuresExtensions/v1 http://www8.garmin.com/xmlschemas/AdventuresExtensionv1.xsd http://www.garmin.com/xmlschemas/PressureExtension/v1 http://www.garmin.com/xmlschemas/PressureExtensionv1.xsd http://www.garmin.com/xmlschemas/TripExtensions/v1 http://www.garmin.com/xmlschemas/TripExtensionsv1.xsd http://www.garmin.com/xmlschemas/TripMetaDataExtensions/v1 http://www.garmin.com/xmlschemas/TripMetaDataExtensionsv1.xsd http://www.garmin.com/xmlschemas/ViaPointTransportationModeExtensions/v1 http://www.garmin.com/xmlschemas/ViaPointTransportationModeExtensionsv1.xsd http://www.garmin.com/xmlschemas/CreationTimeExtension/v1 http://www.garmin.com/xmlschemas/CreationTimeExtensionsv1.xsd http://www.garmin.com/xmlschemas/AccelerationExtension/v1 http://www.garmin.com/xmlschemas/AccelerationExtensionv1.xsd http://www.garmin.com/xmlschemas/PowerExtension/v1 http://www.garmin.com/xmlschemas/PowerExtensionv1.xsd http://www.garmin.com/xmlschemas/VideoExtension/v1 http://www.garmin.com/xmlschemas/VideoExtensionv1.xsd" xmlns="http://www.topografix.com/GPX/1/1" xmlns:xsi="http://www.w3.org/2001/XMLSchema-instance" xmlns:wptx1="http://www.garmin.com/xmlschemas/WaypointExtension/v1" xmlns:gpxtrx="http://www.garmin.com/xmlschemas/GpxExtensions/v3" xmlns:gpxtpx="http://www.garmin.com/xmlschemas/TrackPointExtension/v1" xmlns:gpxx="http://www.garmin.com/xmlschemas/GpxExtensions/v3" xmlns:trp="http://www.garmin.com/xmlschemas/TripExtensions/v1" xmlns:adv="http://www.garmin.com/xmlschemas/AdventuresExtensions/v1" xmlns:prs="http://www.garmin.com/xmlschemas/PressureExtension/v1" xmlns:tmd="http://www.garmin.com/xmlschemas/TripMetaDataExtensions/v1" xmlns:vptm="http://www.garmin.com/xmlschemas/ViaPointTransportationModeExtensions/v1" xmlns:ctx="http://www.garmin.com/xmlschemas/CreationTimeExtension/v1" xmlns:gpxacc="http://www.garmin.com/xmlschemas/AccelerationExtension/v1" xmlns:gpxpx="http://www.garmin.com/xmlschemas/PowerExtension/v1" xmlns:vidx1="http://www.garmin.com/xmlschemas/VideoExtension/v1">

  <metadata>
    <link href="http://www.garmin.com">
      <text>Garmin International</text>
    </link>
    <time>2026-04-23T05:08:27Z</time>
    <bounds maxlat="42.883720993995667" maxlon="0.932478010654449" minlat="42.856237990781665" minlon="0.86441301740706" />
  </metadata>

  <trk>
    <name>Pic de Paumaude 2026-04-22</name>
    <desc>comment ...</desc>
    <link href="urn:ipg_trc:dt=1776840062.491000;coul=18446744070610419712" />
    <extensions>
      <gpxx:TrackExtension>
        <gpxx:DisplayColor>Cyan</gpxx:DisplayColor>
      </gpxx:TrackExtension>
    </extensions>
    <trkseg>
      <trkpt lat="42.867875006049871" lon="0.927377035841346">
        <ele>824</ele>
        <time>2026-04-22T06:42:54Z</time>
      </trkpt>
      <trkpt lat="42.867942983284593" lon="0.927278967574239">
        <ele>829</ele>
        <time>2026-04-22T06:43:04Z</time>
      </trkpt>
      <trkpt lat="42.867997968569398" lon="0.927162040024996">
        <ele>829</ele>
        <time>2026-04-22T06:43:14Z</time>
      </trkpt>
      <trkpt lat="42.868030993267894" lon="0.927044022828341">
        <ele>830</ele>
        <time>2026-04-22T06:43:22Z</time>
      </trkpt>
      <trkpt lat="42.868039961904287" lon="0.92661302536726">
        <ele>831</ele>
        <time>2026-04-22T06:43:52Z</time>
      </trkpt>
      <trkpt lat="42.868036022409797" lon="0.926489979028702">
        <ele>832</ele>
        <time>2026-04-22T06:44:02Z</time>
      </trkpt>
      <trkpt lat="42.868038034066558" lon="0.926342960447073">
        <ele>832</ele>
        <time>2026-04-22T06:44:12Z</time>
      </trkpt>
      <trkpt lat="42.868028981611133" lon="0.926182027906179">
        <ele>833</ele>
        <time>2026-04-22T06:44:20Z</time>
      </trkpt>
      <trkpt lat="42.86802101880312" lon="0.926052024587989">
        <ele>836</ele>
        <time>2026-04-22T06:44:26Z</time>
      </trkpt>
      <trkpt lat="42.868011966347694" lon="0.925928978249431">
        <ele>838</ele>
        <time>2026-04-22T06:44:34Z</time>
      </trkpt>
      <trkpt lat="42.868027975782752" lon="0.925804004073143">
        <ele>838</ele>
        <time>2026-04-22T06:44:48Z</time>
      </trkpt>
      <trkpt lat="42.868035016581416" lon="0.925675006583333">
        <ele>840</ele>
        <time>2026-04-22T06:44:56Z</time>
      </trkpt>
      <trkpt lat="42.867976007983088" lon="0.925275022163987">
        <ele>840</ele>
        <time>2026-04-22T06:45:26Z</time>
      </trkpt>
      <trkpt lat="42.867956981062889" lon="0.925151975825429">
        <ele>840</ele>
        <time>2026-04-22T06:45:34Z</time>
      </trkpt>
      <trkpt lat="42.867953041568398" lon="0.92489498667419">
        <ele>841</ele>
        <time>2026-04-22T06:45:52Z</time>
      </trkpt>
      <trkpt lat="42.867967039346695" lon="0.924750985577703">
        <ele>843</ele>
        <time>2026-04-22T06:46:02Z</time>
      </trkpt>
      <trkpt lat="42.867961004376411" lon="0.924612013623118">
        <ele>843</ele>
        <time>2026-04-22T06:46:12Z</time>
      </trkpt>
      <trkpt lat="42.867976007983088" lon="0.924352006986737">
        <ele>844</ele>
        <time>2026-04-22T06:46:32Z</time>
      </trkpt>
      <trkpt lat="42.867985982447863" lon="0.924225021153688">
        <ele>845</ele>
        <time>2026-04-22T06:46:40Z</time>
      </trkpt>
      <trkpt lat="42.867999980226159" lon="0.923964008688927">
        <ele>845</ele>
        <time>2026-04-22T06:46:58Z</time>
      </trkpt>
      <trkpt lat="42.867998974397779" lon="0.923836017027497">
        <ele>844</ele>
        <time>2026-04-22T06:47:08Z</time>
      </trkpt>
      <trkpt lat="42.868020012974739" lon="0.923699978739023">
        <ele>847</ele>
        <time>2026-04-22T06:47:16Z</time>
      </trkpt>
      <trkpt lat="42.868050020188093" lon="0.923583973199129">
        <ele>849</ele>
        <time>2026-04-22T06:47:24Z</time>
      </trkpt>
      <trkpt lat="42.868095031008124" lon="0.923461010679603">
        <ele>852</ele>
        <time>2026-04-22T06:47:34Z</time>
      </trkpt>
      <trkpt lat="42.868165019899607" lon="0.923216007649899">
        <ele>853</ele>
        <time>2026-04-22T06:47:56Z</time>
      </trkpt>
      <trkpt lat="42.868211958557367" lon="0.923104025423527">
        <ele>853</ele>
        <time>2026-04-22T06:48:06Z</time>
      </trkpt>
      <trkpt lat="42.868381021544337" lon="0.922760032117367">
        <ele>858</ele>
        <time>2026-04-22T06:48:36Z</time>
      </trkpt>
      <trkpt lat="42.868330981582403" lon="0.922635979950428">
        <ele>857</ele>
        <time>2026-04-22T06:48:50Z</time>
      </trkpt>
      <trkpt lat="42.868299968540668" lon="0.922494996339083">
        <ele>855</ele>
        <time>2026-04-22T06:49:00Z</time>
      </trkpt>
      <trkpt lat="42.868300974369049" lon="0.922365998849273">
        <ele>855</ele>
        <time>2026-04-22T06:49:08Z</time>
      </trkpt>
      <trkpt lat="42.868314972147346" lon="0.922229960560799">
        <ele>854</ele>
        <time>2026-04-22T06:49:16Z</time>
      </trkpt>
      <trkpt lat="42.868333999067545" lon="0.92208101414144">
        <ele>853</ele>
        <time>2026-04-22T06:49:28Z</time>
      </trkpt>
      <trkpt lat="42.868338022381067" lon="0.921944975852966">
        <ele>853</ele>
        <time>2026-04-22T06:49:40Z</time>
      </trkpt>
      <trkpt lat="42.868331987410784" lon="0.921798963099718">
        <ele>855</ele>
        <time>2026-04-22T06:49:54Z</time>
      </trkpt>
      <trkpt lat="42.868470959365368" lon="0.921453963965178">
        <ele>859</ele>
        <time>2026-04-22T06:50:24Z</time>
      </trkpt>
      <trkpt lat="42.868550000712276" lon="0.921366037800908">
        <ele>859</ele>
        <time>2026-04-22T06:50:36Z</time>
      </trkpt>
      <trkpt lat="42.868605991825461" lon="0.92126302421093">
        <ele>862</ele>
        <time>2026-04-22T06:50:48Z</time>
      </trkpt>
      <trkpt lat="42.868643961846828" lon="0.9211350325495">
        <ele>864</ele>
        <time>2026-04-22T06:51:04Z</time>
      </trkpt>
      <trkpt lat="42.868692995980382" lon="0.921017015352845">
        <ele>868</ele>
        <time>2026-04-22T06:51:20Z</time>
      </trkpt>
      <trkpt lat="42.868741024285555" lon="0.920907966792583">
        <ele>873</ele>
        <time>2026-04-22T06:51:34Z</time>
      </trkpt>
      <trkpt lat="42.868782011792064" lon="0.920772012323141">
        <ele>876</ele>
        <time>2026-04-22T06:51:52Z</time>
      </trkpt>
      <trkpt lat="42.868792992085218" lon="0.920625999569893">
        <ele>881</ele>
        <time>2026-04-22T06:52:06Z</time>
      </trkpt>
      <trkpt lat="42.868879996240139" lon="0.920701017603278">
        <ele>883</ele>
        <time>2026-04-22T06:52:36Z</time>
      </trkpt>
      <trkpt lat="42.86890204064548" lon="0.920828003436327">
        <ele>884</ele>
        <time>2026-04-22T06:52:52Z</time>
      </trkpt>
      <trkpt lat="42.868932969868183" lon="0.920967981219292">
        <ele>888</ele>
        <time>2026-04-22T06:53:10Z</time>
      </trkpt>
      <trkpt lat="42.868975969031453" lon="0.921095972880721">
        <ele>890</ele>
        <time>2026-04-22T06:53:26Z</time>
      </trkpt>
      <trkpt lat="42.869016034528613" lon="0.921225976198912">
        <ele>896</ele>
        <time>2026-04-22T06:53:44Z</time>
      </trkpt>
      <trkpt lat="42.869044030085206" lon="0.921353967860341">
        <ele>898</ele>
        <time>2026-04-22T06:54:02Z</time>
      </trkpt>
      <trkpt lat="42.869111001491547" lon="0.921495035290718">
        <ele>899</ele>
        <time>2026-04-22T06:54:22Z</time>
      </trkpt>
      <trkpt lat="42.869137991219759" lon="0.921634007245302">
        <ele>904</ele>
        <time>2026-04-22T06:54:38Z</time>
      </trkpt>
      <trkpt lat="42.869223989546299" lon="0.921901976689696">
        <ele>904</ele>
        <time>2026-04-22T06:55:02Z</time>
      </trkpt>
      <trkpt lat="42.869265982881188" lon="0.922190984711051">
        <ele>905</ele>
        <time>2026-04-22T06:55:24Z</time>
      </trkpt>
      <trkpt lat="42.869307976216078" lon="0.922304978594184">
        <ele>905</ele>
        <time>2026-04-22T06:55:34Z</time>
      </trkpt>
      <trkpt lat="42.869376037269831" lon="0.922389971092343">
        <ele>906</ele>
        <time>2026-04-22T06:55:44Z</time>
      </trkpt>
      <trkpt lat="42.869458012282848" lon="0.922299027442932">
        <ele>908</ele>
        <time>2026-04-22T06:55:52Z</time>
      </trkpt>
      <trkpt lat="42.869523977860808" lon="0.922568002715707">
        <ele>910</ele>
        <time>2026-04-22T06:56:36Z</time>
      </trkpt>
      <trkpt lat="42.869500005617738" lon="0.922842007130384">
        <ele>908</ele>
        <time>2026-04-22T06:57:04Z</time>
      </trkpt>
      <trkpt lat="42.869508974254131" lon="0.923110982403159">
        <ele>910</ele>
        <time>2026-04-22T06:57:36Z</time>
      </trkpt>
      <trkpt lat="42.869479972869158" lon="0.923242997378111">
        <ele>915</ele>
        <time>2026-04-22T06:57:50Z</time>
      </trkpt>
      <trkpt lat="42.869448959827423" lon="0.923376018181443">
        <ele>917</ele>
        <time>2026-04-22T06:58:04Z</time>
      </trkpt>
      <trkpt lat="42.869409983977675" lon="0.92349898070097">
        <ele>919</ele>
        <time>2026-04-22T06:58:16Z</time>
      </trkpt>
      <trkpt lat="42.869406966492534" lon="0.923766028136015">
        <ele>919</ele>
        <time>2026-04-22T06:58:40Z</time>
      </trkpt>
      <trkpt lat="42.869406966492534" lon="0.92390600591898">
        <ele>922</ele>
        <time>2026-04-22T06:58:52Z</time>
      </trkpt>
      <trkpt lat="42.869413001462817" lon="0.92397197149694">
        <ele>924</ele>
        <time>2026-04-22T06:58:58Z</time>
      </trkpt>
      <trkpt lat="42.869419036433101" lon="0.924039026722312">
        <ele>925</ele>
        <time>2026-04-22T06:59:04Z</time>
      </trkpt>
      <trkpt lat="42.869438985362649" lon="0.92420800589025">
        <ele>931</ele>
        <time>2026-04-22T06:59:22Z</time>
      </trkpt>
      <trkpt lat="42.869464969262481" lon="0.924244970083237">
        <ele>932</ele>
        <time>2026-04-22T06:59:28Z</time>
      </trkpt>
      <trkpt lat="42.869475027546287" lon="0.924299033358693">
        <ele>933</ele>
        <time>2026-04-22T06:59:34Z</time>
      </trkpt>
      <trkpt lat="42.869488019496202" lon="0.924417972564697">
        <ele>934</ele>
        <time>2026-04-22T06:59:48Z</time>
      </trkpt>
      <trkpt lat="42.86950302310288" lon="0.924491984769702">
        <ele>935</ele>
        <time>2026-04-22T06:59:56Z</time>
      </trkpt>
      <trkpt lat="42.869544010609388" lon="0.924646966159344">
        <ele>936</ele>
        <time>2026-04-22T07:00:14Z</time>
      </trkpt>
      <trkpt lat="42.869566977024078" lon="0.92478996142745">
        <ele>937</ele>
        <time>2026-04-22T07:00:28Z</time>
      </trkpt>
      <trkpt lat="42.86956898868084" lon="0.924913007766008">
        <ele>941</ele>
        <time>2026-04-22T07:00:40Z</time>
      </trkpt>
      <trkpt lat="42.869571000337601" lon="0.925039993599057">
        <ele>943</ele>
        <time>2026-04-22T07:00:54Z</time>
      </trkpt>
      <trkpt lat="42.869581980630755" lon="0.925182988867164">
        <ele>948</ele>
        <time>2026-04-22T07:01:10Z</time>
      </trkpt>
      <trkpt lat="42.869602013379335" lon="0.925311986356974">
        <ele>952</ele>
        <time>2026-04-22T07:01:28Z</time>
      </trkpt>
      <trkpt lat="42.869604025036097" lon="0.925437966361642">
        <ele>959</ele>
        <time>2026-04-22T07:01:44Z</time>
      </trkpt>
      <trkpt lat="42.869606958702207" lon="0.925567969679832">
        <ele>962</ele>
        <time>2026-04-22T07:02:00Z</time>
      </trkpt>
      <trkpt lat="42.869622968137264" lon="0.925657991319895">
        <ele>963</ele>
        <time>2026-04-22T07:02:08Z</time>
      </trkpt>
      <trkpt lat="42.869609976187348" lon="0.92579897493124">
        <ele>964</ele>
        <time>2026-04-22T07:02:18Z</time>
      </trkpt>
      <trkpt lat="42.869600001722574" lon="0.925856977701187">
        <ele>963</ele>
        <time>2026-04-22T07:02:22Z</time>
      </trkpt>
      <trkpt lat="42.869595978409052" lon="0.925920009613037">
        <ele>964</ele>
        <time>2026-04-22T07:02:26Z</time>
      </trkpt>
      <trkpt lat="42.869587009772658" lon="0.925986981019378">
        <ele>965</ele>
        <time>2026-04-22T07:02:30Z</time>
      </trkpt>
      <trkpt lat="42.869566977024078" lon="0.926048001274467">
        <ele>966</ele>
        <time>2026-04-22T07:02:34Z</time>
      </trkpt>
      <trkpt lat="42.869566977024078" lon="0.926116984337568">
        <ele>968</ele>
        <time>2026-04-22T07:02:38Z</time>
      </trkpt>
      <trkpt lat="42.869598995894194" lon="0.926219997927547">
        <ele>968</ele>
        <time>2026-04-22T07:02:54Z</time>
      </trkpt>
      <trkpt lat="42.869601007550955" lon="0.926276994869113">
        <ele>968</ele>
        <time>2026-04-22T07:03:00Z</time>
      </trkpt>
      <trkpt lat="42.869598995894194" lon="0.9264209959656">
        <ele>969</ele>
        <time>2026-04-22T07:03:10Z</time>
      </trkpt>
      <trkpt lat="42.869606036692858" lon="0.926844030618668">
        <ele>966</ele>
        <time>2026-04-22T07:03:42Z</time>
      </trkpt>
      <trkpt lat="42.869606958702207" lon="0.926993982866406">
        <ele>966</ele>
        <time>2026-04-22T07:03:58Z</time>
      </trkpt>
      <trkpt lat="42.869607964530587" lon="0.927078975364566">
        <ele>965</ele>
        <time>2026-04-22T07:04:06Z</time>
      </trkpt>
      <trkpt lat="42.869621040299535" lon="0.927214007824659">
        <ele>964</ele>
        <time>2026-04-22T07:04:20Z</time>
      </trkpt>
      <trkpt lat="42.869625985622406" lon="0.927276033908129">
        <ele>967</ele>
        <time>2026-04-22T07:04:26Z</time>
      </trkpt>
      <trkpt lat="42.869634032249451" lon="0.927334036678076">
        <ele>968</ele>
        <time>2026-04-22T07:04:32Z</time>
      </trkpt>
      <trkpt lat="42.869639983400702" lon="0.927526988089085">
        <ele>969</ele>
        <time>2026-04-22T07:04:50Z</time>
      </trkpt>
      <trkpt lat="42.869652975350618" lon="0.927965026348829">
        <ele>972</ele>
        <time>2026-04-22T07:05:22Z</time>
      </trkpt>
      <trkpt lat="42.86965599283576" lon="0.928026968613267">
        <ele>972</ele>
        <time>2026-04-22T07:05:28Z</time>
      </trkpt>
      <trkpt lat="42.869650041684508" lon="0.928242970257998">
        <ele>973</ele>
        <time>2026-04-22T07:05:44Z</time>
      </trkpt>
      <trkpt lat="42.869666973128915" lon="0.92831396497786">
        <ele>974</ele>
        <time>2026-04-22T07:05:48Z</time>
      </trkpt>
      <trkpt lat="42.86967501975596" lon="0.928444974124432">
        <ele>973</ele>
        <time>2026-04-22T07:06:00Z</time>
      </trkpt>
      <trkpt lat="42.86967895925045" lon="0.928541030734777">
        <ele>972</ele>
        <time>2026-04-22T07:06:08Z</time>
      </trkpt>
      <trkpt lat="42.869707038626075" lon="0.928672961890697">
        <ele>973</ele>
        <time>2026-04-22T07:06:22Z</time>
      </trkpt>
      <trkpt lat="42.869735034182668" lon="0.928772035986185">
        <ele>973</ele>
        <time>2026-04-22T07:06:32Z</time>
      </trkpt>
      <trkpt lat="42.869750037789345" lon="0.928830960765481">
        <ele>974</ele>
        <time>2026-04-22T07:06:38Z</time>
      </trkpt>
      <trkpt lat="42.869792031124234" lon="0.928965993225574">
        <ele>975</ele>
        <time>2026-04-22T07:06:52Z</time>
      </trkpt>
      <trkpt lat="42.86987098865211" lon="0.929232034832239">
        <ele>976</ele>
        <time>2026-04-22T07:07:18Z</time>
      </trkpt>
      <trkpt lat="42.869931003078818" lon="0.929483994841576">
        <ele>981</ele>
        <time>2026-04-22T07:07:42Z</time>
      </trkpt>
      <trkpt lat="42.869975008070469" lon="0.929612992331386">
        <ele>984</ele>
        <time>2026-04-22T07:07:52Z</time>
      </trkpt>
      <trkpt lat="42.870009960606694" lon="0.929767973721027">
        <ele>982</ele>
        <time>2026-04-22T07:08:02Z</time>
      </trkpt>
      <trkpt lat="42.869923962280154" lon="0.930037032812834">
        <ele>981</ele>
        <time>2026-04-22T07:08:26Z</time>
      </trkpt>
      <trkpt lat="42.869950029999018" lon="0.930167036131024">
        <ele>981</ele>
        <time>2026-04-22T07:09:02Z</time>
      </trkpt>
      <trkpt lat="42.869903007522225" lon="0.930178016424179">
        <ele>984</ele>
        <time>2026-04-22T07:09:24Z</time>
      </trkpt>
      <trkpt lat="42.86980502307415" lon="0.9302459936589">
        <ele>985</ele>
        <time>2026-04-22T07:10:28Z</time>
      </trkpt>
      <trkpt lat="42.869782978668809" lon="0.930329980328679">
        <ele>988</ele>
        <time>2026-04-22T07:10:36Z</time>
      </trkpt>
      <trkpt lat="42.869636965915561" lon="0.930533995851874">
        <ele>991</ele>
        <time>2026-04-22T07:11:00Z</time>
      </trkpt>
      <trkpt lat="42.869607964530587" lon="0.930578000843525">
        <ele>992</ele>
        <time>2026-04-22T07:11:04Z</time>
      </trkpt>
      <trkpt lat="42.869578041136265" lon="0.930615970864892">
        <ele>993</ele>
        <time>2026-04-22T07:11:08Z</time>
      </trkpt>
      <trkpt lat="42.869551973417401" lon="0.930660981684923">
        <ele>994</ele>
        <time>2026-04-22T07:11:12Z</time>
      </trkpt>
      <trkpt lat="42.869545016437769" lon="0.930723007768393">
        <ele>994</ele>
        <time>2026-04-22T07:11:16Z</time>
      </trkpt>
      <trkpt lat="42.869496988132596" lon="0.930872960016131">
        <ele>994</ele>
        <time>2026-04-22T07:11:28Z</time>
      </trkpt>
      <trkpt lat="42.869471004232764" lon="0.93093297444284">
        <ele>994</ele>
        <time>2026-04-22T07:11:34Z</time>
      </trkpt>
      <trkpt lat="42.86935399286449" lon="0.931200021877885">
        <ele>997</ele>
        <time>2026-04-22T07:11:58Z</time>
      </trkpt>
      <trkpt lat="42.869308982044458" lon="0.931304963305593">
        <ele>998</ele>
        <time>2026-04-22T07:12:08Z</time>
      </trkpt>
      <trkpt lat="42.86928903311491" lon="0.931414011865854">
        <ele>998</ele>
        <time>2026-04-22T07:12:18Z</time>
      </trkpt>
      <trkpt lat="42.869287021458149" lon="0.931479977443814">
        <ele>1000</ele>
        <time>2026-04-22T07:12:28Z</time>
      </trkpt>
      <trkpt lat="42.869317028671503" lon="0.931736966595054">
        <ele>1008</ele>
        <time>2026-04-22T07:13:04Z</time>
      </trkpt>
      <trkpt lat="42.86931099370122" lon="0.93179002404213">
        <ele>1009</ele>
        <time>2026-04-22T07:13:14Z</time>
      </trkpt>
      <trkpt lat="42.869315017014742" lon="0.931844003498554">
        <ele>1010</ele>
        <time>2026-04-22T07:13:22Z</time>
      </trkpt>
      <trkpt lat="42.869309987872839" lon="0.931893037632108">
        <ele>1010</ele>
        <time>2026-04-22T07:13:28Z</time>
      </trkpt>
      <trkpt lat="42.869303030893207" lon="0.93194299377501">
        <ele>1012</ele>
        <time>2026-04-22T07:13:36Z</time>
      </trkpt>
      <trkpt lat="42.869319962337613" lon="0.931990016251802">
        <ele>1013</ele>
        <time>2026-04-22T07:13:46Z</time>
      </trkpt>
      <trkpt lat="42.869320968165994" lon="0.932037960737944">
        <ele>1013</ele>
        <time>2026-04-22T07:13:52Z</time>
      </trkpt>
      <trkpt lat="42.869327003136277" lon="0.932094035670161">
        <ele>1014</ele>
        <time>2026-04-22T07:14:00Z</time>
      </trkpt>
      <trkpt lat="42.869325997307897" lon="0.932144997641444">
        <ele>1015</ele>
        <time>2026-04-22T07:14:08Z</time>
      </trkpt>
      <trkpt lat="42.869348041713238" lon="0.932183973491192">
        <ele>1016</ele>
        <time>2026-04-22T07:14:18Z</time>
      </trkpt>
      <trkpt lat="42.869380982592702" lon="0.932328980416059">
        <ele>1022</ele>
        <time>2026-04-22T07:14:42Z</time>
      </trkpt>
      <trkpt lat="42.869399003684521" lon="0.932371979579329">
        <ele>1022</ele>
        <time>2026-04-22T07:14:50Z</time>
      </trkpt>
      <trkpt lat="42.869443008676171" lon="0.932385977357626">
        <ele>1024</ele>
        <time>2026-04-22T07:15:02Z</time>
      </trkpt>
      <trkpt lat="42.869479972869158" lon="0.932380026206374">
        <ele>1026</ele>
        <time>2026-04-22T07:15:12Z</time>
      </trkpt>
      <trkpt lat="42.869507968425751" lon="0.932340966537595">
        <ele>1028</ele>
        <time>2026-04-22T07:15:22Z</time>
      </trkpt>
      <trkpt lat="42.869540993124247" lon="0.932323029264808">
        <ele>1031</ele>
        <time>2026-04-22T07:15:30Z</time>
      </trkpt>
      <trkpt lat="42.869580974802375" lon="0.932328980416059">
        <ele>1033</ele>
        <time>2026-04-22T07:15:44Z</time>
      </trkpt>
      <trkpt lat="42.869617016986012" lon="0.932325040921569">
        <ele>1034</ele>
        <time>2026-04-22T07:15:52Z</time>
      </trkpt>
      <trkpt lat="42.869652975350618" lon="0.932349013164639">
        <ele>1035</ele>
        <time>2026-04-22T07:16:04Z</time>
      </trkpt>
      <trkpt lat="42.869688011705875" lon="0.932357981801033">
        <ele>1039</ele>
        <time>2026-04-22T07:16:14Z</time>
      </trkpt>
      <trkpt lat="42.869723970070481" lon="0.932339960709214">
        <ele>1041</ele>
        <time>2026-04-22T07:16:24Z</time>
      </trkpt>
      <trkpt lat="42.869739979505539" lon="0.932298973202705">
        <ele>1044</ele>
        <time>2026-04-22T07:16:32Z</time>
      </trkpt>
      <trkpt lat="42.869756994768977" lon="0.932253962382674">
        <ele>1046</ele>
        <time>2026-04-22T07:16:40Z</time>
      </trkpt>
      <trkpt lat="42.869773004204035" lon="0.932205012068152">
        <ele>1050</ele>
        <time>2026-04-22T07:16:50Z</time>
      </trkpt>
      <trkpt lat="42.869810974225402" lon="0.932198977097869">
        <ele>1052</ele>
        <time>2026-04-22T07:17:10Z</time>
      </trkpt>
      <trkpt lat="42.86984802223742" lon="0.932181039825082">
        <ele>1054</ele>
        <time>2026-04-22T07:17:16Z</time>
      </trkpt>
      <trkpt lat="42.86986998282373" lon="0.932192020118237">
        <ele>1056</ele>
        <time>2026-04-22T07:17:34Z</time>
      </trkpt>
      <trkpt lat="42.869890015572309" lon="0.932235019281507">
        <ele>1056</ele>
        <time>2026-04-22T07:17:42Z</time>
      </trkpt>
      <trkpt lat="42.869922034442425" lon="0.932180033996701">
        <ele>1057</ele>
        <time>2026-04-22T07:17:56Z</time>
      </trkpt>
      <trkpt lat="42.869953969493508" lon="0.932155977934599">
        <ele>1060</ele>
        <time>2026-04-22T07:18:04Z</time>
      </trkpt>
      <trkpt lat="42.869992023333907" lon="0.932152960449457">
        <ele>1063</ele>
        <time>2026-04-22T07:18:22Z</time>
      </trkpt>
      <trkpt lat="42.870018007233739" lon="0.932193025946617">
        <ele>1064</ele>
        <time>2026-04-22T07:18:32Z</time>
      </trkpt>
      <trkpt lat="42.870055977255106" lon="0.932192020118237">
        <ele>1067</ele>
        <time>2026-04-22T07:18:50Z</time>
      </trkpt>
      <trkpt lat="42.870093025267124" lon="0.932164024561644">
        <ele>1069</ele>
        <time>2026-04-22T07:18:58Z</time>
      </trkpt>
      <trkpt lat="42.870129989460111" lon="0.932179028168321">
        <ele>1072</ele>
        <time>2026-04-22T07:19:08Z</time>
      </trkpt>
      <trkpt lat="42.870171982795" lon="0.932265026494861">
        <ele>1075</ele>
        <time>2026-04-22T07:19:26Z</time>
      </trkpt>
      <trkpt lat="42.870198972523212" lon="0.932371979579329">
        <ele>1078</ele>
        <time>2026-04-22T07:19:38Z</time>
      </trkpt>
      <trkpt lat="42.870258986949921" lon="0.932441968470812">
        <ele>1080</ele>
        <time>2026-04-22T07:19:54Z</time>
      </trkpt>
      <trkpt lat="42.870284970849752" lon="0.932478010654449">
        <ele>1082</ele>
        <time>2026-04-22T07:20:04Z</time>
      </trkpt>
      <trkpt lat="42.870322018861771" lon="0.932475998997688">
        <ele>1084</ele>
        <time>2026-04-22T07:20:14Z</time>
      </trkpt>
      <trkpt lat="42.870351020246744" lon="0.932449009269476">
        <ele>1087</ele>
        <time>2026-04-22T07:20:22Z</time>
      </trkpt>
      <trkpt lat="42.870360994711518" lon="0.932405004277825">
        <ele>1088</ele>
        <time>2026-04-22T07:20:30Z</time>
      </trkpt>
      <trkpt lat="42.870326964184642" lon="0.932382959872484">
        <ele>1090</ele>
        <time>2026-04-22T07:21:42Z</time>
      </trkpt>
      <trkpt lat="42.870311960577965" lon="0.932333003729582">
        <ele>1091</ele>
        <time>2026-04-22T07:21:48Z</time>
      </trkpt>
      <trkpt lat="42.870311038568616" lon="0.93228598125279">
        <ele>1092</ele>
        <time>2026-04-22T07:21:54Z</time>
      </trkpt>
      <trkpt lat="42.870319001376629" lon="0.932237030938268">
        <ele>1094</ele>
        <time>2026-04-22T07:22:02Z</time>
      </trkpt>
      <trkpt lat="42.870382033288479" lon="0.932189002633095">
        <ele>1096</ele>
        <time>2026-04-22T07:22:14Z</time>
      </trkpt>
      <trkpt lat="42.870426038280129" lon="0.93217802233994">
        <ele>1097</ele>
        <time>2026-04-22T07:22:24Z</time>
      </trkpt>
      <trkpt lat="42.870453028008342" lon="0.932144997641444">
        <ele>1097</ele>
        <time>2026-04-22T07:22:30Z</time>
      </trkpt>
      <trkpt lat="42.870467025786638" lon="0.932099986821413">
        <ele>1098</ele>
        <time>2026-04-22T07:22:36Z</time>
      </trkpt>
      <trkpt lat="42.870499966666102" lon="0.932078026235104">
        <ele>1098</ele>
        <time>2026-04-22T07:22:42Z</time>
      </trkpt>
      <trkpt lat="42.870554029941559" lon="0.931978030130267">
        <ele>1100</ele>
        <time>2026-04-22T07:22:54Z</time>
      </trkpt>
      <trkpt lat="42.870571967214346" lon="0.931936958804727">
        <ele>1100</ele>
        <time>2026-04-22T07:22:58Z</time>
      </trkpt>
      <trkpt lat="42.870584959164262" lon="0.931889014318585">
        <ele>1100</ele>
        <time>2026-04-22T07:23:02Z</time>
      </trkpt>
      <trkpt lat="42.870594011619687" lon="0.931831011548638">
        <ele>1100</ele>
        <time>2026-04-22T07:23:06Z</time>
      </trkpt>
      <trkpt lat="42.870637010782957" lon="0.931735038757324">
        <ele>1100</ele>
        <time>2026-04-22T07:23:14Z</time>
      </trkpt>
      <trkpt lat="42.870661988854408" lon="0.93168399296701">
        <ele>1100</ele>
        <time>2026-04-22T07:23:18Z</time>
      </trkpt>
      <trkpt lat="42.870704988017678" lon="0.93164099380374">
        <ele>1102</ele>
        <time>2026-04-22T07:23:22Z</time>
      </trkpt>
      <trkpt lat="42.870792998000979" lon="0.93149003572762">
        <ele>1105</ele>
        <time>2026-04-22T07:23:36Z</time>
      </trkpt>
      <trkpt lat="42.870827028527856" lon="0.931429015472531">
        <ele>1104</ele>
        <time>2026-04-22T07:23:42Z</time>
      </trkpt>
      <trkpt lat="42.870852006599307" lon="0.931358020752668">
        <ele>1103</ele>
        <time>2026-04-22T07:23:48Z</time>
      </trkpt>
      <trkpt lat="42.870947979390621" lon="0.931200021877885">
        <ele>1104</ele>
        <time>2026-04-22T07:24:04Z</time>
      </trkpt>
      <trkpt lat="42.87107496522367" lon="0.931044034659863">
        <ele>1105</ele>
        <time>2026-04-22T07:24:22Z</time>
      </trkpt>
      <trkpt lat="42.871256014332175" lon="0.93080498278141">
        <ele>1108</ele>
        <time>2026-04-22T07:24:42Z</time>
      </trkpt>
      <trkpt lat="42.871306976303458" lon="0.930705992504954">
        <ele>1109</ele>
        <time>2026-04-22T07:24:52Z</time>
      </trkpt>
      <trkpt lat="42.871340001001954" lon="0.930665004998446">
        <ele>1109</ele>
        <time>2026-04-22T07:24:58Z</time>
      </trkpt>
      <trkpt lat="42.871360033750534" lon="0.930613959208131">
        <ele>1110</ele>
        <time>2026-04-22T07:25:04Z</time>
      </trkpt>
      <trkpt lat="42.871417030692101" lon="0.930540030822158">
        <ele>1111</ele>
        <time>2026-04-22T07:25:12Z</time>
      </trkpt>
      <trkpt lat="42.871452989056706" lon="0.930512035265565">
        <ele>1111</ele>
        <time>2026-04-22T07:25:14Z</time>
      </trkpt>
      <trkpt lat="42.871508980169892" lon="0.930433999747038">
        <ele>1113</ele>
        <time>2026-04-22T07:25:22Z</time>
      </trkpt>
      <trkpt lat="42.871548039838672" lon="0.93033098615706">
        <ele>1115</ele>
        <time>2026-04-22T07:25:34Z</time>
      </trkpt>
      <trkpt lat="42.871592966839671" lon="0.930235013365746">
        <ele>1117</ele>
        <time>2026-04-22T07:25:42Z</time>
      </trkpt>
      <trkpt lat="42.871706038713455" lon="0.930071985349059">
        <ele>1119</ele>
        <time>2026-04-22T07:26:02Z</time>
      </trkpt>
      <trkpt lat="42.871740991249681" lon="0.930014988407493">
        <ele>1120</ele>
        <time>2026-04-22T07:26:12Z</time>
      </trkpt>
      <trkpt lat="42.871740991249681" lon="0.929953968152404">
        <ele>1121</ele>
        <time>2026-04-22T07:26:18Z</time>
      </trkpt>
      <trkpt lat="42.871746020391583" lon="0.929886996746063">
        <ele>1120</ele>
        <time>2026-04-22T07:26:24Z</time>
      </trkpt>
      <trkpt lat="42.871741997078061" lon="0.92983603477478">
        <ele>1120</ele>
        <time>2026-04-22T07:26:28Z</time>
      </trkpt>
      <trkpt lat="42.871755994856358" lon="0.929727992042899">
        <ele>1120</ele>
        <time>2026-04-22T07:26:36Z</time>
      </trkpt>
      <trkpt lat="42.871759012341499" lon="0.929593965411186">
        <ele>1121</ele>
        <time>2026-04-22T07:26:44Z</time>
      </trkpt>
      <trkpt lat="42.871764041483402" lon="0.929525988176465">
        <ele>1123</ele>
        <time>2026-04-22T07:26:48Z</time>
      </trkpt>
      <trkpt lat="42.871778039261699" lon="0.929440995678306">
        <ele>1126</ele>
        <time>2026-04-22T07:26:58Z</time>
      </trkpt>
      <trkpt lat="42.871797988191247" lon="0.929348962381482">
        <ele>1124</ele>
        <time>2026-04-22T07:27:08Z</time>
      </trkpt>
      <trkpt lat="42.87180402316153" lon="0.929268999025226">
        <ele>1125</ele>
        <time>2026-04-22T07:27:14Z</time>
      </trkpt>
      <trkpt lat="42.871801005676389" lon="0.92895501293242">
        <ele>1128</ele>
        <time>2026-04-22T07:27:38Z</time>
      </trkpt>
      <trkpt lat="42.871801005676389" lon="0.928890975192189">
        <ele>1129</ele>
        <time>2026-04-22T07:27:44Z</time>
      </trkpt>
      <trkpt lat="42.871807040646672" lon="0.928824003785849">
        <ele>1131</ele>
        <time>2026-04-22T07:27:50Z</time>
      </trkpt>
      <trkpt lat="42.871790025383234" lon="0.928760971873999">
        <ele>1131</ele>
        <time>2026-04-22T07:27:56Z</time>
      </trkpt>
      <trkpt lat="42.871787007898092" lon="0.928714033216238">
        <ele>1131</ele>
        <time>2026-04-22T07:28:00Z</time>
      </trkpt>
      <trkpt lat="42.87178298458457" lon="0.928648989647627">
        <ele>1130</ele>
        <time>2026-04-22T07:28:06Z</time>
      </trkpt>
      <trkpt lat="42.87178298458457" lon="0.928579000756145">
        <ele>1132</ele>
        <time>2026-04-22T07:28:12Z</time>
      </trkpt>
      <trkpt lat="42.871793964877725" lon="0.928527032956481">
        <ele>1132</ele>
        <time>2026-04-22T07:28:18Z</time>
      </trkpt>
      <trkpt lat="42.871786002069712" lon="0.928459977731109">
        <ele>1135</ele>
        <time>2026-04-22T07:28:24Z</time>
      </trkpt>
      <trkpt lat="42.871779967099428" lon="0.928413961082697">
        <ele>1135</ele>
        <time>2026-04-22T07:28:28Z</time>
      </trkpt>
      <trkpt lat="42.871762029826641" lon="0.928174993023276">
        <ele>1136</ele>
        <time>2026-04-22T07:28:50Z</time>
      </trkpt>
      <trkpt lat="42.871755994856358" lon="0.928116990253329">
        <ele>1137</ele>
        <time>2026-04-22T07:28:56Z</time>
      </trkpt>
      <trkpt lat="42.871747026219964" lon="0.928002996370196">
        <ele>1139</ele>
        <time>2026-04-22T07:29:08Z</time>
      </trkpt>
      <trkpt lat="42.871753983199596" lon="0.927896965295076">
        <ele>1140</ele>
        <time>2026-04-22T07:29:18Z</time>
      </trkpt>
      <trkpt lat="42.871750965714455" lon="0.927781965583563">
        <ele>1141</ele>
        <time>2026-04-22T07:29:30Z</time>
      </trkpt>
      <trkpt lat="42.871750965714455" lon="0.927724968641996">
        <ele>1140</ele>
        <time>2026-04-22T07:29:36Z</time>
      </trkpt>
      <trkpt lat="42.87176001816988" lon="0.927661014720798">
        <ele>1141</ele>
        <time>2026-04-22T07:29:42Z</time>
      </trkpt>
      <trkpt lat="42.871749959886074" lon="0.927479965612292">
        <ele>1146</ele>
        <time>2026-04-22T07:30:00Z</time>
      </trkpt>
      <trkpt lat="42.871752977371216" lon="0.927421962842345">
        <ele>1147</ele>
        <time>2026-04-22T07:30:06Z</time>
      </trkpt>
      <trkpt lat="42.871758006513119" lon="0.927363960072398">
        <ele>1149</ele>
        <time>2026-04-22T07:30:12Z</time>
      </trkpt>
      <trkpt lat="42.871775021776557" lon="0.927260024473071">
        <ele>1152</ele>
        <time>2026-04-22T07:30:24Z</time>
      </trkpt>
      <trkpt lat="42.87180402316153" lon="0.927166985347867">
        <ele>1153</ele>
        <time>2026-04-22T07:30:36Z</time>
      </trkpt>
      <trkpt lat="42.871827995404601" lon="0.927064977586269">
        <ele>1156</ele>
        <time>2026-04-22T07:30:48Z</time>
      </trkpt>
      <trkpt lat="42.871811985969543" lon="0.92700001783669">
        <ele>1158</ele>
        <time>2026-04-22T07:30:56Z</time>
      </trkpt>
      <trkpt lat="42.871805028989911" lon="0.92693698592484">
        <ele>1158</ele>
        <time>2026-04-22T07:31:02Z</time>
      </trkpt>
      <trkpt lat="42.871797988191247" lon="0.926889041438699">
        <ele>1157</ele>
        <time>2026-04-22T07:31:06Z</time>
      </trkpt>
      <trkpt lat="42.871788013726473" lon="0.92682802118361">
        <ele>1157</ele>
        <time>2026-04-22T07:31:12Z</time>
      </trkpt>
      <trkpt lat="42.871773010119796" lon="0.926730036735535">
        <ele>1157</ele>
        <time>2026-04-22T07:31:20Z</time>
      </trkpt>
      <trkpt lat="42.871768986806273" lon="0.926438011229038">
        <ele>1159</ele>
        <time>2026-04-22T07:31:42Z</time>
      </trkpt>
      <trkpt lat="42.871764041483402" lon="0.92637799680233">
        <ele>1159</ele>
        <time>2026-04-22T07:31:46Z</time>
      </trkpt>
      <trkpt lat="42.871767980977893" lon="0.926317982375622">
        <ele>1159</ele>
        <time>2026-04-22T07:31:50Z</time>
      </trkpt>
      <trkpt lat="42.871790025383234" lon="0.926254028454423">
        <ele>1160</ele>
        <time>2026-04-22T07:31:54Z</time>
      </trkpt>
      <trkpt lat="42.871793964877725" lon="0.926181022077799">
        <ele>1162</ele>
        <time>2026-04-22T07:31:58Z</time>
      </trkpt>
      <trkpt lat="42.871810980141163" lon="0.926039032638073">
        <ele>1165</ele>
        <time>2026-04-22T07:32:06Z</time>
      </trkpt>
      <trkpt lat="42.871807962656021" lon="0.925964014604688">
        <ele>1166</ele>
        <time>2026-04-22T07:32:10Z</time>
      </trkpt>
      <trkpt lat="42.871821960434318" lon="0.925906011834741">
        <ele>1166</ele>
        <time>2026-04-22T07:32:20Z</time>
      </trkpt>
      <trkpt lat="42.87184601649642" lon="0.925842979922891">
        <ele>1165</ele>
        <time>2026-04-22T07:32:28Z</time>
      </trkpt>
      <trkpt lat="42.871870994567871" lon="0.925775002688169">
        <ele>1165</ele>
        <time>2026-04-22T07:32:36Z</time>
      </trkpt>
      <trkpt lat="42.871880969032645" lon="0.925695961341262">
        <ele>1165</ele>
        <time>2026-04-22T07:32:44Z</time>
      </trkpt>
      <trkpt lat="42.871877029538155" lon="0.925609963014722">
        <ele>1168</ele>
        <time>2026-04-22T07:32:52Z</time>
      </trkpt>
      <trkpt lat="42.871896978467703" lon="0.925405025482178">
        <ele>1167</ele>
        <time>2026-04-22T07:33:12Z</time>
      </trkpt>
      <trkpt lat="42.87191198207438" lon="0.92532497830689">
        <ele>1168</ele>
        <time>2026-04-22T07:33:20Z</time>
      </trkpt>
      <trkpt lat="42.871908964589238" lon="0.92526001855731">
        <ele>1170</ele>
        <time>2026-04-22T07:33:26Z</time>
      </trkpt>
      <trkpt lat="42.871914999559522" lon="0.925202015787363">
        <ele>1172</ele>
        <time>2026-04-22T07:33:32Z</time>
      </trkpt>
      <trkpt lat="42.87193201482296" lon="0.92508701607585">
        <ele>1173</ele>
        <time>2026-04-22T07:33:44Z</time>
      </trkpt>
      <trkpt lat="42.871945006772876" lon="0.924967993050814">
        <ele>1174</ele>
        <time>2026-04-22T07:33:56Z</time>
      </trkpt>
      <trkpt lat="42.871942995116115" lon="0.924903033301234">
        <ele>1175</ele>
        <time>2026-04-22T07:34:02Z</time>
      </trkpt>
      <trkpt lat="42.871949030086398" lon="0.924840001389384">
        <ele>1177</ele>
        <time>2026-04-22T07:34:08Z</time>
      </trkpt>
      <trkpt lat="42.871946012601256" lon="0.924779986962676">
        <ele>1179</ele>
        <time>2026-04-22T07:34:12Z</time>
      </trkpt>
      <trkpt lat="42.871949030086398" lon="0.924731958657503">
        <ele>1179</ele>
        <time>2026-04-22T07:34:16Z</time>
      </trkpt>
      <trkpt lat="42.871964033693075" lon="0.924675967544317">
        <ele>1181</ele>
        <time>2026-04-22T07:34:22Z</time>
      </trkpt>
      <trkpt lat="42.871994040906429" lon="0.924633974209428">
        <ele>1182</ele>
        <time>2026-04-22T07:34:28Z</time>
      </trkpt>
      <trkpt lat="42.872020024806261" lon="0.924585023894906">
        <ele>1184</ele>
        <time>2026-04-22T07:34:34Z</time>
      </trkpt>
      <trkpt lat="42.872045002877712" lon="0.92452903278172">
        <ele>1185</ele>
        <time>2026-04-22T07:34:42Z</time>
      </trkpt>
      <trkpt lat="42.872085990384221" lon="0.924424007534981">
        <ele>1186</ele>
        <time>2026-04-22T07:34:54Z</time>
      </trkpt>
      <trkpt lat="42.872098982334137" lon="0.924376985058188">
        <ele>1187</ele>
        <time>2026-04-22T07:34:58Z</time>
      </trkpt>
      <trkpt lat="42.872129995375872" lon="0.92427003197372">
        <ele>1187</ele>
        <time>2026-04-22T07:35:06Z</time>
      </trkpt>
      <trkpt lat="42.872144998982549" lon="0.924226026982069">
        <ele>1186</ele>
        <time>2026-04-22T07:35:10Z</time>
      </trkpt>
      <trkpt lat="42.872181963175535" lon="0.924140028655529">
        <ele>1188</ele>
        <time>2026-04-22T07:35:20Z</time>
      </trkpt>
      <trkpt lat="42.872194033116102" lon="0.924084037542343">
        <ele>1189</ele>
        <time>2026-04-22T07:35:26Z</time>
      </trkpt>
      <trkpt lat="42.872215993702412" lon="0.924027962610126">
        <ele>1190</ele>
        <time>2026-04-22T07:35:32Z</time>
      </trkpt>
      <trkpt lat="42.872230997309089" lon="0.923973983153701">
        <ele>1191</ele>
        <time>2026-04-22T07:35:38Z</time>
      </trkpt>
      <trkpt lat="42.872270978987217" lon="0.92382000759244">
        <ele>1192</ele>
        <time>2026-04-22T07:35:56Z</time>
      </trkpt>
      <trkpt lat="42.872291011735797" lon="0.923773990944028">
        <ele>1193</ele>
        <time>2026-04-22T07:36:02Z</time>
      </trkpt>
      <trkpt lat="42.872309032827616" lon="0.923724034801126">
        <ele>1193</ele>
        <time>2026-04-22T07:36:08Z</time>
      </trkpt>
      <trkpt lat="42.87234297953546" lon="0.923662008717656">
        <ele>1195</ele>
        <time>2026-04-22T07:36:16Z</time>
      </trkpt>
      <trkpt lat="42.872370975092053" lon="0.923611968755722">
        <ele>1196</ele>
        <time>2026-04-22T07:36:22Z</time>
      </trkpt>
      <trkpt lat="42.872411962598562" lon="0.923571987077594">
        <ele>1198</ele>
        <time>2026-04-22T07:36:28Z</time>
      </trkpt>
      <trkpt lat="42.872454039752483" lon="0.923532005399466">
        <ele>1199</ele>
        <time>2026-04-22T07:36:34Z</time>
      </trkpt>
      <trkpt lat="42.872489998117089" lon="0.923495963215828">
        <ele>1199</ele>
        <time>2026-04-22T07:36:38Z</time>
      </trkpt>
      <trkpt lat="42.872603992000222" lon="0.923332013189793">
        <ele>1199</ele>
        <time>2026-04-22T07:36:50Z</time>
      </trkpt>
      <trkpt lat="42.872649002820253" lon="0.923284990713">
        <ele>1199</ele>
        <time>2026-04-22T07:36:54Z</time>
      </trkpt>
      <trkpt lat="42.872676998376846" lon="0.923246014863253">
        <ele>1198</ele>
        <time>2026-04-22T07:36:58Z</time>
      </trkpt>
      <trkpt lat="42.872776994481683" lon="0.923122968524694">
        <ele>1198</ele>
        <time>2026-04-22T07:37:10Z</time>
      </trkpt>
      <trkpt lat="42.87281303666532" lon="0.923096984624863">
        <ele>1199</ele>
        <time>2026-04-22T07:37:16Z</time>
      </trkpt>
      <trkpt lat="42.87285796366632" lon="0.923009980469942">
        <ele>1203</ele>
        <time>2026-04-22T07:37:28Z</time>
      </trkpt>
      <trkpt lat="42.872895011678338" lon="0.922988019883633">
        <ele>1204</ele>
        <time>2026-04-22T07:37:34Z</time>
      </trkpt>
      <trkpt lat="42.872928958386183" lon="0.922956001013517">
        <ele>1204</ele>
        <time>2026-04-22T07:37:40Z</time>
      </trkpt>
      <trkpt lat="42.87296399474144" lon="0.922953989356756">
        <ele>1206</ele>
        <time>2026-04-22T07:37:46Z</time>
      </trkpt>
      <trkpt lat="42.873035995289683" lon="0.922930017113686">
        <ele>1207</ele>
        <time>2026-04-22T07:37:54Z</time>
      </trkpt>
      <trkpt lat="42.873074971139431" lon="0.922915013507009">
        <ele>1207</ele>
        <time>2026-04-22T07:38:04Z</time>
      </trkpt>
      <trkpt lat="42.873109001666307" lon="0.92289699241519">
        <ele>1209</ele>
        <time>2026-04-22T07:38:14Z</time>
      </trkpt>
      <trkpt lat="42.873144038021564" lon="0.922887017950416">
        <ele>1210</ele>
        <time>2026-04-22T07:38:24Z</time>
      </trkpt>
      <trkpt lat="42.873175973072648" lon="0.92285399325192">
        <ele>1216</ele>
        <time>2026-04-22T07:38:34Z</time>
      </trkpt>
      <trkpt lat="42.873244034126401" lon="0.922816023230553">
        <ele>1220</ele>
        <time>2026-04-22T07:38:48Z</time>
      </trkpt>
      <trkpt lat="42.87328502163291" lon="0.922806970775127">
        <ele>1220</ele>
        <time>2026-04-22T07:38:56Z</time>
      </trkpt>
      <trkpt lat="42.873317962512374" lon="0.922784004360437">
        <ele>1222</ele>
        <time>2026-04-22T07:39:04Z</time>
      </trkpt>
      <trkpt lat="42.873317962512374" lon="0.922736981883645">
        <ele>1223</ele>
        <time>2026-04-22T07:39:14Z</time>
      </trkpt>
      <trkpt lat="42.873352998867631" lon="0.922719966620207">
        <ele>1227</ele>
        <time>2026-04-22T07:39:22Z</time>
      </trkpt>
      <trkpt lat="42.873385017737746" lon="0.922694988548756">
        <ele>1228</ele>
        <time>2026-04-22T07:39:28Z</time>
      </trkpt>
      <trkpt lat="42.873448971658945" lon="0.922649977728724">
        <ele>1229</ele>
        <time>2026-04-22T07:39:40Z</time>
      </trkpt>
      <trkpt lat="42.873478978872299" lon="0.922609996050596">
        <ele>1229</ele>
        <time>2026-04-22T07:39:46Z</time>
      </trkpt>
      <trkpt lat="42.873509991914034" lon="0.92257303185761">
        <ele>1229</ele>
        <time>2026-04-22T07:39:52Z</time>
      </trkpt>
      <trkpt lat="42.873532958328724" lon="0.922521986067295">
        <ele>1229</ele>
        <time>2026-04-22T07:39:58Z</time>
      </trkpt>
      <trkpt lat="42.873582998290658" lon="0.922445962205529">
        <ele>1230</ele>
        <time>2026-04-22T07:40:10Z</time>
      </trkpt>
      <trkpt lat="42.873617028817534" lon="0.922405980527401">
        <ele>1230</ele>
        <time>2026-04-22T07:40:18Z</time>
      </trkpt>
      <trkpt lat="42.873660027980804" lon="0.922368010506034">
        <ele>1229</ele>
        <time>2026-04-22T07:40:26Z</time>
      </trkpt>
      <trkpt lat="42.873676959425211" lon="0.922321993857622">
        <ele>1230</ele>
        <time>2026-04-22T07:41:14Z</time>
      </trkpt>
      <trkpt lat="42.873697998002172" lon="0.92227597720921">
        <ele>1230</ele>
        <time>2026-04-22T07:41:20Z</time>
      </trkpt>
      <trkpt lat="42.873865971341729" lon="0.922023011371493">
        <ele>1233</ele>
        <time>2026-04-22T07:41:52Z</time>
      </trkpt>
      <trkpt lat="42.873895978555083" lon="0.921969031915069">
        <ele>1234</ele>
        <time>2026-04-22T07:41:58Z</time>
      </trkpt>
      <trkpt lat="42.873918022960424" lon="0.921906000003219">
        <ele>1236</ele>
        <time>2026-04-22T07:42:04Z</time>
      </trkpt>
      <trkpt lat="42.873954987153411" lon="0.921831987798214">
        <ele>1237</ele>
        <time>2026-04-22T07:42:10Z</time>
      </trkpt>
      <trkpt lat="42.874013995751739" lon="0.921723023056984">
        <ele>1240</ele>
        <time>2026-04-22T07:42:20Z</time>
      </trkpt>
      <trkpt lat="42.874048026278615" lon="0.921668959781528">
        <ele>1241</ele>
        <time>2026-04-22T07:42:24Z</time>
      </trkpt>
      <trkpt lat="42.874083984643221" lon="0.921566030010581">
        <ele>1242</ele>
        <time>2026-04-22T07:42:32Z</time>
      </trkpt>
      <trkpt lat="42.874098988249898" lon="0.921509033069015">
        <ele>1243</ele>
        <time>2026-04-22T07:42:36Z</time>
      </trkpt>
      <trkpt lat="42.874110974371433" lon="0.921416999772191">
        <ele>1246</ele>
        <time>2026-04-22T07:42:42Z</time>
      </trkpt>
      <trkpt lat="42.874109968543053" lon="0.92135296203196">
        <ele>1247</ele>
        <time>2026-04-22T07:42:46Z</time>
      </trkpt>
      <trkpt lat="42.874134024605155" lon="0.921257995069027">
        <ele>1249</ele>
        <time>2026-04-22T07:42:52Z</time>
      </trkpt>
      <trkpt lat="42.874204013496637" lon="0.921222036704421">
        <ele>1247</ele>
        <time>2026-04-22T07:43:12Z</time>
      </trkpt>
      <trkpt lat="42.874206025153399" lon="0.921280961483717">
        <ele>1246</ele>
        <time>2026-04-22T07:43:18Z</time>
      </trkpt>
      <trkpt lat="42.87421097047627" lon="0.921334018930793">
        <ele>1247</ele>
        <time>2026-04-22T07:43:24Z</time>
      </trkpt>
      <trkpt lat="42.874217005446553" lon="0.921387998387218">
        <ele>1248</ele>
        <time>2026-04-22T07:43:30Z</time>
      </trkpt>
      <trkpt lat="42.874229997396469" lon="0.921492017805576">
        <ele>1248</ele>
        <time>2026-04-22T07:43:42Z</time>
      </trkpt>
      <trkpt lat="42.874236032366753" lon="0.921547003090382">
        <ele>1246</ele>
        <time>2026-04-22T07:43:48Z</time>
      </trkpt>
      <trkpt lat="42.874202001839876" lon="0.921841040253639">
        <ele>1248</ele>
        <time>2026-04-22T07:44:10Z</time>
      </trkpt>
      <trkpt lat="42.874199990183115" lon="0.921913962811232">
        <ele>1249</ele>
        <time>2026-04-22T07:44:14Z</time>
      </trkpt>
      <trkpt lat="42.87418800406158" lon="0.921972971409559">
        <ele>1252</ele>
        <time>2026-04-22T07:44:18Z</time>
      </trkpt>
      <trkpt lat="42.874183980748057" lon="0.922033991664648">
        <ele>1254</ele>
        <time>2026-04-22T07:44:24Z</time>
      </trkpt>
      <trkpt lat="42.874178029596806" lon="0.922085959464312">
        <ele>1256</ele>
        <time>2026-04-22T07:44:30Z</time>
      </trkpt>
      <trkpt lat="42.874167971313" lon="0.92218603938818">
        <ele>1258</ele>
        <time>2026-04-22T07:44:42Z</time>
      </trkpt>
      <trkpt lat="42.874169982969761" lon="0.922238007187843">
        <ele>1258</ele>
        <time>2026-04-22T07:44:48Z</time>
      </trkpt>
      <trkpt lat="42.874171994626522" lon="0.922286035493016">
        <ele>1258</ele>
        <time>2026-04-22T07:44:54Z</time>
      </trkpt>
      <trkpt lat="42.87416897714138" lon="0.922350995242596">
        <ele>1259</ele>
        <time>2026-04-22T07:45:02Z</time>
      </trkpt>
      <trkpt lat="42.874159002676606" lon="0.922519974410534">
        <ele>1261</ele>
        <time>2026-04-22T07:45:20Z</time>
      </trkpt>
      <trkpt lat="42.874155985191464" lon="0.922579988837242">
        <ele>1263</ele>
        <time>2026-04-22T07:45:26Z</time>
      </trkpt>
      <trkpt lat="42.874154979363084" lon="0.922633968293667">
        <ele>1263</ele>
        <time>2026-04-22T07:45:32Z</time>
      </trkpt>
      <trkpt lat="42.874155985191464" lon="0.92268199659884">
        <ele>1266</ele>
        <time>2026-04-22T07:45:38Z</time>
      </trkpt>
      <trkpt lat="42.874161014333367" lon="0.922735976055264">
        <ele>1267</ele>
        <time>2026-04-22T07:45:44Z</time>
      </trkpt>
      <trkpt lat="42.874152967706323" lon="0.922847958281636">
        <ele>1271</ele>
        <time>2026-04-22T07:45:56Z</time>
      </trkpt>
      <trkpt lat="42.874150034040213" lon="0.922974022105336">
        <ele>1272</ele>
        <time>2026-04-22T07:46:08Z</time>
      </trkpt>
      <trkpt lat="42.874138969928026" lon="0.923037976026535">
        <ele>1272</ele>
        <time>2026-04-22T07:46:14Z</time>
      </trkpt>
      <trkpt lat="42.874138969928026" lon="0.923162028193474">
        <ele>1271</ele>
        <time>2026-04-22T07:46:26Z</time>
      </trkpt>
      <trkpt lat="42.874177023768425" lon="0.923186000436544">
        <ele>1272</ele>
        <time>2026-04-22T07:46:34Z</time>
      </trkpt>
      <trkpt lat="42.874197978526354" lon="0.923148030415177">
        <ele>1272</ele>
        <time>2026-04-22T07:46:40Z</time>
      </trkpt>
      <trkpt lat="42.874239971861243" lon="0.923053985461593">
        <ele>1274</ele>
        <time>2026-04-22T07:46:52Z</time>
      </trkpt>
      <trkpt lat="42.874266039580107" lon="0.923010986298323">
        <ele>1276</ele>
        <time>2026-04-22T07:46:58Z</time>
      </trkpt>
      <trkpt lat="42.874288000166416" lon="0.92296396382153">
        <ele>1278</ele>
        <time>2026-04-22T07:47:04Z</time>
      </trkpt>
      <trkpt lat="42.87431700155139" lon="0.922921970486641">
        <ele>1280</ele>
        <time>2026-04-22T07:47:10Z</time>
      </trkpt>
      <trkpt lat="42.874371986836195" lon="0.922841001302004">
        <ele>1281</ele>
        <time>2026-04-22T07:47:22Z</time>
      </trkpt>
      <trkpt lat="42.874430995434523" lon="0.922762965783477">
        <ele>1282</ele>
        <time>2026-04-22T07:47:34Z</time>
      </trkpt>
      <trkpt lat="42.874463014304638" lon="0.922732036560774">
        <ele>1283</ele>
        <time>2026-04-22T07:47:40Z</time>
      </trkpt>
      <trkpt lat="42.874494027346373" lon="0.922695994377136">
        <ele>1284</ele>
        <time>2026-04-22T07:47:46Z</time>
      </trkpt>
      <trkpt lat="42.874528979882598" lon="0.922676967456937">
        <ele>1285</ele>
        <time>2026-04-22T07:47:52Z</time>
      </trkpt>
      <trkpt lat="42.874551024287939" lon="0.922632962465286">
        <ele>1285</ele>
        <time>2026-04-22T07:47:58Z</time>
      </trkpt>
      <trkpt lat="42.87470399402082" lon="0.922450991347432">
        <ele>1290</ele>
        <time>2026-04-22T07:48:28Z</time>
      </trkpt>
      <trkpt lat="42.874730983749032" lon="0.922407992184162">
        <ele>1291</ele>
        <time>2026-04-22T07:48:34Z</time>
      </trkpt>
      <trkpt lat="42.874766020104289" lon="0.922368010506034">
        <ele>1292</ele>
        <time>2026-04-22T07:48:40Z</time>
      </trkpt>
      <trkpt lat="42.874916978180408" lon="0.922148991376162">
        <ele>1296</ele>
        <time>2026-04-22T07:49:10Z</time>
      </trkpt>
      <trkpt lat="42.875046981498599" lon="0.921978000551462">
        <ele>1300</ele>
        <time>2026-04-22T07:49:34Z</time>
      </trkpt>
      <trkpt lat="42.875077994540334" lon="0.921941958367825">
        <ele>1301</ele>
        <time>2026-04-22T07:49:40Z</time>
      </trkpt>
      <trkpt lat="42.875106995925307" lon="0.92190901748836">
        <ele>1301</ele>
        <time>2026-04-22T07:49:46Z</time>
      </trkpt>
      <trkpt lat="42.875132979825139" lon="0.921868029981852">
        <ele>1302</ele>
        <time>2026-04-22T07:49:52Z</time>
      </trkpt>
      <trkpt lat="42.875151000916958" lon="0.921824024990201">
        <ele>1303</ele>
        <time>2026-04-22T07:49:58Z</time>
      </trkpt>
      <trkpt lat="42.875173967331648" lon="0.92177901417017">
        <ele>1304</ele>
        <time>2026-04-22T07:50:04Z</time>
      </trkpt>
      <trkpt lat="42.875190982595086" lon="0.921735009178519">
        <ele>1304</ele>
        <time>2026-04-22T07:50:10Z</time>
      </trkpt>
      <trkpt lat="42.875210009515285" lon="0.921685975044966">
        <ele>1306</ele>
        <time>2026-04-22T07:50:16Z</time>
      </trkpt>
      <trkpt lat="42.875228030607104" lon="0.921635013073683">
        <ele>1307</ele>
        <time>2026-04-22T07:50:22Z</time>
      </trkpt>
      <trkpt lat="42.875256026163697" lon="0.92158698476851">
        <ele>1308</ele>
        <time>2026-04-22T07:50:28Z</time>
      </trkpt>
      <trkpt lat="42.875272035598755" lon="0.921537028625607">
        <ele>1310</ele>
        <time>2026-04-22T07:50:34Z</time>
      </trkpt>
      <trkpt lat="42.875287039205432" lon="0.921486988663673">
        <ele>1310</ele>
        <time>2026-04-22T07:50:40Z</time>
      </trkpt>
      <trkpt lat="42.875321991741657" lon="0.921465028077364">
        <ele>1311</ele>
        <time>2026-04-22T07:50:46Z</time>
      </trkpt>
      <trkpt lat="42.875341018661857" lon="0.921516995877028">
        <ele>1312</ele>
        <time>2026-04-22T07:50:54Z</time>
      </trkpt>
      <trkpt lat="42.875447971746325" lon="0.921860989183187">
        <ele>1315</ele>
        <time>2026-04-22T07:51:28Z</time>
      </trkpt>
      <trkpt lat="42.875469010323286" lon="0.921899965032935">
        <ele>1316</ele>
        <time>2026-04-22T07:51:34Z</time>
      </trkpt>
      <trkpt lat="42.875503962859511" lon="0.921918991953135">
        <ele>1317</ele>
        <time>2026-04-22T07:51:40Z</time>
      </trkpt>
      <trkpt lat="42.87554101087153" lon="0.92190901748836">
        <ele>1317</ele>
        <time>2026-04-22T07:51:44Z</time>
      </trkpt>
      <trkpt lat="42.875591972842813" lon="0.921902982518077">
        <ele>1318</ele>
        <time>2026-04-22T07:51:50Z</time>
      </trkpt>
      <trkpt lat="42.875571018084884" lon="0.921841962262988">
        <ele>1318</ele>
        <time>2026-04-22T07:52:00Z</time>
      </trkpt>
      <trkpt lat="42.875583004206419" lon="0.92173702083528">
        <ele>1318</ele>
        <time>2026-04-22T07:52:26Z</time>
      </trkpt>
      <trkpt lat="42.875597001984715" lon="0.92163098976016">
        <ele>1320</ele>
        <time>2026-04-22T07:52:36Z</time>
      </trkpt>
      <trkpt lat="42.875609993934631" lon="0.921568963676691">
        <ele>1322</ele>
        <time>2026-04-22T07:52:42Z</time>
      </trkpt>
      <trkpt lat="42.875618962571025" lon="0.921510038897395">
        <ele>1323</ele>
        <time>2026-04-22T07:52:48Z</time>
      </trkpt>
      <trkpt lat="42.875653998926282" lon="0.921396967023611">
        <ele>1324</ele>
        <time>2026-04-22T07:53:00Z</time>
      </trkpt>
      <trkpt lat="42.87567000836134" lon="0.921225976198912">
        <ele>1328</ele>
        <time>2026-04-22T07:53:18Z</time>
      </trkpt>
      <trkpt lat="42.875686017796397" lon="0.921169985085726">
        <ele>1328</ele>
        <time>2026-04-22T07:53:24Z</time>
      </trkpt>
      <trkpt lat="42.875704038888216" lon="0.921118017286062">
        <ele>1330</ele>
        <time>2026-04-22T07:53:30Z</time>
      </trkpt>
      <trkpt lat="42.875721976161003" lon="0.921066971495748">
        <ele>1331</ele>
        <time>2026-04-22T07:53:36Z</time>
      </trkpt>
      <trkpt lat="42.875739997252822" lon="0.921003017574549">
        <ele>1333</ele>
        <time>2026-04-22T07:54:44Z</time>
      </trkpt>
      <trkpt lat="42.875768998637795" lon="0.920958006754518">
        <ele>1333</ele>
        <time>2026-04-22T07:54:50Z</time>
      </trkpt>
      <trkpt lat="42.875796994194388" lon="0.920911990106106">
        <ele>1334</ele>
        <time>2026-04-22T07:54:56Z</time>
      </trkpt>
      <trkpt lat="42.87581903859973" lon="0.920861028134823">
        <ele>1334</ele>
        <time>2026-04-22T07:55:02Z</time>
      </trkpt>
      <trkpt lat="42.875849967822433" lon="0.920818028971553">
        <ele>1335</ele>
        <time>2026-04-22T07:55:08Z</time>
      </trkpt>
      <trkpt lat="42.875874023884535" lon="0.920779975131154">
        <ele>1337</ele>
        <time>2026-04-22T07:55:14Z</time>
      </trkpt>
      <trkpt lat="42.87588500417769" lon="0.920716021209955">
        <ele>1340</ele>
        <time>2026-04-22T07:55:20Z</time>
      </trkpt>
      <trkpt lat="42.875920040532947" lon="0.920673022046685">
        <ele>1340</ele>
        <time>2026-04-22T07:55:28Z</time>
      </trkpt>
      <trkpt lat="42.875940995290875" lon="0.920630022883415">
        <ele>1341</ele>
        <time>2026-04-22T07:55:34Z</time>
      </trkpt>
      <trkpt lat="42.875962033867836" lon="0.920524997636676">
        <ele>1343</ele>
        <time>2026-04-22T07:55:48Z</time>
      </trkpt>
      <trkpt lat="42.875981982797384" lon="0.920484010130167">
        <ele>1344</ele>
        <time>2026-04-22T07:55:54Z</time>
      </trkpt>
      <trkpt lat="42.876047026365995" lon="0.920270020142198">
        <ele>1349</ele>
        <time>2026-04-22T07:56:22Z</time>
      </trkpt>
      <trkpt lat="42.876065969467163" lon="0.920217968523502">
        <ele>1350</ele>
        <time>2026-04-22T07:56:28Z</time>
      </trkpt>
      <trkpt lat="42.876089019700885" lon="0.920164994895458">
        <ele>1351</ele>
        <time>2026-04-22T07:56:34Z</time>
      </trkpt>
      <trkpt lat="42.876147022470832" lon="0.919799041002989">
        <ele>1354</ele>
        <time>2026-04-22T07:57:06Z</time>
      </trkpt>
      <trkpt lat="42.876156996935606" lon="0.919746989384294">
        <ele>1354</ele>
        <time>2026-04-22T07:57:10Z</time>
      </trkpt>
      <trkpt lat="42.87616403773427" lon="0.919699966907501">
        <ele>1355</ele>
        <time>2026-04-22T07:57:14Z</time>
      </trkpt>
      <trkpt lat="42.876220028847456" lon="0.919626038521528">
        <ele>1355</ele>
        <time>2026-04-22T07:57:22Z</time>
      </trkpt>
      <trkpt lat="42.876247018575668" lon="0.919586978852749">
        <ele>1355</ele>
        <time>2026-04-22T07:57:26Z</time>
      </trkpt>
      <trkpt lat="42.876307033002377" lon="0.919477008283138">
        <ele>1355</ele>
        <time>2026-04-22T07:57:34Z</time>
      </trkpt>
      <trkpt lat="42.87631600163877" lon="0.919410036876798">
        <ele>1357</ele>
        <time>2026-04-22T07:57:38Z</time>
      </trkpt>
      <trkpt lat="42.876360006630421" lon="0.919350022450089">
        <ele>1354</ele>
        <time>2026-04-22T07:57:42Z</time>
      </trkpt>
      <trkpt lat="42.876328993588686" lon="0.919321021065116">
        <ele>1354</ele>
        <time>2026-04-22T07:57:44Z</time>
      </trkpt>
      <trkpt lat="42.876309966668487" lon="0.919280033558607">
        <ele>1354</ele>
        <time>2026-04-22T07:57:52Z</time>
      </trkpt>
      <trkpt lat="42.876347014680505" lon="0.919233011081815">
        <ele>1355</ele>
        <time>2026-04-22T07:57:56Z</time>
      </trkpt>
      <trkpt lat="42.876383978873491" lon="0.919221024960279">
        <ele>1356</ele>
        <time>2026-04-22T07:58:00Z</time>
      </trkpt>
      <trkpt lat="42.876452961936593" lon="0.919097978621721">
        <ele>1350</ele>
        <time>2026-04-22T07:58:14Z</time>
      </trkpt>
      <trkpt lat="42.876495961099863" lon="0.918995970860124">
        <ele>1347</ele>
        <time>2026-04-22T07:58:22Z</time>
      </trkpt>
      <trkpt lat="42.876532003283501" lon="0.9189229644835">
        <ele>1345</ele>
        <time>2026-04-22T07:58:28Z</time>
      </trkpt>
      <trkpt lat="42.876565027981997" lon="0.918876025825739">
        <ele>1345</ele>
        <time>2026-04-22T07:58:32Z</time>
      </trkpt>
      <trkpt lat="42.876591011881828" lon="0.918825985863805">
        <ele>1345</ele>
        <time>2026-04-22T07:58:36Z</time>
      </trkpt>
      <trkpt lat="42.876635016873479" lon="0.918755996972322">
        <ele>1346</ele>
        <time>2026-04-22T07:58:42Z</time>
      </trkpt>
      <trkpt lat="42.876692013815045" lon="0.91866597533226">
        <ele>1345</ele>
        <time>2026-04-22T07:58:50Z</time>
      </trkpt>
      <trkpt lat="42.876740964129567" lon="0.918597998097539">
        <ele>1343</ele>
        <time>2026-04-22T07:58:56Z</time>
      </trkpt>
      <trkpt lat="42.876970041543245" lon="0.91823598369956">
        <ele>1344</ele>
        <time>2026-04-22T07:59:24Z</time>
      </trkpt>
      <trkpt lat="42.877001976594329" lon="0.918172029778361">
        <ele>1345</ele>
        <time>2026-04-22T07:59:30Z</time>
      </trkpt>
      <trkpt lat="42.877032989636064" lon="0.918143028393388">
        <ele>1345</ele>
        <time>2026-04-22T07:59:34Z</time>
      </trkpt>
      <trkpt lat="42.877076994627714" lon="0.918107992038131">
        <ele>1347</ele>
        <time>2026-04-22T07:59:38Z</time>
      </trkpt>
      <trkpt lat="42.877230970188975" lon="0.917880004271865">
        <ele>1350</ele>
        <time>2026-04-22T07:59:54Z</time>
      </trkpt>
      <trkpt lat="42.877280004322529" lon="0.917828036472201">
        <ele>1349</ele>
        <time>2026-04-22T07:59:58Z</time>
      </trkpt>
      <trkpt lat="42.877309005707502" lon="0.917757963761687">
        <ele>1349</ele>
        <time>2026-04-22T08:00:02Z</time>
      </trkpt>
      <trkpt lat="42.877382012084126" lon="0.917566018179059">
        <ele>1348</ele>
        <time>2026-04-22T08:00:24Z</time>
      </trkpt>
      <trkpt lat="42.877473039552569" lon="0.917463004589081">
        <ele>1347</ele>
        <time>2026-04-22T08:00:34Z</time>
      </trkpt>
      <trkpt lat="42.877530036494136" lon="0.917357979342341">
        <ele>1348</ele>
        <time>2026-04-22T08:00:44Z</time>
      </trkpt>
      <trkpt lat="42.877571024000645" lon="0.917294025421143">
        <ele>1346</ele>
        <time>2026-04-22T08:00:50Z</time>
      </trkpt>
      <trkpt lat="42.877676971256733" lon="0.9171839710325">
        <ele>1344</ele>
        <time>2026-04-22T08:01:02Z</time>
      </trkpt>
      <trkpt lat="42.877726005390286" lon="0.917154969647527">
        <ele>1343</ele>
        <time>2026-04-22T08:01:06Z</time>
      </trkpt>
      <trkpt lat="42.877774033695459" lon="0.91713996604085">
        <ele>1344</ele>
        <time>2026-04-22T08:01:10Z</time>
      </trkpt>
      <trkpt lat="42.87781803868711" lon="0.917122028768063">
        <ele>1345</ele>
        <time>2026-04-22T08:01:14Z</time>
      </trkpt>
      <trkpt lat="42.878106962889433" lon="0.91709403321147">
        <ele>1353</ele>
        <time>2026-04-22T08:01:40Z</time>
      </trkpt>
      <trkpt lat="42.878190027549863" lon="0.917037036269903">
        <ele>1351</ele>
        <time>2026-04-22T08:01:48Z</time>
      </trkpt>
      <trkpt lat="42.878488004207611" lon="0.91673000715673">
        <ele>1348</ele>
        <time>2026-04-22T08:02:20Z</time>
      </trkpt>
      <trkpt lat="42.878533015027642" lon="0.916713997721672">
        <ele>1347</ele>
        <time>2026-04-22T08:02:24Z</time>
      </trkpt>
      <trkpt lat="42.878567967563868" lon="0.916678039357066">
        <ele>1347</ele>
        <time>2026-04-22T08:02:28Z</time>
      </trkpt>
      <trkpt lat="42.878607027232647" lon="0.91664400883019">
        <ele>1345</ele>
        <time>2026-04-22T08:02:32Z</time>
      </trkpt>
      <trkpt lat="42.878647008910775" lon="0.916631016880274">
        <ele>1345</ele>
        <time>2026-04-22T08:02:36Z</time>
      </trkpt>
      <trkpt lat="42.878726972267032" lon="0.916490033268929">
        <ele>1344</ele>
        <time>2026-04-22T08:02:50Z</time>
      </trkpt>
      <trkpt lat="42.878775000572205" lon="0.91647201217711">
        <ele>1346</ele>
        <time>2026-04-22T08:02:56Z</time>
      </trkpt>
      <trkpt lat="42.878805007785559" lon="0.916444016620517">
        <ele>1347</ele>
        <time>2026-04-22T08:03:00Z</time>
      </trkpt>
      <trkpt lat="42.878834009170532" lon="0.916407974436879">
        <ele>1346</ele>
        <time>2026-04-22T08:03:04Z</time>
      </trkpt>
      <trkpt lat="42.878968035802245" lon="0.916374027729034">
        <ele>1348</ele>
        <time>2026-04-22T08:03:18Z</time>
      </trkpt>
      <trkpt lat="42.879026960581541" lon="0.91638601385057">
        <ele>1349</ele>
        <time>2026-04-22T08:03:24Z</time>
      </trkpt>
      <trkpt lat="42.879102984443307" lon="0.916394982486963">
        <ele>1349</ele>
        <time>2026-04-22T08:03:30Z</time>
      </trkpt>
      <trkpt lat="42.879122011363506" lon="0.9163430146873">
        <ele>1349</ele>
        <time>2026-04-22T08:03:34Z</time>
      </trkpt>
      <trkpt lat="42.879248997196555" lon="0.91636598110199">
        <ele>1347</ele>
        <time>2026-04-22T08:03:46Z</time>
      </trkpt>
      <trkpt lat="42.879402972757816" lon="0.916449967771769">
        <ele>1347</ele>
        <time>2026-04-22T08:04:00Z</time>
      </trkpt>
      <trkpt lat="42.87953800521791" lon="0.916546024382114">
        <ele>1347</ele>
        <time>2026-04-22T08:04:12Z</time>
      </trkpt>
      <trkpt lat="42.879658034071326" lon="0.916707962751389">
        <ele>1351</ele>
        <time>2026-04-22T08:04:24Z</time>
      </trkpt>
      <trkpt lat="42.879852997139096" lon="0.916611989960074">
        <ele>1351</ele>
        <time>2026-04-22T08:04:40Z</time>
      </trkpt>
      <trkpt lat="42.879908988252282" lon="0.916505036875606">
        <ele>1351</ele>
        <time>2026-04-22T08:04:48Z</time>
      </trkpt>
      <trkpt lat="42.879931032657623" lon="0.916432030498981">
        <ele>1351</ele>
        <time>2026-04-22T08:04:58Z</time>
      </trkpt>
      <trkpt lat="42.879962967708707" lon="0.916376039385796">
        <ele>1350</ele>
        <time>2026-04-22T08:05:04Z</time>
      </trkpt>
      <trkpt lat="42.88007796742022" lon="0.916248969733715">
        <ele>1356</ele>
        <time>2026-04-22T08:05:16Z</time>
      </trkpt>
      <trkpt lat="42.880109986290336" lon="0.916206976398826">
        <ele>1357</ele>
        <time>2026-04-22T08:05:20Z</time>
      </trkpt>
      <trkpt lat="42.88011803291738" lon="0.916147967800498">
        <ele>1358</ele>
        <time>2026-04-22T08:05:26Z</time>
      </trkpt>
      <trkpt lat="42.880148962140083" lon="0.916101029142737">
        <ele>1359</ele>
        <time>2026-04-22T08:05:32Z</time>
      </trkpt>
      <trkpt lat="42.880165977403522" lon="0.916003966704011">
        <ele>1359</ele>
        <time>2026-04-22T08:05:40Z</time>
      </trkpt>
      <trkpt lat="42.880177041515708" lon="0.91595996171236">
        <ele>1359</ele>
        <time>2026-04-22T08:05:44Z</time>
      </trkpt>
      <trkpt lat="42.880231020972133" lon="0.915890978649259">
        <ele>1361</ele>
        <time>2026-04-22T08:05:52Z</time>
      </trkpt>
      <trkpt lat="42.880309978500009" lon="0.915818978101015">
        <ele>1362</ele>
        <time>2026-04-22T08:06:04Z</time>
      </trkpt>
      <trkpt lat="42.880340991541743" lon="0.915762986987829">
        <ele>1362</ele>
        <time>2026-04-22T08:06:10Z</time>
      </trkpt>
      <trkpt lat="42.880376027897" lon="0.915734991431236">
        <ele>1362</ele>
        <time>2026-04-22T08:06:14Z</time>
      </trkpt>
      <trkpt lat="42.880426989868283" lon="0.91569903306663">
        <ele>1362</ele>
        <time>2026-04-22T08:06:22Z</time>
      </trkpt>
      <trkpt lat="42.880460014566779" lon="0.91565603390336">
        <ele>1363</ele>
        <time>2026-04-22T08:06:26Z</time>
      </trkpt>
      <trkpt lat="42.880492033436894" lon="0.91561303474009">
        <ele>1363</ele>
        <time>2026-04-22T08:06:30Z</time>
      </trkpt>
      <trkpt lat="42.88050795905292" lon="0.915540028363466">
        <ele>1364</ele>
        <time>2026-04-22T08:06:36Z</time>
      </trkpt>
      <trkpt lat="42.88057099096477" lon="0.9154640045017">
        <ele>1363</ele>
        <time>2026-04-22T08:06:46Z</time>
      </trkpt>
      <trkpt lat="42.880608960986137" lon="0.915422011166811">
        <ele>1363</ele>
        <time>2026-04-22T08:06:52Z</time>
      </trkpt>
      <trkpt lat="42.880680961534381" lon="0.915300976485014">
        <ele>1364</ele>
        <time>2026-04-22T08:07:04Z</time>
      </trkpt>
      <trkpt lat="42.880766037851572" lon="0.91518497094512">
        <ele>1367</ele>
        <time>2026-04-22T08:07:16Z</time>
      </trkpt>
      <trkpt lat="42.88078498095274" lon="0.915136020630598">
        <ele>1367</ele>
        <time>2026-04-22T08:07:20Z</time>
      </trkpt>
      <trkpt lat="42.880807025358081" lon="0.915095033124089">
        <ele>1367</ele>
        <time>2026-04-22T08:07:24Z</time>
      </trkpt>
      <trkpt lat="42.880869973450899" lon="0.915021020919085">
        <ele>1369</ele>
        <time>2026-04-22T08:07:32Z</time>
      </trkpt>
      <trkpt lat="42.880894029513001" lon="0.914995037019253">
        <ele>1369</ele>
        <time>2026-04-22T08:11:48Z</time>
      </trkpt>
      <trkpt lat="42.880866033956409" lon="0.91494801454246">
        <ele>1369</ele>
        <time>2026-04-22T08:11:52Z</time>
      </trkpt>
      <trkpt lat="42.880895035341382" lon="0.914896968752146">
        <ele>1368</ele>
        <time>2026-04-22T08:11:58Z</time>
      </trkpt>
      <trkpt lat="42.880940968170762" lon="0.914866961538792">
        <ele>1369</ele>
        <time>2026-04-22T08:12:02Z</time>
      </trkpt>
      <trkpt lat="42.880981033667922" lon="0.914780041202903">
        <ele>1371</ele>
        <time>2026-04-22T08:12:10Z</time>
      </trkpt>
      <trkpt lat="42.881041970103979" lon="0.914705023169518">
        <ele>1372</ele>
        <time>2026-04-22T08:12:18Z</time>
      </trkpt>
      <trkpt lat="42.881092010065913" lon="0.914684990420938">
        <ele>1374</ele>
        <time>2026-04-22T08:12:22Z</time>
      </trkpt>
      <trkpt lat="42.881123023107648" lon="0.914644002914429">
        <ele>1374</ele>
        <time>2026-04-22T08:12:26Z</time>
      </trkpt>
      <trkpt lat="42.881159987300634" lon="0.9146040212363">
        <ele>1374</ele>
        <time>2026-04-22T08:12:30Z</time>
      </trkpt>
      <trkpt lat="42.881203992292285" lon="0.914576025679708">
        <ele>1374</ele>
        <time>2026-04-22T08:12:34Z</time>
      </trkpt>
      <trkpt lat="42.881224025040865" lon="0.914538977667689">
        <ele>1374</ele>
        <time>2026-04-22T08:12:38Z</time>
      </trkpt>
      <trkpt lat="42.881336007267237" lon="0.914446022361517">
        <ele>1375</ele>
        <time>2026-04-22T08:12:50Z</time>
      </trkpt>
      <trkpt lat="42.881411025300622" lon="0.914311995729804">
        <ele>1375</ele>
        <time>2026-04-22T08:13:04Z</time>
      </trkpt>
      <trkpt lat="42.881441032513976" lon="0.914276037365198">
        <ele>1375</ele>
        <time>2026-04-22T08:13:12Z</time>
      </trkpt>
      <trkpt lat="42.881459975615144" lon="0.914235971868038">
        <ele>1376</ele>
        <time>2026-04-22T08:13:18Z</time>
      </trkpt>
      <trkpt lat="42.881496017798781" lon="0.914223985746503">
        <ele>1378</ele>
        <time>2026-04-22T08:13:24Z</time>
      </trkpt>
      <trkpt lat="42.881530970335007" lon="0.914190039038658">
        <ele>1379</ele>
        <time>2026-04-22T08:13:30Z</time>
      </trkpt>
      <trkpt lat="42.881630966439843" lon="0.914147961884737">
        <ele>1380</ele>
        <time>2026-04-22T08:13:42Z</time>
      </trkpt>
      <trkpt lat="42.881655022501945" lon="0.914108986034989">
        <ele>1380</ele>
        <time>2026-04-22T08:13:46Z</time>
      </trkpt>
      <trkpt lat="42.881690980866551" lon="0.914095994085073">
        <ele>1382</ele>
        <time>2026-04-22T08:13:52Z</time>
      </trkpt>
      <trkpt lat="42.881770022213459" lon="0.914057018235326">
        <ele>1384</ele>
        <time>2026-04-22T08:14:02Z</time>
      </trkpt>
      <trkpt lat="42.881805980578065" lon="0.914049977436662">
        <ele>1385</ele>
        <time>2026-04-22T08:14:08Z</time>
      </trkpt>
      <trkpt lat="42.881843028590083" lon="0.914032962173224">
        <ele>1387</ele>
        <time>2026-04-22T08:14:14Z</time>
      </trkpt>
      <trkpt lat="42.881876975297928" lon="0.914005972445011">
        <ele>1388</ele>
        <time>2026-04-22T08:14:20Z</time>
      </trkpt>
      <trkpt lat="42.882003039121628" lon="0.91395802795887">
        <ele>1391</ele>
        <time>2026-04-22T08:14:38Z</time>
      </trkpt>
      <trkpt lat="42.882035980001092" lon="0.913917040452361">
        <ele>1390</ele>
        <time>2026-04-22T08:14:42Z</time>
      </trkpt>
      <trkpt lat="42.882081996649504" lon="0.913905976340175">
        <ele>1391</ele>
        <time>2026-04-22T08:14:48Z</time>
      </trkpt>
      <trkpt lat="42.882118038833141" lon="0.913900025188923">
        <ele>1393</ele>
        <time>2026-04-22T08:14:52Z</time>
      </trkpt>
      <trkpt lat="42.88222398608923" lon="0.913790976628661">
        <ele>1393</ele>
        <time>2026-04-22T08:15:08Z</time>
      </trkpt>
      <trkpt lat="42.88224502466619" lon="0.913754012435675">
        <ele>1393</ele>
        <time>2026-04-22T08:15:12Z</time>
      </trkpt>
      <trkpt lat="42.882277965545654" lon="0.913703972473741">
        <ele>1393</ele>
        <time>2026-04-22T08:15:18Z</time>
      </trkpt>
      <trkpt lat="42.882314007729292" lon="0.913643036037683">
        <ele>1396</ele>
        <time>2026-04-22T08:15:24Z</time>
      </trkpt>
      <trkpt lat="42.882372010499239" lon="0.913601964712143">
        <ele>1396</ele>
        <time>2026-04-22T08:15:30Z</time>
      </trkpt>
      <trkpt lat="42.882412998005748" lon="0.913545973598957">
        <ele>1397</ele>
        <time>2026-04-22T08:15:36Z</time>
      </trkpt>
      <trkpt lat="42.882446022704244" lon="0.913511021062732">
        <ele>1397</ele>
        <time>2026-04-22T08:15:40Z</time>
      </trkpt>
      <trkpt lat="42.882508970797062" lon="0.913383029401302">
        <ele>1398</ele>
        <time>2026-04-22T08:15:52Z</time>
      </trkpt>
      <trkpt lat="42.882543001323938" lon="0.91327297501266">
        <ele>1398</ele>
        <time>2026-04-22T08:16:02Z</time>
      </trkpt>
      <trkpt lat="42.882596980780363" lon="0.913076000288129">
        <ele>1400</ele>
        <time>2026-04-22T08:16:20Z</time>
      </trkpt>
      <trkpt lat="42.882619025185704" lon="0.912968963384628">
        <ele>1402</ele>
        <time>2026-04-22T08:16:30Z</time>
      </trkpt>
      <trkpt lat="42.882661018520594" lon="0.912832003086805">
        <ele>1405</ele>
        <time>2026-04-22T08:16:42Z</time>
      </trkpt>
      <trkpt lat="42.882682979106903" lon="0.912792021408677">
        <ele>1406</ele>
        <time>2026-04-22T08:16:46Z</time>
      </trkpt>
      <trkpt lat="42.882714997977018" lon="0.912684984505177">
        <ele>1408</ele>
        <time>2026-04-22T08:16:56Z</time>
      </trkpt>
      <trkpt lat="42.882736958563328" lon="0.912535032257438">
        <ele>1408</ele>
        <time>2026-04-22T08:17:08Z</time>
      </trkpt>
      <trkpt lat="42.882749028503895" lon="0.912472000345588">
        <ele>1409</ele>
        <time>2026-04-22T08:17:14Z</time>
      </trkpt>
      <trkpt lat="42.882795967161655" lon="0.912237977609038">
        <ele>1411</ele>
        <time>2026-04-22T08:17:34Z</time>
      </trkpt>
      <trkpt lat="42.882809964939952" lon="0.912173017859459">
        <ele>1411</ele>
        <time>2026-04-22T08:17:40Z</time>
      </trkpt>
      <trkpt lat="42.882829997688532" lon="0.912116020917892">
        <ele>1411</ele>
        <time>2026-04-22T08:17:46Z</time>
      </trkpt>
      <trkpt lat="42.882829997688532" lon="0.912063969299197">
        <ele>1413</ele>
        <time>2026-04-22T08:17:50Z</time>
      </trkpt>
      <trkpt lat="42.882835026830435" lon="0.911975037306547">
        <ele>1415</ele>
        <time>2026-04-22T08:17:58Z</time>
      </trkpt>
      <trkpt lat="42.882838966324925" lon="0.911883004009724">
        <ele>1416</ele>
        <time>2026-04-22T08:18:06Z</time>
      </trkpt>
      <trkpt lat="42.882850030437112" lon="0.91181100346148">
        <ele>1417</ele>
        <time>2026-04-22T08:18:12Z</time>
      </trkpt>
      <trkpt lat="42.882876014336944" lon="0.911742020398378">
        <ele>1419</ele>
        <time>2026-04-22T08:18:18Z</time>
      </trkpt>
      <trkpt lat="42.882899986580014" lon="0.911673959344625">
        <ele>1419</ele>
        <time>2026-04-22T08:18:24Z</time>
      </trkpt>
      <trkpt lat="42.882934017106891" lon="0.911628026515245">
        <ele>1419</ele>
        <time>2026-04-22T08:18:30Z</time>
      </trkpt>
      <trkpt lat="42.882966035977006" lon="0.911521995440125">
        <ele>1418</ele>
        <time>2026-04-22T08:18:40Z</time>
      </trkpt>
      <trkpt lat="42.883028984069824" lon="0.911404984071851">
        <ele>1421</ele>
        <time>2026-04-22T08:18:56Z</time>
      </trkpt>
      <trkpt lat="42.883056979626417" lon="0.911331977695227">
        <ele>1423</ele>
        <time>2026-04-22T08:19:04Z</time>
      </trkpt>
      <trkpt lat="42.883096039295197" lon="0.911282021552324">
        <ele>1424</ele>
        <time>2026-04-22T08:19:10Z</time>
      </trkpt>
      <trkpt lat="42.88312797434628" lon="0.911233993247151">
        <ele>1425</ele>
        <time>2026-04-22T08:19:16Z</time>
      </trkpt>
      <trkpt lat="42.883162004873157" lon="0.911184037104249">
        <ele>1425</ele>
        <time>2026-04-22T08:19:22Z</time>
      </trkpt>
      <trkpt lat="42.883196035400033" lon="0.911075994372368">
        <ele>1426</ele>
        <time>2026-04-22T08:19:32Z</time>
      </trkpt>
      <trkpt lat="42.88325403816998" lon="0.910966023802757">
        <ele>1427</ele>
        <time>2026-04-22T08:19:44Z</time>
      </trkpt>
      <trkpt lat="42.883286979049444" lon="0.910922018811107">
        <ele>1429</ele>
        <time>2026-04-22T08:19:50Z</time>
      </trkpt>
      <trkpt lat="42.883292008191347" lon="0.91086502186954">
        <ele>1429</ele>
        <time>2026-04-22T08:19:56Z</time>
      </trkpt>
      <trkpt lat="42.883317992091179" lon="0.910819005221128">
        <ele>1430</ele>
        <time>2026-04-22T08:20:02Z</time>
      </trkpt>
      <trkpt lat="42.883353028446436" lon="0.910638961941004">
        <ele>1433</ele>
        <time>2026-04-22T08:20:20Z</time>
      </trkpt>
      <trkpt lat="42.883369037881494" lon="0.910592023283243">
        <ele>1434</ele>
        <time>2026-04-22T08:20:26Z</time>
      </trkpt>
      <trkpt lat="42.883396027609706" lon="0.910545000806451">
        <ele>1435</ele>
        <time>2026-04-22T08:20:32Z</time>
      </trkpt>
      <trkpt lat="42.883433997631073" lon="0.910398988053203">
        <ele>1436</ele>
        <time>2026-04-22T08:20:50Z</time>
      </trkpt>
      <trkpt lat="42.883468028157949" lon="0.91032899916172">
        <ele>1436</ele>
        <time>2026-04-22T08:20:58Z</time>
      </trkpt>
      <trkpt lat="42.883486971259117" lon="0.910225985571742">
        <ele>1435</ele>
        <time>2026-04-22T08:21:08Z</time>
      </trkpt>
      <trkpt lat="42.883499041199684" lon="0.910147028043866">
        <ele>1437</ele>
        <time>2026-04-22T08:21:16Z</time>
      </trkpt>
      <trkpt lat="42.883547991514206" lon="0.910051977261901">
        <ele>1442</ele>
        <time>2026-04-22T08:21:28Z</time>
      </trkpt>
      <trkpt lat="42.883607000112534" lon="0.909965978935361">
        <ele>1444</ele>
        <time>2026-04-22T08:21:40Z</time>
      </trkpt>
      <trkpt lat="42.883654022589326" lon="0.909848967567086">
        <ele>1446</ele>
        <time>2026-04-22T08:21:58Z</time>
      </trkpt>
      <trkpt lat="42.883656034246087" lon="0.909802028909326">
        <ele>1446</ele>
        <time>2026-04-22T08:22:02Z</time>
      </trkpt>
      <trkpt lat="42.883668020367622" lon="0.909733967855573">
        <ele>1447</ele>
        <time>2026-04-22T08:22:08Z</time>
      </trkpt>
      <trkpt lat="42.883690986782312" lon="0.909677976742387">
        <ele>1450</ele>
        <time>2026-04-22T08:22:14Z</time>
      </trkpt>
      <trkpt lat="42.883700961247087" lon="0.909612011164427">
        <ele>1451</ele>
        <time>2026-04-22T08:22:20Z</time>
      </trkpt>
      <trkpt lat="42.883720993995667" lon="0.909470021724701">
        <ele>1453</ele>
        <time>2026-04-22T08:22:32Z</time>
      </trkpt>
      <trkpt lat="42.883713031187654" lon="0.909344041720033">
        <ele>1455</ele>
        <time>2026-04-22T08:22:42Z</time>
      </trkpt>
      <trkpt lat="42.883681012317538" lon="0.909212026745081">
        <ele>1457</ele>
        <time>2026-04-22T08:22:54Z</time>
      </trkpt>
      <trkpt lat="42.8836639970541" lon="0.909158969298005">
        <ele>1456</ele>
        <time>2026-04-22T08:23:00Z</time>
      </trkpt>
      <trkpt lat="42.883668020367622" lon="0.909107001498342">
        <ele>1457</ele>
        <time>2026-04-22T08:23:04Z</time>
      </trkpt>
      <trkpt lat="42.883665002882481" lon="0.909056039527059">
        <ele>1457</ele>
        <time>2026-04-22T08:23:08Z</time>
      </trkpt>
      <trkpt lat="42.883671959862113" lon="0.90899602510035">
        <ele>1457</ele>
        <time>2026-04-22T08:23:14Z</time>
      </trkpt>
      <trkpt lat="42.8836639970541" lon="0.9089329931885">
        <ele>1458</ele>
        <time>2026-04-22T08:23:20Z</time>
      </trkpt>
      <trkpt lat="42.883646981790662" lon="0.90886996127665">
        <ele>1459</ele>
        <time>2026-04-22T08:23:26Z</time>
      </trkpt>
      <trkpt lat="42.883623009547591" lon="0.908739035949111">
        <ele>1462</ele>
        <time>2026-04-22T08:23:38Z</time>
      </trkpt>
      <trkpt lat="42.883611023426056" lon="0.908678015694022">
        <ele>1463</ele>
        <time>2026-04-22T08:23:44Z</time>
      </trkpt>
      <trkpt lat="42.883609011769295" lon="0.90861096046865">
        <ele>1465</ele>
        <time>2026-04-22T08:23:50Z</time>
      </trkpt>
      <trkpt lat="42.883596019819379" lon="0.908526973798871">
        <ele>1466</ele>
        <time>2026-04-22T08:23:58Z</time>
      </trkpt>
      <trkpt lat="42.883569030091166" lon="0.908443992957473">
        <ele>1466</ele>
        <time>2026-04-22T08:24:06Z</time>
      </trkpt>
      <trkpt lat="42.883552014827728" lon="0.908296974375844">
        <ele>1466</ele>
        <time>2026-04-22T08:24:20Z</time>
      </trkpt>
      <trkpt lat="42.883537011221051" lon="0.908212987706065">
        <ele>1469</ele>
        <time>2026-04-22T08:24:28Z</time>
      </trkpt>
      <trkpt lat="42.883525025099516" lon="0.908136963844299">
        <ele>1470</ele>
        <time>2026-04-22T08:24:36Z</time>
      </trkpt>
      <trkpt lat="42.883526030927896" lon="0.908064041286707">
        <ele>1474</ele>
        <time>2026-04-22T08:24:44Z</time>
      </trkpt>
      <trkpt lat="42.883517984300852" lon="0.90798600576818">
        <ele>1475</ele>
        <time>2026-04-22T08:24:52Z</time>
      </trkpt>
      <trkpt lat="42.883499963209033" lon="0.907937977463007">
        <ele>1477</ele>
        <time>2026-04-22T08:24:58Z</time>
      </trkpt>
      <trkpt lat="42.883403990417719" lon="0.907647963613272">
        <ele>1480</ele>
        <time>2026-04-22T08:25:26Z</time>
      </trkpt>
      <trkpt lat="42.883369959890842" lon="0.907549979165196">
        <ele>1480</ele>
        <time>2026-04-22T08:25:36Z</time>
      </trkpt>
      <trkpt lat="42.883325032889843" lon="0.90742701664567">
        <ele>1485</ele>
        <time>2026-04-22T08:25:50Z</time>
      </trkpt>
      <trkpt lat="42.883323021233082" lon="0.907362978905439">
        <ele>1486</ele>
        <time>2026-04-22T08:25:56Z</time>
      </trkpt>
      <trkpt lat="42.883302988484502" lon="0.907315034419298">
        <ele>1487</ele>
        <time>2026-04-22T08:26:02Z</time>
      </trkpt>
      <trkpt lat="42.883278010413051" lon="0.907261976972222">
        <ele>1489</ele>
        <time>2026-04-22T08:26:08Z</time>
      </trkpt>
      <trkpt lat="42.88321397267282" lon="0.907094003632665">
        <ele>1491</ele>
        <time>2026-04-22T08:26:24Z</time>
      </trkpt>
      <trkpt lat="42.883182037621737" lon="0.907017979770899">
        <ele>1491</ele>
        <time>2026-04-22T08:26:32Z</time>
      </trkpt>
      <trkpt lat="42.883087992668152" lon="0.906726960092783">
        <ele>1492</ele>
        <time>2026-04-22T08:26:56Z</time>
      </trkpt>
      <trkpt lat="42.883065026253462" lon="0.906638028100133">
        <ele>1496</ele>
        <time>2026-04-22T08:27:04Z</time>
      </trkpt>
      <trkpt lat="42.883029989898205" lon="0.906588993966579">
        <ele>1500</ele>
        <time>2026-04-22T08:27:10Z</time>
      </trkpt>
      <trkpt lat="42.883011968806386" lon="0.906536020338535">
        <ele>1501</ele>
        <time>2026-04-22T08:27:16Z</time>
      </trkpt>
      <trkpt lat="42.88291297852993" lon="0.906401993706822">
        <ele>1500</ele>
        <time>2026-04-22T08:27:36Z</time>
      </trkpt>
      <trkpt lat="42.882834021002054" lon="0.906292023137212">
        <ele>1502</ele>
        <time>2026-04-22T08:27:52Z</time>
      </trkpt>
      <trkpt lat="42.882788004353642" lon="0.906227985396981">
        <ele>1502</ele>
        <time>2026-04-22T08:28:00Z</time>
      </trkpt>
      <trkpt lat="42.882751040160656" lon="0.906150033697486">
        <ele>1506</ele>
        <time>2026-04-22T08:28:08Z</time>
      </trkpt>
      <trkpt lat="42.882693959400058" lon="0.906070992350578">
        <ele>1508</ele>
        <time>2026-04-22T08:28:18Z</time>
      </trkpt>
      <trkpt lat="42.882636962458491" lon="0.906008966267109">
        <ele>1510</ele>
        <time>2026-04-22T08:28:26Z</time>
      </trkpt>
      <trkpt lat="42.882615001872182" lon="0.905968984588981">
        <ele>1510</ele>
        <time>2026-04-22T08:28:30Z</time>
      </trkpt>
      <trkpt lat="42.882581977173686" lon="0.905932020395994">
        <ele>1511</ele>
        <time>2026-04-22T08:28:36Z</time>
      </trkpt>
      <trkpt lat="42.882552975788713" lon="0.905900001525879">
        <ele>1511</ele>
        <time>2026-04-22T08:28:42Z</time>
      </trkpt>
      <trkpt lat="42.882523974403739" lon="0.905864965170622">
        <ele>1512</ele>
        <time>2026-04-22T08:28:48Z</time>
      </trkpt>
      <trkpt lat="42.882493967190385" lon="0.905820960178971">
        <ele>1514</ele>
        <time>2026-04-22T08:28:54Z</time>
      </trkpt>
      <trkpt lat="42.882461026310921" lon="0.905769998207688">
        <ele>1515</ele>
        <time>2026-04-22T08:29:00Z</time>
      </trkpt>
      <trkpt lat="42.882420038804412" lon="0.905743008479476">
        <ele>1517</ele>
        <time>2026-04-22T08:29:06Z</time>
      </trkpt>
      <trkpt lat="42.882380979135633" lon="0.905707972124219">
        <ele>1519</ele>
        <time>2026-04-22T08:29:12Z</time>
      </trkpt>
      <trkpt lat="42.88233001716435" lon="0.905607976019382">
        <ele>1522</ele>
        <time>2026-04-22T08:29:24Z</time>
      </trkpt>
      <trkpt lat="42.882184004411101" lon="0.905479984357953">
        <ele>1526</ele>
        <time>2026-04-22T08:29:50Z</time>
      </trkpt>
      <trkpt lat="42.88216196000576" lon="0.905445031821728">
        <ele>1526</ele>
        <time>2026-04-22T08:29:54Z</time>
      </trkpt>
      <trkpt lat="42.881991975009441" lon="0.90530295856297">
        <ele>1530</ele>
        <time>2026-04-22T08:30:30Z</time>
      </trkpt>
      <trkpt lat="42.881955010816455" lon="0.905282003805041">
        <ele>1530</ele>
        <time>2026-04-22T08:30:36Z</time>
      </trkpt>
      <trkpt lat="42.881918968632817" lon="0.905251996591687">
        <ele>1531</ele>
        <time>2026-04-22T08:30:42Z</time>
      </trkpt>
      <trkpt lat="42.881877981126308" lon="0.905231963843107">
        <ele>1532</ele>
        <time>2026-04-22T08:30:48Z</time>
      </trkpt>
      <trkpt lat="42.881846968084574" lon="0.905202040448785">
        <ele>1533</ele>
        <time>2026-04-22T08:30:54Z</time>
      </trkpt>
      <trkpt lat="42.881767004728317" lon="0.905152000486851">
        <ele>1534</ele>
        <time>2026-04-22T08:31:06Z</time>
      </trkpt>
      <trkpt lat="42.88168603554368" lon="0.905101038515568">
        <ele>1537</ele>
        <time>2026-04-22T08:31:18Z</time>
      </trkpt>
      <trkpt lat="42.881647981703281" lon="0.905087040737271">
        <ele>1538</ele>
        <time>2026-04-22T08:31:24Z</time>
      </trkpt>
      <trkpt lat="42.881567012518644" lon="0.905055021867156">
        <ele>1540</ele>
        <time>2026-04-22T08:31:36Z</time>
      </trkpt>
      <trkpt lat="42.88153599947691" lon="0.905037000775337">
        <ele>1541</ele>
        <time>2026-04-22T08:31:40Z</time>
      </trkpt>
      <trkpt lat="42.881498029455543" lon="0.905030965805054">
        <ele>1542</ele>
        <time>2026-04-22T08:31:48Z</time>
      </trkpt>
      <trkpt lat="42.881337013095617" lon="0.90506499633193">
        <ele>1546</ele>
        <time>2026-04-22T08:32:12Z</time>
      </trkpt>
      <trkpt lat="42.88130097091198" lon="0.90508402325213">
        <ele>1547</ele>
        <time>2026-04-22T08:32:18Z</time>
      </trkpt>
      <trkpt lat="42.881206003949046" lon="0.905099026858807">
        <ele>1549</ele>
        <time>2026-04-22T08:32:30Z</time>
      </trkpt>
      <trkpt lat="42.881156969815493" lon="0.905112018808723">
        <ele>1549</ele>
        <time>2026-04-22T08:32:36Z</time>
      </trkpt>
      <trkpt lat="42.881116988137364" lon="0.905121993273497">
        <ele>1550</ele>
        <time>2026-04-22T08:32:40Z</time>
      </trkpt>
      <trkpt lat="42.880869973450899" lon="0.905249984934926">
        <ele>1552</ele>
        <time>2026-04-22T08:33:12Z</time>
      </trkpt>
      <trkpt lat="42.880635028705001" lon="0.905339000746608">
        <ele>1559</ele>
        <time>2026-04-22T08:33:48Z</time>
      </trkpt>
      <trkpt lat="42.880464037880301" lon="0.905399015173316">
        <ele>1563</ele>
        <time>2026-04-22T08:34:12Z</time>
      </trkpt>
      <trkpt lat="42.880376027897" lon="0.905441008508205">
        <ele>1565</ele>
        <time>2026-04-22T08:34:24Z</time>
      </trkpt>
      <trkpt lat="42.880291035398841" lon="0.905452994629741">
        <ele>1566</ele>
        <time>2026-04-22T08:34:34Z</time>
      </trkpt>
      <trkpt lat="42.880257004871964" lon="0.905470009893179">
        <ele>1567</ele>
        <time>2026-04-22T08:34:38Z</time>
      </trkpt>
      <trkpt lat="42.880188021808863" lon="0.905488030984998">
        <ele>1567</ele>
        <time>2026-04-22T08:34:46Z</time>
      </trkpt>
      <trkpt lat="42.879946958273649" lon="0.905561959370971">
        <ele>1571</ele>
        <time>2026-04-22T08:35:20Z</time>
      </trkpt>
      <trkpt lat="42.879906976595521" lon="0.905578974634409">
        <ele>1572</ele>
        <time>2026-04-22T08:35:26Z</time>
      </trkpt>
      <trkpt lat="42.879870012402534" lon="0.905588027089834">
        <ele>1573</ele>
        <time>2026-04-22T08:35:32Z</time>
      </trkpt>
      <trkpt lat="42.879834976047277" lon="0.905584003776312">
        <ele>1574</ele>
        <time>2026-04-22T08:35:36Z</time>
      </trkpt>
      <trkpt lat="42.879596007987857" lon="0.905607976019382">
        <ele>1579</ele>
        <time>2026-04-22T08:36:06Z</time>
      </trkpt>
      <trkpt lat="42.879547979682684" lon="0.905604036524892">
        <ele>1579</ele>
        <time>2026-04-22T08:36:12Z</time>
      </trkpt>
      <trkpt lat="42.879357961937785" lon="0.905641000717878">
        <ele>1579</ele>
        <time>2026-04-22T08:36:30Z</time>
      </trkpt>
      <trkpt lat="42.879322003573179" lon="0.90566597878933">
        <ele>1579</ele>
        <time>2026-04-22T08:36:36Z</time>
      </trkpt>
      <trkpt lat="42.879289984703064" lon="0.905685005709529">
        <ele>1580</ele>
        <time>2026-04-22T08:36:40Z</time>
      </trkpt>
      <trkpt lat="42.879207003861666" lon="0.9057089779526">
        <ele>1582</ele>
        <time>2026-04-22T08:36:52Z</time>
      </trkpt>
      <trkpt lat="42.879171967506409" lon="0.905711995437741">
        <ele>1582</ele>
        <time>2026-04-22T08:36:56Z</time>
      </trkpt>
      <trkpt lat="42.878932999446988" lon="0.9058160148561">
        <ele>1585</ele>
        <time>2026-04-22T08:37:26Z</time>
      </trkpt>
      <trkpt lat="42.878840966150165" lon="0.905847027897835">
        <ele>1586</ele>
        <time>2026-04-22T08:37:38Z</time>
      </trkpt>
      <trkpt lat="42.878540977835655" lon="0.905877035111189">
        <ele>1588</ele>
        <time>2026-04-22T08:38:08Z</time>
      </trkpt>
      <trkpt lat="42.87850602529943" lon="0.905878040939569">
        <ele>1588</ele>
        <time>2026-04-22T08:38:12Z</time>
      </trkpt>
      <trkpt lat="42.878340985625982" lon="0.905890027061105">
        <ele>1591</ele>
        <time>2026-04-22T08:38:30Z</time>
      </trkpt>
      <trkpt lat="42.878305027261376" lon="0.905903019011021">
        <ele>1591</ele>
        <time>2026-04-22T08:38:34Z</time>
      </trkpt>
      <trkpt lat="42.878268985077739" lon="0.905893966555595">
        <ele>1591</ele>
        <time>2026-04-22T08:38:38Z</time>
      </trkpt>
      <trkpt lat="42.878006966784596" lon="0.90583898127079">
        <ele>1595</ele>
        <time>2026-04-22T08:39:08Z</time>
      </trkpt>
      <trkpt lat="42.877917028963566" lon="0.905807968229055">
        <ele>1596</ele>
        <time>2026-04-22T08:39:20Z</time>
      </trkpt>
      <trkpt lat="42.877821978181601" lon="0.905775027349591">
        <ele>1597</ele>
        <time>2026-04-22T08:39:32Z</time>
      </trkpt>
      <trkpt lat="42.877747965976596" lon="0.905742002651095">
        <ele>1598</ele>
        <time>2026-04-22T08:39:42Z</time>
      </trkpt>
      <trkpt lat="42.877705972641706" lon="0.90572901070118">
        <ele>1599</ele>
        <time>2026-04-22T08:39:48Z</time>
      </trkpt>
      <trkpt lat="42.87766900844872" lon="0.905713001266122">
        <ele>1599</ele>
        <time>2026-04-22T08:39:54Z</time>
      </trkpt>
      <trkpt lat="42.877461975440383" lon="0.905662961304188">
        <ele>1604</ele>
        <time>2026-04-22T08:40:24Z</time>
      </trkpt>
      <trkpt lat="42.877418976277113" lon="0.905654998496175">
        <ele>1605</ele>
        <time>2026-04-22T08:40:30Z</time>
      </trkpt>
      <trkpt lat="42.877375977113843" lon="0.905657010152936">
        <ele>1606</ele>
        <time>2026-04-22T08:40:36Z</time>
      </trkpt>
      <trkpt lat="42.877231976017356" lon="0.905765974894166">
        <ele>1609</ele>
        <time>2026-04-22T08:41:02Z</time>
      </trkpt>
      <trkpt lat="42.877216972410679" lon="0.905723981559277">
        <ele>1610</ele>
        <time>2026-04-22T08:44:50Z</time>
      </trkpt>
      <trkpt lat="42.877185037359595" lon="0.905706966295838">
        <ele>1609</ele>
        <time>2026-04-22T08:50:34Z</time>
      </trkpt>
      <trkpt lat="42.877147989347577" lon="0.905694980174303">
        <ele>1609</ele>
        <time>2026-04-22T08:50:48Z</time>
      </trkpt>
      <trkpt lat="42.877048999071121" lon="0.905618034303188">
        <ele>1609</ele>
        <time>2026-04-22T08:51:00Z</time>
      </trkpt>
      <trkpt lat="42.877001976594329" lon="0.905596995726228">
        <ele>1609</ele>
        <time>2026-04-22T08:51:06Z</time>
      </trkpt>
      <trkpt lat="42.876927964389324" lon="0.905533963814378">
        <ele>1611</ele>
        <time>2026-04-22T08:51:18Z</time>
      </trkpt>
      <trkpt lat="42.876891000196338" lon="0.905506974086165">
        <ele>1612</ele>
        <time>2026-04-22T08:51:24Z</time>
      </trkpt>
      <trkpt lat="42.876789998263121" lon="0.905411001294851">
        <ele>1615</ele>
        <time>2026-04-22T08:51:42Z</time>
      </trkpt>
      <trkpt lat="42.876754961907864" lon="0.905376970767975">
        <ele>1616</ele>
        <time>2026-04-22T08:51:48Z</time>
      </trkpt>
      <trkpt lat="42.876687990501523" lon="0.905331037938595">
        <ele>1618</ele>
        <time>2026-04-22T08:52:02Z</time>
      </trkpt>
      <trkpt lat="42.876580031588674" lon="0.905270017683506">
        <ele>1623</ele>
        <time>2026-04-22T08:52:22Z</time>
      </trkpt>
      <trkpt lat="42.876553041860461" lon="0.905231963843107">
        <ele>1623</ele>
        <time>2026-04-22T08:52:28Z</time>
      </trkpt>
      <trkpt lat="42.876452961936593" lon="0.90515099465847">
        <ele>1626</ele>
        <time>2026-04-22T08:52:46Z</time>
      </trkpt>
      <trkpt lat="42.876423038542271" lon="0.905115958303213">
        <ele>1627</ele>
        <time>2026-04-22T08:52:52Z</time>
      </trkpt>
      <trkpt lat="42.87629303522408" lon="0.904982015490532">
        <ele>1631</ele>
        <time>2026-04-22T08:53:18Z</time>
      </trkpt>
      <trkpt lat="42.876264033839107" lon="0.9049560315907">
        <ele>1633</ele>
        <time>2026-04-22T08:53:24Z</time>
      </trkpt>
      <trkpt lat="42.876239977777004" lon="0.904917977750301">
        <ele>1634</ele>
        <time>2026-04-22T08:53:30Z</time>
      </trkpt>
      <trkpt lat="42.876182980835438" lon="0.904847988858819">
        <ele>1636</ele>
        <time>2026-04-22T08:53:44Z</time>
      </trkpt>
      <trkpt lat="42.876156996935606" lon="0.904817981645465">
        <ele>1637</ele>
        <time>2026-04-22T08:53:50Z</time>
      </trkpt>
      <trkpt lat="42.876063035801053" lon="0.904669035226107">
        <ele>1641</ele>
        <time>2026-04-22T08:54:14Z</time>
      </trkpt>
      <trkpt lat="42.876039985567331" lon="0.904632993042469">
        <ele>1642</ele>
        <time>2026-04-22T08:54:20Z</time>
      </trkpt>
      <trkpt lat="42.87601500749588" lon="0.904595023021102">
        <ele>1643</ele>
        <time>2026-04-22T08:54:38Z</time>
      </trkpt>
      <trkpt lat="42.875959016382694" lon="0.904510030522943">
        <ele>1644</ele>
        <time>2026-04-22T08:54:50Z</time>
      </trkpt>
      <trkpt lat="42.875810991972685" lon="0.904200989753008">
        <ele>1650</ele>
        <time>2026-04-22T08:55:24Z</time>
      </trkpt>
      <trkpt lat="42.875759024173021" lon="0.904107028618455">
        <ele>1652</ele>
        <time>2026-04-22T08:55:36Z</time>
      </trkpt>
      <trkpt lat="42.875728011131287" lon="0.904083978384733">
        <ele>1653</ele>
        <time>2026-04-22T08:55:58Z</time>
      </trkpt>
      <trkpt lat="42.875705966725945" lon="0.904031004756689">
        <ele>1653</ele>
        <time>2026-04-22T08:56:04Z</time>
      </trkpt>
      <trkpt lat="42.875683000311255" lon="0.903993034735322">
        <ele>1654</ele>
        <time>2026-04-22T08:56:18Z</time>
      </trkpt>
      <trkpt lat="42.875657016411424" lon="0.903955986723304">
        <ele>1655</ele>
        <time>2026-04-22T08:57:32Z</time>
      </trkpt>
      <trkpt lat="42.875593984499574" lon="0.903867976740003">
        <ele>1656</ele>
        <time>2026-04-22T08:57:44Z</time>
      </trkpt>
      <trkpt lat="42.87556397728622" lon="0.903834030032158">
        <ele>1656</ele>
        <time>2026-04-22T08:57:50Z</time>
      </trkpt>
      <trkpt lat="42.875431962311268" lon="0.903634959831834">
        <ele>1661</ele>
        <time>2026-04-22T08:58:20Z</time>
      </trkpt>
      <trkpt lat="42.875372031703591" lon="0.903552984818816">
        <ele>1663</ele>
        <time>2026-04-22T08:58:34Z</time>
      </trkpt>
      <trkpt lat="42.875344036146998" lon="0.903506968170404">
        <ele>1665</ele>
        <time>2026-04-22T08:58:42Z</time>
      </trkpt>
      <trkpt lat="42.875315034762025" lon="0.903475033119321">
        <ele>1666</ele>
        <time>2026-04-22T08:58:50Z</time>
      </trkpt>
      <trkpt lat="42.875209003686905" lon="0.903317034244537">
        <ele>1669</ele>
        <time>2026-04-22T08:59:20Z</time>
      </trkpt>
      <trkpt lat="42.875186037272215" lon="0.903277974575758">
        <ele>1671</ele>
        <time>2026-04-22T08:59:28Z</time>
      </trkpt>
      <trkpt lat="42.875159969553351" lon="0.903240004554391">
        <ele>1672</ele>
        <time>2026-04-22T08:59:36Z</time>
      </trkpt>
      <trkpt lat="42.875135997310281" lon="0.903190970420837">
        <ele>1673</ele>
        <time>2026-04-22T08:59:44Z</time>
      </trkpt>
      <trkpt lat="42.875106995925307" lon="0.903162974864244">
        <ele>1674</ele>
        <time>2026-04-22T08:59:52Z</time>
      </trkpt>
      <trkpt lat="42.875086963176727" lon="0.903118969872594">
        <ele>1675</ele>
        <time>2026-04-22T09:00:00Z</time>
      </trkpt>
      <trkpt lat="42.875060979276896" lon="0.903085023164749">
        <ele>1675</ele>
        <time>2026-04-22T09:00:08Z</time>
      </trkpt>
      <trkpt lat="42.874950002878904" lon="0.902944039553404">
        <ele>1680</ele>
        <time>2026-04-22T09:00:42Z</time>
      </trkpt>
      <trkpt lat="42.874925024807453" lon="0.902913026511669">
        <ele>1681</ele>
        <time>2026-04-22T09:00:48Z</time>
      </trkpt>
      <trkpt lat="42.874899040907621" lon="0.902878995984793">
        <ele>1682</ele>
        <time>2026-04-22T09:00:54Z</time>
      </trkpt>
      <trkpt lat="42.8748569637537" lon="0.902791991829872">
        <ele>1684</ele>
        <time>2026-04-22T09:01:12Z</time>
      </trkpt>
      <trkpt lat="42.874831985682249" lon="0.902753015980124">
        <ele>1684</ele>
        <time>2026-04-22T09:01:20Z</time>
      </trkpt>
      <trkpt lat="42.874801978468895" lon="0.902719991281629">
        <ele>1686</ele>
        <time>2026-04-22T09:01:30Z</time>
      </trkpt>
      <trkpt lat="42.874773982912302" lon="0.9026800096035">
        <ele>1687</ele>
        <time>2026-04-22T09:01:38Z</time>
      </trkpt>
      <trkpt lat="42.87468203343451" lon="0.902578001841903">
        <ele>1691</ele>
        <time>2026-04-22T09:02:04Z</time>
      </trkpt>
      <trkpt lat="42.874652026221156" lon="0.902556041255593">
        <ele>1691</ele>
        <time>2026-04-22T09:02:14Z</time>
      </trkpt>
      <trkpt lat="42.874607015401125" lon="0.902466019615531">
        <ele>1694</ele>
        <time>2026-04-22T09:02:30Z</time>
      </trkpt>
      <trkpt lat="42.87457499653101" lon="0.902447998523712">
        <ele>1696</ele>
        <time>2026-04-22T09:02:38Z</time>
      </trkpt>
      <trkpt lat="42.874560998752713" lon="0.9024019818753">
        <ele>1696</ele>
        <time>2026-04-22T09:02:48Z</time>
      </trkpt>
      <trkpt lat="42.874544989317656" lon="0.902354959398508">
        <ele>1697</ele>
        <time>2026-04-22T09:02:56Z</time>
      </trkpt>
      <trkpt lat="42.874513976275921" lon="0.902254963293672">
        <ele>1700</ele>
        <time>2026-04-22T09:03:14Z</time>
      </trkpt>
      <trkpt lat="42.87451196461916" lon="0.902202995494008">
        <ele>1701</ele>
        <time>2026-04-22T09:03:22Z</time>
      </trkpt>
      <trkpt lat="42.87449000403285" lon="0.902157984673977">
        <ele>1702</ele>
        <time>2026-04-22T09:03:30Z</time>
      </trkpt>
      <trkpt lat="42.87446896545589" lon="0.90212102048099">
        <ele>1703</ele>
        <time>2026-04-22T09:03:40Z</time>
      </trkpt>
      <trkpt lat="42.874444993212819" lon="0.902076009660959">
        <ele>1705</ele>
        <time>2026-04-22T09:03:50Z</time>
      </trkpt>
      <trkpt lat="42.87442403845489" lon="0.902033010497689">
        <ele>1707</ele>
        <time>2026-04-22T09:04:00Z</time>
      </trkpt>
      <trkpt lat="42.874400988221169" lon="0.901996968314052">
        <ele>1708</ele>
        <time>2026-04-22T09:04:10Z</time>
      </trkpt>
      <trkpt lat="42.874348014593124" lon="0.901934020221233">
        <ele>1711</ele>
        <time>2026-04-22T09:04:42Z</time>
      </trkpt>
      <trkpt lat="42.874328987672925" lon="0.901894038543105">
        <ele>1713</ele>
        <time>2026-04-22T09:04:52Z</time>
      </trkpt>
      <trkpt lat="42.874303003773093" lon="0.901857996359468">
        <ele>1714</ele>
        <time>2026-04-22T09:05:04Z</time>
      </trkpt>
      <trkpt lat="42.8742750082165" lon="0.901822037994862">
        <ele>1716</ele>
        <time>2026-04-22T09:05:16Z</time>
      </trkpt>
      <trkpt lat="42.874248018488288" lon="0.901790019124746">
        <ele>1717</ele>
        <time>2026-04-22T09:05:26Z</time>
      </trkpt>
      <trkpt lat="42.874169982969761" lon="0.901699997484684">
        <ele>1722</ele>
        <time>2026-04-22T09:06:04Z</time>
      </trkpt>
      <trkpt lat="42.87414500489831" lon="0.901665966957808">
        <ele>1724</ele>
        <time>2026-04-22T09:06:16Z</time>
      </trkpt>
      <trkpt lat="42.874141987413168" lon="0.901613999158144">
        <ele>1725</ele>
        <time>2026-04-22T09:06:30Z</time>
      </trkpt>
      <trkpt lat="42.874119020998478" lon="0.901576029136777">
        <ele>1727</ele>
        <time>2026-04-22T09:06:40Z</time>
      </trkpt>
      <trkpt lat="42.874098988249898" lon="0.901534035801888">
        <ele>1729</ele>
        <time>2026-04-22T09:07:00Z</time>
      </trkpt>
      <trkpt lat="42.874096976593137" lon="0.901438985019922">
        <ele>1731</ele>
        <time>2026-04-22T09:07:32Z</time>
      </trkpt>
      <trkpt lat="42.874096976593137" lon="0.9013900347054">
        <ele>1731</ele>
        <time>2026-04-22T09:07:42Z</time>
      </trkpt>
      <trkpt lat="42.874087002128363" lon="0.901339994743466">
        <ele>1732</ele>
        <time>2026-04-22T09:08:32Z</time>
      </trkpt>
      <trkpt lat="42.874073004350066" lon="0.901234969496727">
        <ele>1733</ele>
        <time>2026-04-22T09:09:04Z</time>
      </trkpt>
      <trkpt lat="42.874050959944725" lon="0.901146959513426">
        <ele>1735</ele>
        <time>2026-04-22T09:09:24Z</time>
      </trkpt>
      <trkpt lat="42.874055989086628" lon="0.901098009198904">
        <ele>1736</ele>
        <time>2026-04-22T09:09:38Z</time>
      </trkpt>
      <trkpt lat="42.874053977429867" lon="0.901042018085718">
        <ele>1738</ele>
        <time>2026-04-22T09:09:50Z</time>
      </trkpt>
      <trkpt lat="42.874055989086628" lon="0.900991978123784">
        <ele>1739</ele>
        <time>2026-04-22T09:09:58Z</time>
      </trkpt>
      <trkpt lat="42.87403897382319" lon="0.900937998667359">
        <ele>1741</ele>
        <time>2026-04-22T09:10:08Z</time>
      </trkpt>
      <trkpt lat="42.874026987701654" lon="0.900893993675709">
        <ele>1742</ele>
        <time>2026-04-22T09:10:16Z</time>
      </trkpt>
      <trkpt lat="42.874015001580119" lon="0.900845965370536">
        <ele>1743</ele>
        <time>2026-04-22T09:10:32Z</time>
      </trkpt>
      <trkpt lat="42.873999997973442" lon="0.900800032541156">
        <ele>1743</ele>
        <time>2026-04-22T09:10:44Z</time>
      </trkpt>
      <trkpt lat="42.873968984931707" lon="0.900838002562523">
        <ele>1745</ele>
        <time>2026-04-22T09:11:00Z</time>
      </trkpt>
      <trkpt lat="42.873949036002159" lon="0.900942021980882">
        <ele>1746</ele>
        <time>2026-04-22T09:11:14Z</time>
      </trkpt>
      <trkpt lat="42.873921040445566" lon="0.901051992550492">
        <ele>1748</ele>
        <time>2026-04-22T09:11:26Z</time>
      </trkpt>
      <trkpt lat="42.873913999646902" lon="0.901104966178536">
        <ele>1748</ele>
        <time>2026-04-22T09:11:32Z</time>
      </trkpt>
      <trkpt lat="42.873880974948406" lon="0.901198005303741">
        <ele>1749</ele>
        <time>2026-04-22T09:11:48Z</time>
      </trkpt>
      <trkpt lat="42.873852979391813" lon="0.90130596421659">
        <ele>1750</ele>
        <time>2026-04-22T09:12:04Z</time>
      </trkpt>
      <trkpt lat="42.873815009370446" lon="0.901404032483697">
        <ele>1751</ele>
        <time>2026-04-22T09:12:18Z</time>
      </trkpt>
      <trkpt lat="42.873809980228543" lon="0.901457006111741">
        <ele>1752</ele>
        <time>2026-04-22T09:12:24Z</time>
      </trkpt>
      <trkpt lat="42.873791959136724" lon="0.901507968083024">
        <ele>1752</ele>
        <time>2026-04-22T09:12:30Z</time>
      </trkpt>
      <trkpt lat="42.873745020478964" lon="0.90158399194479">
        <ele>1753</ele>
        <time>2026-04-22T09:12:42Z</time>
      </trkpt>
      <trkpt lat="42.873710989952087" lon="0.901581980288029">
        <ele>1755</ele>
        <time>2026-04-22T09:13:06Z</time>
      </trkpt>
      <trkpt lat="42.873706966638565" lon="0.901533029973507">
        <ele>1755</ele>
        <time>2026-04-22T09:13:12Z</time>
      </trkpt>
      <trkpt lat="42.873702021315694" lon="0.901467986404896">
        <ele>1757</ele>
        <time>2026-04-22T09:13:20Z</time>
      </trkpt>
      <trkpt lat="42.873701015487313" lon="0.901414006948471">
        <ele>1757</ele>
        <time>2026-04-22T09:13:26Z</time>
      </trkpt>
      <trkpt lat="42.873693974688649" lon="0.901362039148808">
        <ele>1758</ele>
        <time>2026-04-22T09:13:32Z</time>
      </trkpt>
      <trkpt lat="42.873676037415862" lon="0.90126103721559">
        <ele>1760</ele>
        <time>2026-04-22T09:13:46Z</time>
      </trkpt>
      <trkpt lat="42.873625997453928" lon="0.901119969785213">
        <ele>1765</ele>
        <time>2026-04-22T09:14:18Z</time>
      </trkpt>
      <trkpt lat="42.873610993847251" lon="0.901072025299072">
        <ele>1766</ele>
        <time>2026-04-22T09:14:32Z</time>
      </trkpt>
      <trkpt lat="42.873585009947419" lon="0.901040006428957">
        <ele>1768</ele>
        <time>2026-04-22T09:14:42Z</time>
      </trkpt>
      <trkpt lat="42.873572017997503" lon="0.900997007265687">
        <ele>1768</ele>
        <time>2026-04-22T09:14:50Z</time>
      </trkpt>
      <trkpt lat="42.873547961935401" lon="0.900848982855678">
        <ele>1772</ele>
        <time>2026-04-22T09:15:10Z</time>
      </trkpt>
      <trkpt lat="42.873532958328724" lon="0.900801038369536">
        <ele>1774</ele>
        <time>2026-04-22T09:15:20Z</time>
      </trkpt>
      <trkpt lat="42.873518960550427" lon="0.900744963437319">
        <ele>1776</ele>
        <time>2026-04-22T09:15:28Z</time>
      </trkpt>
      <trkpt lat="42.873518960550427" lon="0.900635998696089">
        <ele>1778</ele>
        <time>2026-04-22T09:15:40Z</time>
      </trkpt>
      <trkpt lat="42.873506974428892" lon="0.900580007582903">
        <ele>1778</ele>
        <time>2026-04-22T09:15:46Z</time>
      </trkpt>
      <trkpt lat="42.873483002185822" lon="0.900460984557867">
        <ele>1780</ele>
        <time>2026-04-22T09:15:58Z</time>
      </trkpt>
      <trkpt lat="42.873469004407525" lon="0.900405999273062">
        <ele>1781</ele>
        <time>2026-04-22T09:16:04Z</time>
      </trkpt>
      <trkpt lat="42.873408989980817" lon="0.900240959599614">
        <ele>1783</ele>
        <time>2026-04-22T09:16:20Z</time>
      </trkpt>
      <trkpt lat="42.873348975554109" lon="0.900045996531844">
        <ele>1787</ele>
        <time>2026-04-22T09:16:42Z</time>
      </trkpt>
      <trkpt lat="42.873309999704361" lon="0.899959998205304">
        <ele>1790</ele>
        <time>2026-04-22T09:16:54Z</time>
      </trkpt>
      <trkpt lat="42.873293990269303" lon="0.899914987385273">
        <ele>1790</ele>
        <time>2026-04-22T09:17:00Z</time>
      </trkpt>
      <trkpt lat="42.873234981670976" lon="0.899782972410321">
        <ele>1795</ele>
        <time>2026-04-22T09:17:18Z</time>
      </trkpt>
      <trkpt lat="42.873212015256286" lon="0.899736033752561">
        <ele>1796</ele>
        <time>2026-04-22T09:17:26Z</time>
      </trkpt>
      <trkpt lat="42.873188965022564" lon="0.899689011275768">
        <ele>1797</ele>
        <time>2026-04-22T09:17:34Z</time>
      </trkpt>
      <trkpt lat="42.873155018314719" lon="0.899665961042047">
        <ele>1798</ele>
        <time>2026-04-22T09:17:42Z</time>
      </trkpt>
      <trkpt lat="42.873128028586507" lon="0.899636037647724">
        <ele>1800</ele>
        <time>2026-04-22T09:17:50Z</time>
      </trkpt>
      <trkpt lat="42.873055022209883" lon="0.899521037936211">
        <ele>1805</ele>
        <time>2026-04-22T09:18:20Z</time>
      </trkpt>
      <trkpt lat="42.873012023046613" lon="0.89943403378129">
        <ele>1808</ele>
        <time>2026-04-22T09:18:38Z</time>
      </trkpt>
      <trkpt lat="42.873000036925077" lon="0.899390028789639">
        <ele>1810</ele>
        <time>2026-04-22T09:18:48Z</time>
      </trkpt>
      <trkpt lat="42.872981010004878" lon="0.89934803545475">
        <ele>1811</ele>
        <time>2026-04-22T09:18:58Z</time>
      </trkpt>
      <trkpt lat="42.872949996963143" lon="0.899310987442732">
        <ele>1814</ele>
        <time>2026-04-22T09:19:08Z</time>
      </trkpt>
      <trkpt lat="42.872914960607886" lon="0.899291038513184">
        <ele>1816</ele>
        <time>2026-04-22T09:19:22Z</time>
      </trkpt>
      <trkpt lat="42.872886965051293" lon="0.899254996329546">
        <ele>1818</ele>
        <time>2026-04-22T09:19:32Z</time>
      </trkpt>
      <trkpt lat="42.872852012515068" lon="0.899162041023374">
        <ele>1821</ele>
        <time>2026-04-22T09:19:50Z</time>
      </trkpt>
      <trkpt lat="42.872830973938107" lon="0.899115018546581">
        <ele>1823</ele>
        <time>2026-04-22T09:19:58Z</time>
      </trkpt>
      <trkpt lat="42.872803984209895" lon="0.899071013554931">
        <ele>1824</ele>
        <time>2026-04-22T09:20:08Z</time>
      </trkpt>
      <trkpt lat="42.872778000310063" lon="0.899024996906519">
        <ele>1826</ele>
        <time>2026-04-22T09:20:18Z</time>
      </trkpt>
      <trkpt lat="42.872751010581851" lon="0.898997001349926">
        <ele>1827</ele>
        <time>2026-04-22T09:20:26Z</time>
      </trkpt>
      <trkpt lat="42.872716980054975" lon="0.899013010784984">
        <ele>1829</ele>
        <time>2026-04-22T09:20:36Z</time>
      </trkpt>
      <trkpt lat="42.87268596701324" lon="0.898989038541913">
        <ele>1831</ele>
        <time>2026-04-22T09:21:04Z</time>
      </trkpt>
      <trkpt lat="42.872687978670001" lon="0.898937992751598">
        <ele>1831</ele>
        <time>2026-04-22T09:21:26Z</time>
      </trkpt>
      <trkpt lat="42.872681021690369" lon="0.898880995810032">
        <ele>1832</ele>
        <time>2026-04-22T09:21:32Z</time>
      </trkpt>
      <trkpt lat="42.872660988941789" lon="0.898775970563293">
        <ele>1834</ele>
        <time>2026-04-22T09:21:48Z</time>
      </trkpt>
      <trkpt lat="42.872617989778519" lon="0.898750992491841">
        <ele>1836</ele>
        <time>2026-04-22T09:26:32Z</time>
      </trkpt>
      <trkpt lat="42.872656965628266" lon="0.898690978065133">
        <ele>1836</ele>
        <time>2026-04-22T09:26:34Z</time>
      </trkpt>
      <trkpt lat="42.872645985335112" lon="0.898634986951947">
        <ele>1837</ele>
        <time>2026-04-22T09:26:40Z</time>
      </trkpt>
      <trkpt lat="42.872617989778519" lon="0.898527028039098">
        <ele>1837</ele>
        <time>2026-04-22T09:26:50Z</time>
      </trkpt>
      <trkpt lat="42.872511958703399" lon="0.898316977545619">
        <ele>1842</ele>
        <time>2026-04-22T09:27:24Z</time>
      </trkpt>
      <trkpt lat="42.872485974803567" lon="0.898268027231097">
        <ele>1843</ele>
        <time>2026-04-22T09:27:32Z</time>
      </trkpt>
      <trkpt lat="42.872466025874019" lon="0.898224022239447">
        <ele>1843</ele>
        <time>2026-04-22T09:27:38Z</time>
      </trkpt>
      <trkpt lat="42.872451022267342" lon="0.898173982277513">
        <ele>1845</ele>
        <time>2026-04-22T09:27:48Z</time>
      </trkpt>
      <trkpt lat="42.872433001175523" lon="0.898126037791371">
        <ele>1846</ele>
        <time>2026-04-22T09:27:56Z</time>
      </trkpt>
      <trkpt lat="42.872407017275691" lon="0.898091001436114">
        <ele>1847</ele>
        <time>2026-04-22T09:28:02Z</time>
      </trkpt>
      <trkpt lat="42.872374998405576" lon="0.898070968687534">
        <ele>1849</ele>
        <time>2026-04-22T09:28:10Z</time>
      </trkpt>
      <trkpt lat="42.872353959828615" lon="0.897970972582698">
        <ele>1850</ele>
        <time>2026-04-22T09:28:24Z</time>
      </trkpt>
      <trkpt lat="42.872311966493726" lon="0.897795958444476">
        <ele>1852</ele>
        <time>2026-04-22T09:28:42Z</time>
      </trkpt>
      <trkpt lat="42.872289000079036" lon="0.897684982046485">
        <ele>1854</ele>
        <time>2026-04-22T09:28:54Z</time>
      </trkpt>
      <trkpt lat="42.872267039492726" lon="0.897633014246821">
        <ele>1855</ele>
        <time>2026-04-22T09:29:00Z</time>
      </trkpt>
      <trkpt lat="42.872253963723779" lon="0.897579034790397">
        <ele>1856</ele>
        <time>2026-04-22T09:29:06Z</time>
      </trkpt>
      <trkpt lat="42.872261004522443" lon="0.897527989000082">
        <ele>1856</ele>
        <time>2026-04-22T09:29:12Z</time>
      </trkpt>
      <trkpt lat="42.872230997309089" lon="0.897346017882228">
        <ele>1857</ele>
        <time>2026-04-22T09:29:30Z</time>
      </trkpt>
      <trkpt lat="42.872216999530792" lon="0.897234035655856">
        <ele>1858</ele>
        <time>2026-04-22T09:29:42Z</time>
      </trkpt>
      <trkpt lat="42.872214987874031" lon="0.897182989865541">
        <ele>1858</ele>
        <time>2026-04-22T09:29:48Z</time>
      </trkpt>
      <trkpt lat="42.872203001752496" lon="0.897139990702271">
        <ele>1859</ele>
        <time>2026-04-22T09:29:56Z</time>
      </trkpt>
      <trkpt lat="42.872195038944483" lon="0.897092968225479">
        <ele>1860</ele>
        <time>2026-04-22T09:31:14Z</time>
      </trkpt>
      <trkpt lat="42.87217098288238" lon="0.896987020969391">
        <ele>1861</ele>
        <time>2026-04-22T09:31:28Z</time>
      </trkpt>
      <trkpt lat="42.872162014245987" lon="0.896935975179076">
        <ele>1862</ele>
        <time>2026-04-22T09:31:34Z</time>
      </trkpt>
      <trkpt lat="42.872143993154168" lon="0.896885013207793">
        <ele>1863</ele>
        <time>2026-04-22T09:31:42Z</time>
      </trkpt>
      <trkpt lat="42.872115997597575" lon="0.896783005446196">
        <ele>1864</ele>
        <time>2026-04-22T09:31:58Z</time>
      </trkpt>
      <trkpt lat="42.872108034789562" lon="0.896737994626164">
        <ele>1866</ele>
        <time>2026-04-22T09:32:06Z</time>
      </trkpt>
      <trkpt lat="42.872109040617943" lon="0.896680997684598">
        <ele>1867</ele>
        <time>2026-04-22T09:32:14Z</time>
      </trkpt>
      <trkpt lat="42.872095964848995" lon="0.896628024056554">
        <ele>1869</ele>
        <time>2026-04-22T09:32:24Z</time>
      </trkpt>
      <trkpt lat="42.872076015919447" lon="0.896531967446208">
        <ele>1871</ele>
        <time>2026-04-22T09:32:44Z</time>
      </trkpt>
      <trkpt lat="42.872074004262686" lon="0.896482011303306">
        <ele>1873</ele>
        <time>2026-04-22T09:32:54Z</time>
      </trkpt>
      <trkpt lat="42.872051959857345" lon="0.896337004378438">
        <ele>1876</ele>
        <time>2026-04-22T09:33:24Z</time>
      </trkpt>
      <trkpt lat="42.8720180131495" lon="0.896198032423854">
        <ele>1881</ele>
        <time>2026-04-22T09:33:58Z</time>
      </trkpt>
      <trkpt lat="42.872005021199584" lon="0.896155033260584">
        <ele>1882</ele>
        <time>2026-04-22T09:34:10Z</time>
      </trkpt>
      <trkpt lat="42.871982976794243" lon="0.896012037992477">
        <ele>1887</ele>
        <time>2026-04-22T09:34:42Z</time>
      </trkpt>
      <trkpt lat="42.871971996501088" lon="0.895966021344066">
        <ele>1889</ele>
        <time>2026-04-22T09:34:54Z</time>
      </trkpt>
      <trkpt lat="42.871961016207933" lon="0.895918998867273">
        <ele>1891</ele>
        <time>2026-04-22T09:35:04Z</time>
      </trkpt>
      <trkpt lat="42.871949030086398" lon="0.895873988047242">
        <ele>1892</ele>
        <time>2026-04-22T09:35:16Z</time>
      </trkpt>
      <trkpt lat="42.871922040358186" lon="0.895778015255928">
        <ele>1895</ele>
        <time>2026-04-22T09:35:46Z</time>
      </trkpt>
      <trkpt lat="42.871885998174548" lon="0.89563200250268">
        <ele>1901</ele>
        <time>2026-04-22T09:36:26Z</time>
      </trkpt>
      <trkpt lat="42.871876023709774" lon="0.895584980025887">
        <ele>1901</ele>
        <time>2026-04-22T09:36:38Z</time>
      </trkpt>
      <trkpt lat="42.871867977082729" lon="0.895538041368127">
        <ele>1903</ele>
        <time>2026-04-22T09:36:48Z</time>
      </trkpt>
      <trkpt lat="42.871860014274716" lon="0.89548397809267">
        <ele>1904</ele>
        <time>2026-04-22T09:36:58Z</time>
      </trkpt>
      <trkpt lat="42.871824977919459" lon="0.895392028614879">
        <ele>1907</ele>
        <time>2026-04-22T09:37:18Z</time>
      </trkpt>
      <trkpt lat="42.871796982362866" lon="0.895355986431241">
        <ele>1910</ele>
        <time>2026-04-22T09:37:28Z</time>
      </trkpt>
      <trkpt lat="42.871767980977893" lon="0.895320028066635">
        <ele>1912</ele>
        <time>2026-04-22T09:37:38Z</time>
      </trkpt>
      <trkpt lat="42.871734034270048" lon="0.895293960347772">
        <ele>1913</ele>
        <time>2026-04-22T09:38:28Z</time>
      </trkpt>
      <trkpt lat="42.871693968772888" lon="0.895287003368139">
        <ele>1915</ele>
        <time>2026-04-22T09:38:36Z</time>
      </trkpt>
      <trkpt lat="42.871666979044676" lon="0.895250961184502">
        <ele>1917</ele>
        <time>2026-04-22T09:38:48Z</time>
      </trkpt>
      <trkpt lat="42.871655998751521" lon="0.895206034183502">
        <ele>1918</ele>
        <time>2026-04-22T09:38:56Z</time>
      </trkpt>
      <trkpt lat="42.871654992923141" lon="0.895151970908046">
        <ele>1920</ele>
        <time>2026-04-22T09:39:04Z</time>
      </trkpt>
      <trkpt lat="42.871636971831322" lon="0.895110983401537">
        <ele>1922</ele>
        <time>2026-04-22T09:39:12Z</time>
      </trkpt>
      <trkpt lat="42.871629009023309" lon="0.895065972581506">
        <ele>1923</ele>
        <time>2026-04-22T09:39:20Z</time>
      </trkpt>
      <trkpt lat="42.871616017073393" lon="0.895016016438603">
        <ele>1926</ele>
        <time>2026-04-22T09:39:32Z</time>
      </trkpt>
      <trkpt lat="42.871600007638335" lon="0.894868997856975">
        <ele>1929</ele>
        <time>2026-04-22T09:40:02Z</time>
      </trkpt>
      <trkpt lat="42.871591039001942" lon="0.894819041714072">
        <ele>1932</ele>
        <time>2026-04-22T09:40:12Z</time>
      </trkpt>
      <trkpt lat="42.871574023738503" lon="0.894775958731771">
        <ele>1933</ele>
        <time>2026-04-22T09:40:28Z</time>
      </trkpt>
      <trkpt lat="42.871562037616968" lon="0.894724996760488">
        <ele>1937</ele>
        <time>2026-04-22T09:40:42Z</time>
      </trkpt>
      <trkpt lat="42.871571006253362" lon="0.894674034789205">
        <ele>1938</ele>
        <time>2026-04-22T09:40:52Z</time>
      </trkpt>
      <trkpt lat="42.871566982939839" lon="0.894627012312412">
        <ele>1940</ele>
        <time>2026-04-22T09:41:04Z</time>
      </trkpt>
      <trkpt lat="42.871552985161543" lon="0.894586024805903">
        <ele>1941</ele>
        <time>2026-04-22T09:41:20Z</time>
      </trkpt>
      <trkpt lat="42.871557008475065" lon="0.894537996500731">
        <ele>1945</ele>
        <time>2026-04-22T09:41:38Z</time>
      </trkpt>
      <trkpt lat="42.871564971283078" lon="0.894440012052655">
        <ele>1948</ele>
        <time>2026-04-22T09:41:58Z</time>
      </trkpt>
      <trkpt lat="42.871556002646685" lon="0.894393995404243">
        <ele>1949</ele>
        <time>2026-04-22T09:42:12Z</time>
      </trkpt>
      <trkpt lat="42.871543010696769" lon="0.894344039261341">
        <ele>1949</ele>
        <time>2026-04-22T09:42:22Z</time>
      </trkpt>
      <trkpt lat="42.871506968513131" lon="0.894306991249323">
        <ele>1950</ele>
        <time>2026-04-22T09:50:57Z</time>
      </trkpt>
      <trkpt lat="42.871477967128158" lon="0.894276984035969">
        <ele>1949</ele>
        <time>2026-04-22T09:51:01Z</time>
      </trkpt>
      <trkpt lat="42.871461035683751" lon="0.894233984872699">
        <ele>1949</ele>
        <time>2026-04-22T09:51:05Z</time>
      </trkpt>
      <trkpt lat="42.871417030692101" lon="0.894131977111101">
        <ele>1948</ele>
        <time>2026-04-22T09:51:13Z</time>
      </trkpt>
      <trkpt lat="42.871362967416644" lon="0.894058970734477">
        <ele>1948</ele>
        <time>2026-04-22T09:51:21Z</time>
      </trkpt>
      <trkpt lat="42.871342012658715" lon="0.894004991278052">
        <ele>1947</ele>
        <time>2026-04-22T09:51:25Z</time>
      </trkpt>
      <trkpt lat="42.871310999616981" lon="0.893960986286402">
        <ele>1946</ele>
        <time>2026-04-22T09:51:29Z</time>
      </trkpt>
      <trkpt lat="42.871215026825666" lon="0.893837017938495">
        <ele>1946</ele>
        <time>2026-04-22T09:51:41Z</time>
      </trkpt>
      <trkpt lat="42.871183007955551" lon="0.893799969926476">
        <ele>1946</ele>
        <time>2026-04-22T09:51:45Z</time>
      </trkpt>
      <trkpt lat="42.871147971600294" lon="0.893792007118464">
        <ele>1947</ele>
        <time>2026-04-22T09:51:49Z</time>
      </trkpt>
      <trkpt lat="42.871102960780263" lon="0.893772980198264">
        <ele>1947</ele>
        <time>2026-04-22T09:51:55Z</time>
      </trkpt>
      <trkpt lat="42.871075971052051" lon="0.89374297298491">
        <ele>1948</ele>
        <time>2026-04-22T09:51:59Z</time>
      </trkpt>
      <trkpt lat="42.870993996039033" lon="0.893665021285415">
        <ele>1949</ele>
        <time>2026-04-22T09:52:11Z</time>
      </trkpt>
      <trkpt lat="42.870960971340537" lon="0.893641971051693">
        <ele>1950</ele>
        <time>2026-04-22T09:52:16Z</time>
      </trkpt>
      <trkpt lat="42.870874973013997" lon="0.893510961905122">
        <ele>1951</ele>
        <time>2026-04-22T09:52:35Z</time>
      </trkpt>
      <trkpt lat="42.870843959972262" lon="0.893481038510799">
        <ele>1952</ele>
        <time>2026-04-22T09:52:41Z</time>
      </trkpt>
      <trkpt lat="42.870808001607656" lon="0.893453964963555">
        <ele>1953</ele>
        <time>2026-04-22T09:52:47Z</time>
      </trkpt>
      <trkpt lat="42.870776988565922" lon="0.893422029912472">
        <ele>1954</ele>
        <time>2026-04-22T09:52:53Z</time>
      </trkpt>
      <trkpt lat="42.870752010494471" lon="0.893387999385595">
        <ele>1954</ele>
        <time>2026-04-22T09:52:59Z</time>
      </trkpt>
      <trkpt lat="42.870712028816342" lon="0.893390011042356">
        <ele>1956</ele>
        <time>2026-04-22T09:53:10Z</time>
      </trkpt>
      <trkpt lat="42.870685961097479" lon="0.893340976908803">
        <ele>1958</ele>
        <time>2026-04-22T09:53:17Z</time>
      </trkpt>
      <trkpt lat="42.87066500633955" lon="0.893297977745533">
        <ele>1959</ele>
        <time>2026-04-22T09:53:23Z</time>
      </trkpt>
      <trkpt lat="42.87064497359097" lon="0.893249027431011">
        <ele>1959</ele>
        <time>2026-04-22T09:53:29Z</time>
      </trkpt>
      <trkpt lat="42.870624018833041" lon="0.893206028267741">
        <ele>1959</ele>
        <time>2026-04-22T09:53:35Z</time>
      </trkpt>
      <trkpt lat="42.870614966377616" lon="0.893160011619329">
        <ele>1958</ele>
        <time>2026-04-22T09:53:39Z</time>
      </trkpt>
      <trkpt lat="42.870599962770939" lon="0.89311801828444">
        <ele>1958</ele>
        <time>2026-04-22T09:53:43Z</time>
      </trkpt>
      <trkpt lat="42.870460990816355" lon="0.892952978610992">
        <ele>1956</ele>
        <time>2026-04-22T09:54:03Z</time>
      </trkpt>
      <trkpt lat="42.870435006916523" lon="0.892897993326187">
        <ele>1955</ele>
        <time>2026-04-22T09:54:09Z</time>
      </trkpt>
      <trkpt lat="42.870393013581634" lon="0.892832027748227">
        <ele>1953</ele>
        <time>2026-04-22T09:54:17Z</time>
      </trkpt>
      <trkpt lat="42.870359988883138" lon="0.892808977514505">
        <ele>1952</ele>
        <time>2026-04-22T09:54:21Z</time>
      </trkpt>
      <trkpt lat="42.870307015255094" lon="0.892718033865094">
        <ele>1951</ele>
        <time>2026-04-22T09:54:29Z</time>
      </trkpt>
      <trkpt lat="42.870284970849752" lon="0.892670005559921">
        <ele>1950</ele>
        <time>2026-04-22T09:54:33Z</time>
      </trkpt>
      <trkpt lat="42.870258986949921" lon="0.89262499473989">
        <ele>1950</ele>
        <time>2026-04-22T09:54:37Z</time>
      </trkpt>
      <trkpt lat="42.870197966694832" lon="0.892493985593319">
        <ele>1950</ele>
        <time>2026-04-22T09:54:49Z</time>
      </trkpt>
      <trkpt lat="42.870177011936903" lon="0.892442017793655">
        <ele>1950</ele>
        <time>2026-04-22T09:54:53Z</time>
      </trkpt>
      <trkpt lat="42.870150022208691" lon="0.892391977831721">
        <ele>1951</ele>
        <time>2026-04-22T09:54:57Z</time>
      </trkpt>
      <trkpt lat="42.870120014995337" lon="0.892269015312195">
        <ele>1951</ele>
        <time>2026-04-22T09:55:05Z</time>
      </trkpt>
      <trkpt lat="42.870094031095505" lon="0.892206989228725">
        <ele>1951</ele>
        <time>2026-04-22T09:55:09Z</time>
      </trkpt>
      <trkpt lat="42.87008598446846" lon="0.892156027257442">
        <ele>1951</ele>
        <time>2026-04-22T09:55:13Z</time>
      </trkpt>
      <trkpt lat="42.870067041367292" lon="0.89210900478065">
        <ele>1951</ele>
        <time>2026-04-22T09:55:17Z</time>
      </trkpt>
      <trkpt lat="42.870032005012035" lon="0.892062988132238">
        <ele>1949</ele>
        <time>2026-04-22T09:55:21Z</time>
      </trkpt>
      <trkpt lat="42.869963021948934" lon="0.891966009512544">
        <ele>1948</ele>
        <time>2026-04-22T09:55:29Z</time>
      </trkpt>
      <trkpt lat="42.869933014735579" lon="0.891920998692513">
        <ele>1948</ele>
        <time>2026-04-22T09:55:33Z</time>
      </trkpt>
      <trkpt lat="42.869886998087168" lon="0.891905995085835">
        <ele>1948</ele>
        <time>2026-04-22T09:55:37Z</time>
      </trkpt>
      <trkpt lat="42.869809968397021" lon="0.891823014244437">
        <ele>1946</ele>
        <time>2026-04-22T09:55:45Z</time>
      </trkpt>
      <trkpt lat="42.86969798617065" lon="0.891707008704543">
        <ele>1946</ele>
        <time>2026-04-22T09:55:57Z</time>
      </trkpt>
      <trkpt lat="42.869664039462805" lon="0.891667027026415">
        <ele>1947</ele>
        <time>2026-04-22T09:56:01Z</time>
      </trkpt>
      <trkpt lat="42.869641995057464" lon="0.89161204174161">
        <ele>1947</ele>
        <time>2026-04-22T09:56:05Z</time>
      </trkpt>
      <trkpt lat="42.869617016986012" lon="0.891559990122914">
        <ele>1946</ele>
        <time>2026-04-22T09:56:09Z</time>
      </trkpt>
      <trkpt lat="42.869553985074162" lon="0.891480026766658">
        <ele>1946</ele>
        <time>2026-04-22T09:56:17Z</time>
      </trkpt>
      <trkpt lat="42.869481984525919" lon="0.891382964327931">
        <ele>1945</ele>
        <time>2026-04-22T09:56:25Z</time>
      </trkpt>
      <trkpt lat="42.869443008676171" lon="0.891350023448467">
        <ele>1945</ele>
        <time>2026-04-22T09:56:29Z</time>
      </trkpt>
      <trkpt lat="42.869315017014742" lon="0.891211973503232">
        <ele>1947</ele>
        <time>2026-04-22T09:56:45Z</time>
      </trkpt>
      <trkpt lat="42.869282998144627" lon="0.891189007088542">
        <ele>1948</ele>
        <time>2026-04-22T09:56:49Z</time>
      </trkpt>
      <trkpt lat="42.869012011215091" lon="0.890902010723948">
        <ele>1950</ele>
        <time>2026-04-22T09:57:21Z</time>
      </trkpt>
      <trkpt lat="42.868983009830117" lon="0.890852976590395">
        <ele>1951</ele>
        <time>2026-04-22T09:57:27Z</time>
      </trkpt>
      <trkpt lat="42.868964988738298" lon="0.890760021284223">
        <ele>1951</ele>
        <time>2026-04-22T09:57:35Z</time>
      </trkpt>
      <trkpt lat="42.868959037587047" lon="0.8906489610672">
        <ele>1952</ele>
        <time>2026-04-22T09:57:45Z</time>
      </trkpt>
      <trkpt lat="42.868954008445144" lon="0.890587018802762">
        <ele>1953</ele>
        <time>2026-04-22T09:57:51Z</time>
      </trkpt>
      <trkpt lat="42.86890204064548" lon="0.890480987727642">
        <ele>1954</ele>
        <time>2026-04-22T09:58:03Z</time>
      </trkpt>
      <trkpt lat="42.868886031210423" lon="0.89043396525085">
        <ele>1954</ele>
        <time>2026-04-22T09:58:09Z</time>
      </trkpt>
      <trkpt lat="42.868863986805081" lon="0.890383003279567">
        <ele>1955</ele>
        <time>2026-04-22T09:58:15Z</time>
      </trkpt>
      <trkpt lat="42.868815958499908" lon="0.89021997526288">
        <ele>1958</ele>
        <time>2026-04-22T09:58:33Z</time>
      </trkpt>
      <trkpt lat="42.86879600957036" lon="0.890127019956708">
        <ele>1960</ele>
        <time>2026-04-22T09:58:45Z</time>
      </trkpt>
      <trkpt lat="42.868783017620444" lon="0.890074968338013">
        <ele>1960</ele>
        <time>2026-04-22T09:58:51Z</time>
      </trkpt>
      <trkpt lat="42.86866701208055" lon="0.88987497612834">
        <ele>1963</ele>
        <time>2026-04-22T09:59:17Z</time>
      </trkpt>
      <trkpt lat="42.868620995432138" lon="0.889783026650548">
        <ele>1965</ele>
        <time>2026-04-22T09:59:29Z</time>
      </trkpt>
      <trkpt lat="42.868588976562023" lon="0.889743966981769">
        <ele>1966</ele>
        <time>2026-04-22T09:59:35Z</time>
      </trkpt>
      <trkpt lat="42.868478000164032" lon="0.889598038047552">
        <ele>1970</ele>
        <time>2026-04-22T09:59:59Z</time>
      </trkpt>
      <trkpt lat="42.868470959365368" lon="0.889541963115335">
        <ele>1971</ele>
        <time>2026-04-22T10:00:07Z</time>
      </trkpt>
      <trkpt lat="42.868469031527638" lon="0.889448001980782">
        <ele>1973</ele>
        <time>2026-04-22T10:00:21Z</time>
      </trkpt>
      <trkpt lat="42.868468025699258" lon="0.88940198533237">
        <ele>1975</ele>
        <time>2026-04-22T10:00:27Z</time>
      </trkpt>
      <trkpt lat="42.868460984900594" lon="0.889288997277617">
        <ele>1978</ele>
        <time>2026-04-22T10:00:43Z</time>
      </trkpt>
      <trkpt lat="42.868459979072213" lon="0.889241974800825">
        <ele>1979</ele>
        <time>2026-04-22T10:00:49Z</time>
      </trkpt>
      <trkpt lat="42.868455033749342" lon="0.889181038364768">
        <ele>1981</ele>
        <time>2026-04-22T10:00:57Z</time>
      </trkpt>
      <trkpt lat="42.868444975465536" lon="0.889136027544737">
        <ele>1981</ele>
        <time>2026-04-22T10:01:03Z</time>
      </trkpt>
      <trkpt lat="42.868432989344001" lon="0.889092022553086">
        <ele>1984</ele>
        <time>2026-04-22T10:01:09Z</time>
      </trkpt>
      <trkpt lat="42.868417985737324" lon="0.889037037268281">
        <ele>1985</ele>
        <time>2026-04-22T10:01:17Z</time>
      </trkpt>
      <trkpt lat="42.868401976302266" lon="0.888983979821205">
        <ele>1986</ele>
        <time>2026-04-22T10:01:25Z</time>
      </trkpt>
      <trkpt lat="42.868378004059196" lon="0.888934023678303">
        <ele>1987</ele>
        <time>2026-04-22T10:01:33Z</time>
      </trkpt>
      <trkpt lat="42.868380015715957" lon="0.888881972059608">
        <ele>1989</ele>
        <time>2026-04-22T10:01:39Z</time>
      </trkpt>
      <trkpt lat="42.868373980745673" lon="0.888836039230227">
        <ele>1990</ele>
        <time>2026-04-22T10:01:45Z</time>
      </trkpt>
      <trkpt lat="42.868361994624138" lon="0.88878097012639">
        <ele>1991</ele>
        <time>2026-04-22T10:01:53Z</time>
      </trkpt>
      <trkpt lat="42.868347996845841" lon="0.88873403146863">
        <ele>1992</ele>
        <time>2026-04-22T10:01:59Z</time>
      </trkpt>
      <trkpt lat="42.868286976590753" lon="0.888665970414877">
        <ele>1995</ele>
        <time>2026-04-22T10:02:13Z</time>
      </trkpt>
      <trkpt lat="42.868266021832824" lon="0.888620959594846">
        <ele>1996</ele>
        <time>2026-04-22T10:02:23Z</time>
      </trkpt>
      <trkpt lat="42.868268033489585" lon="0.888571003451943">
        <ele>1997</ele>
        <time>2026-04-22T10:02:31Z</time>
      </trkpt>
      <trkpt lat="42.868286976590753" lon="0.888525992631912">
        <ele>1998</ele>
        <time>2026-04-22T10:02:39Z</time>
      </trkpt>
      <trkpt lat="42.868287982419133" lon="0.888467989861965">
        <ele>2000</ele>
        <time>2026-04-22T10:02:47Z</time>
      </trkpt>
      <trkpt lat="42.868282031267881" lon="0.888410992920399">
        <ele>2001</ele>
        <time>2026-04-22T10:02:55Z</time>
      </trkpt>
      <trkpt lat="42.868287982419133" lon="0.888296999037266">
        <ele>2003</ele>
        <time>2026-04-22T10:03:11Z</time>
      </trkpt>
      <trkpt lat="42.868288988247514" lon="0.888243019580841">
        <ele>2004</ele>
        <time>2026-04-22T10:03:19Z</time>
      </trkpt>
      <trkpt lat="42.868273984640837" lon="0.888197002932429">
        <ele>2006</ele>
        <time>2026-04-22T10:03:27Z</time>
      </trkpt>
      <trkpt lat="42.868270967155695" lon="0.888143023476005">
        <ele>2008</ele>
        <time>2026-04-22T10:03:35Z</time>
      </trkpt>
      <trkpt lat="42.868272978812456" lon="0.888092983514071">
        <ele>2009</ele>
        <time>2026-04-22T10:03:43Z</time>
      </trkpt>
      <trkpt lat="42.868273984640837" lon="0.888042021542788">
        <ele>2011</ele>
        <time>2026-04-22T10:03:51Z</time>
      </trkpt>
      <trkpt lat="42.868272978812456" lon="0.887992987409234">
        <ele>2012</ele>
        <time>2026-04-22T10:03:59Z</time>
      </trkpt>
      <trkpt lat="42.868264010176063" lon="0.887941019609571">
        <ele>2014</ele>
        <time>2026-04-22T10:04:07Z</time>
      </trkpt>
      <trkpt lat="42.868263004347682" lon="0.887884022668004">
        <ele>2015</ele>
        <time>2026-04-22T10:04:17Z</time>
      </trkpt>
      <trkpt lat="42.868267027661204" lon="0.887667015194893">
        <ele>2021</ele>
        <time>2026-04-22T10:04:51Z</time>
      </trkpt>
      <trkpt lat="42.868244983255863" lon="0.887516979128122">
        <ele>2027</ele>
        <time>2026-04-22T10:05:19Z</time>
      </trkpt>
      <trkpt lat="42.868242971599102" lon="0.887460988014936">
        <ele>2029</ele>
        <time>2026-04-22T10:05:29Z</time>
      </trkpt>
      <trkpt lat="42.868241965770721" lon="0.887413965538144">
        <ele>2030</ele>
        <time>2026-04-22T10:05:37Z</time>
      </trkpt>
      <trkpt lat="42.868231991305947" lon="0.887368032708764">
        <ele>2031</ele>
        <time>2026-04-22T10:05:57Z</time>
      </trkpt>
      <trkpt lat="42.868211958557367" lon="0.887330984696746">
        <ele>2032</ele>
        <time>2026-04-22T10:06:27Z</time>
      </trkpt>
      <trkpt lat="42.868195027112961" lon="0.887289997190237">
        <ele>2035</ele>
        <time>2026-04-22T10:06:53Z</time>
      </trkpt>
      <trkpt lat="42.868169965222478" lon="0.887198969721794">
        <ele>2039</ele>
        <time>2026-04-22T10:07:27Z</time>
      </trkpt>
      <trkpt lat="42.868144987151027" lon="0.887101991102099">
        <ele>2044</ele>
        <time>2026-04-22T10:08:11Z</time>
      </trkpt>
      <trkpt lat="42.868127971887589" lon="0.887008029967546">
        <ele>2049</ele>
        <time>2026-04-22T10:08:51Z</time>
      </trkpt>
      <trkpt lat="42.868122020736337" lon="0.886956984177232">
        <ele>2050</ele>
        <time>2026-04-22T10:09:11Z</time>
      </trkpt>
      <trkpt lat="42.868111962452531" lon="0.88691096752882">
        <ele>2054</ele>
        <time>2026-04-22T10:09:29Z</time>
      </trkpt>
      <trkpt lat="42.868099976330996" lon="0.886866962537169">
        <ele>2055</ele>
        <time>2026-04-22T10:09:47Z</time>
      </trkpt>
      <trkpt lat="42.868091007694602" lon="0.886819018051028">
        <ele>2058</ele>
        <time>2026-04-22T10:10:09Z</time>
      </trkpt>
      <trkpt lat="42.868090001866221" lon="0.886770989745855">
        <ele>2059</ele>
        <time>2026-04-22T10:10:25Z</time>
      </trkpt>
      <trkpt lat="42.868092013522983" lon="0.886721033602953">
        <ele>2062</ele>
        <time>2026-04-22T10:10:43Z</time>
      </trkpt>
      <trkpt lat="42.868073992431164" lon="0.886616008356214">
        <ele>2066</ele>
        <time>2026-04-22T10:11:15Z</time>
      </trkpt>
      <trkpt lat="42.868072986602783" lon="0.886490028351545">
        <ele>2067</ele>
        <time>2026-04-22T10:11:41Z</time>
      </trkpt>
      <trkpt lat="42.868051026016474" lon="0.886453986167908">
        <ele>2068</ele>
        <time>2026-04-22T10:12:07Z</time>
      </trkpt>
      <trkpt lat="42.868028981611133" lon="0.886362036690116">
        <ele>2074</ele>
        <time>2026-04-22T10:12:37Z</time>
      </trkpt>
      <trkpt lat="42.868019007146358" lon="0.886313002556562">
        <ele>2078</ele>
        <time>2026-04-22T10:12:51Z</time>
      </trkpt>
      <trkpt lat="42.868010038509965" lon="0.886262962594628">
        <ele>2079</ele>
        <time>2026-04-22T10:13:05Z</time>
      </trkpt>
      <trkpt lat="42.868011966347694" lon="0.886100018396974">
        <ele>2085</ele>
        <time>2026-04-22T10:14:03Z</time>
      </trkpt>
      <trkpt lat="42.868038034066558" lon="0.886073028668761">
        <ele>2086</ele>
        <time>2026-04-22T10:14:25Z</time>
      </trkpt>
      <trkpt lat="42.868069969117641" lon="0.886098006740212">
        <ele>2085</ele>
        <time>2026-04-22T10:14:37Z</time>
      </trkpt>
      <trkpt lat="42.868073992431164" lon="0.886152992025018">
        <ele>2084</ele>
        <time>2026-04-22T10:15:51Z</time>
      </trkpt>
      <trkpt lat="42.868048008531332" lon="0.886186016723514">
        <ele>2084</ele>
        <time>2026-04-22T10:16:31Z</time>
      </trkpt>
      <trkpt lat="42.868039961904287" lon="0.886241002008319">
        <ele>2084</ele>
        <time>2026-04-22T10:17:21Z</time>
      </trkpt>
      <trkpt lat="42.868068963289261" lon="0.886217029765248">
        <ele>2082</ele>
        <time>2026-04-22T10:18:41Z</time>
      </trkpt>
      <trkpt lat="42.868085978552699" lon="0.886190962046385">
        <ele>2085</ele>
        <time>2026-04-22T10:41:00Z</time>
      </trkpt>
      <trkpt lat="42.868083966895938" lon="0.88613698258996">
        <ele>2085</ele>
        <time>2026-04-22T10:48:46Z</time>
      </trkpt>
      <trkpt lat="42.868091007694602" lon="0.886090965941548">
        <ele>2085</ele>
        <time>2026-04-22T10:51:40Z</time>
      </trkpt>
      <trkpt lat="42.868057982996106" lon="0.886057019233704">
        <ele>2085</ele>
        <time>2026-04-22T10:52:14Z</time>
      </trkpt>
      <trkpt lat="42.868074998259544" lon="0.886002033948898">
        <ele>2086</ele>
        <time>2026-04-22T10:52:20Z</time>
      </trkpt>
      <trkpt lat="42.868098970502615" lon="0.885768011212349">
        <ele>2087</ele>
        <time>2026-04-22T10:52:46Z</time>
      </trkpt>
      <trkpt lat="42.86810701712966" lon="0.885715959593654">
        <ele>2087</ele>
        <time>2026-04-22T10:52:52Z</time>
      </trkpt>
      <trkpt lat="42.86808698438108" lon="0.885437009856105">
        <ele>2088</ele>
        <time>2026-04-22T10:53:22Z</time>
      </trkpt>
      <trkpt lat="42.86808698438108" lon="0.885378001257777">
        <ele>2088</ele>
        <time>2026-04-22T10:53:28Z</time>
      </trkpt>
      <trkpt lat="42.868092013522983" lon="0.88529602624476">
        <ele>2087</ele>
        <time>2026-04-22T10:53:34Z</time>
      </trkpt>
      <trkpt lat="42.868091007694602" lon="0.885240035131574">
        <ele>2087</ele>
        <time>2026-04-22T10:53:40Z</time>
      </trkpt>
      <trkpt lat="42.868083966895938" lon="0.885188989341259">
        <ele>2087</ele>
        <time>2026-04-22T10:53:46Z</time>
      </trkpt>
      <trkpt lat="42.868069969117641" lon="0.885016992688179">
        <ele>2086</ele>
        <time>2026-04-22T10:54:04Z</time>
      </trkpt>
      <trkpt lat="42.86808799020946" lon="0.884904004633427">
        <ele>2086</ele>
        <time>2026-04-22T10:54:14Z</time>
      </trkpt>
      <trkpt lat="42.868085978552699" lon="0.884844996035099">
        <ele>2085</ele>
        <time>2026-04-22T10:54:20Z</time>
      </trkpt>
      <trkpt lat="42.868067035451531" lon="0.884797973558307">
        <ele>2084</ele>
        <time>2026-04-22T10:54:26Z</time>
      </trkpt>
      <trkpt lat="42.868056977167726" lon="0.88473703712225">
        <ele>2083</ele>
        <time>2026-04-22T10:54:38Z</time>
      </trkpt>
      <trkpt lat="42.868077009916306" lon="0.884685991331935">
        <ele>2082</ele>
        <time>2026-04-22T10:54:44Z</time>
      </trkpt>
      <trkpt lat="42.868083966895938" lon="0.884542996063828">
        <ele>2081</ele>
        <time>2026-04-22T10:54:56Z</time>
      </trkpt>
      <trkpt lat="42.868092013522983" lon="0.884431013837457">
        <ele>2080</ele>
        <time>2026-04-22T10:55:06Z</time>
      </trkpt>
      <trkpt lat="42.868081033229828" lon="0.884365970268846">
        <ele>2079</ele>
        <time>2026-04-22T10:55:12Z</time>
      </trkpt>
      <trkpt lat="42.868059994652867" lon="0.8842440135777">
        <ele>2077</ele>
        <time>2026-04-22T10:55:22Z</time>
      </trkpt>
      <trkpt lat="42.868058988824487" lon="0.884196991100907">
        <ele>2076</ele>
        <time>2026-04-22T10:55:26Z</time>
      </trkpt>
      <trkpt lat="42.868059994652867" lon="0.884135970845819">
        <ele>2074</ele>
        <time>2026-04-22T10:55:32Z</time>
      </trkpt>
      <trkpt lat="42.868071980774403" lon="0.884086014702916">
        <ele>2073</ele>
        <time>2026-04-22T10:55:36Z</time>
      </trkpt>
      <trkpt lat="42.868079021573067" lon="0.884028011932969">
        <ele>2072</ele>
        <time>2026-04-22T10:55:42Z</time>
      </trkpt>
      <trkpt lat="42.868061000481248" lon="0.883967997506261">
        <ele>2070</ele>
        <time>2026-04-22T10:55:48Z</time>
      </trkpt>
      <trkpt lat="42.868061000481248" lon="0.883905971422791">
        <ele>2069</ele>
        <time>2026-04-22T10:55:54Z</time>
      </trkpt>
      <trkpt lat="42.868035016581416" lon="0.88381502777338">
        <ele>2066</ele>
        <time>2026-04-22T10:56:02Z</time>
      </trkpt>
      <trkpt lat="42.868037028238177" lon="0.883650993928313">
        <ele>2062</ele>
        <time>2026-04-22T10:56:16Z</time>
      </trkpt>
      <trkpt lat="42.86802495829761" lon="0.883604977279902">
        <ele>2062</ele>
        <time>2026-04-22T10:56:20Z</time>
      </trkpt>
      <trkpt lat="42.868020012974739" lon="0.883544962853193">
        <ele>2060</ele>
        <time>2026-04-22T10:56:26Z</time>
      </trkpt>
      <trkpt lat="42.868018001317978" lon="0.883478997275233">
        <ele>2058</ele>
        <time>2026-04-22T10:56:32Z</time>
      </trkpt>
      <trkpt lat="42.868004003539681" lon="0.883371038362384">
        <ele>2056</ele>
        <time>2026-04-22T10:56:42Z</time>
      </trkpt>
      <trkpt lat="42.867987994104624" lon="0.883327033370733">
        <ele>2055</ele>
        <time>2026-04-22T10:56:46Z</time>
      </trkpt>
      <trkpt lat="42.86798195913434" lon="0.883274981752038">
        <ele>2054</ele>
        <time>2026-04-22T10:56:52Z</time>
      </trkpt>
      <trkpt lat="42.867975002154708" lon="0.883209016174078">
        <ele>2053</ele>
        <time>2026-04-22T10:56:58Z</time>
      </trkpt>
      <trkpt lat="42.867875006049871" lon="0.882885977625847">
        <ele>2051</ele>
        <time>2026-04-22T10:57:30Z</time>
      </trkpt>
      <trkpt lat="42.867817003279924" lon="0.882606022059917">
        <ele>2051</ele>
        <time>2026-04-22T10:57:58Z</time>
      </trkpt>
      <trkpt lat="42.867791019380093" lon="0.882565034553409">
        <ele>2052</ele>
        <time>2026-04-22T10:58:04Z</time>
      </trkpt>
      <trkpt lat="42.867814991623163" lon="0.882313996553421">
        <ele>2051</ele>
        <time>2026-04-22T10:58:38Z</time>
      </trkpt>
      <trkpt lat="42.867825971916318" lon="0.882260017096996">
        <ele>2049</ele>
        <time>2026-04-22T10:58:44Z</time>
      </trkpt>
      <trkpt lat="42.867822032421827" lon="0.88220402598381">
        <ele>2048</ele>
        <time>2026-04-22T10:58:52Z</time>
      </trkpt>
      <trkpt lat="42.867808034643531" lon="0.882145017385483">
        <ele>2045</ele>
        <time>2026-04-22T10:59:00Z</time>
      </trkpt>
      <trkpt lat="42.867808034643531" lon="0.882088020443916">
        <ele>2043</ele>
        <time>2026-04-22T10:59:06Z</time>
      </trkpt>
      <trkpt lat="42.867805017158389" lon="0.881904037669301">
        <ele>2039</ele>
        <time>2026-04-22T10:59:24Z</time>
      </trkpt>
      <trkpt lat="42.867809040471911" lon="0.881842011585832">
        <ele>2037</ele>
        <time>2026-04-22T10:59:30Z</time>
      </trkpt>
      <trkpt lat="42.86780602298677" lon="0.881787026301026">
        <ele>2035</ele>
        <time>2026-04-22T10:59:36Z</time>
      </trkpt>
      <trkpt lat="42.86776696331799" lon="0.88177596218884">
        <ele>2034</ele>
        <time>2026-04-22T10:59:46Z</time>
      </trkpt>
      <trkpt lat="42.86770099774003" lon="0.881723994389176">
        <ele>2032</ele>
        <time>2026-04-22T11:00:16Z</time>
      </trkpt>
      <trkpt lat="42.867666967213154" lon="0.881707984954119">
        <ele>2029</ele>
        <time>2026-04-22T11:00:26Z</time>
      </trkpt>
      <trkpt lat="42.867651963606477" lon="0.881758024916053">
        <ele>2028</ele>
        <time>2026-04-22T11:00:38Z</time>
      </trkpt>
      <trkpt lat="42.867641989141703" lon="0.88181896135211">
        <ele>2027</ele>
        <time>2026-04-22T11:00:44Z</time>
      </trkpt>
      <trkpt lat="42.867624973878264" lon="0.881865983828902">
        <ele>2027</ele>
        <time>2026-04-22T11:00:50Z</time>
      </trkpt>
      <trkpt lat="42.86759496666491" lon="0.881845029070973">
        <ele>2026</ele>
        <time>2026-04-22T11:01:08Z</time>
      </trkpt>
      <trkpt lat="42.867556996643543" lon="0.881845029070973">
        <ele>2024</ele>
        <time>2026-04-22T11:01:14Z</time>
      </trkpt>
      <trkpt lat="42.867530006915331" lon="0.881876964122057">
        <ele>2022</ele>
        <time>2026-04-22T11:01:30Z</time>
      </trkpt>
      <trkpt lat="42.867492036893964" lon="0.881869001314044">
        <ele>2020</ele>
        <time>2026-04-22T11:01:48Z</time>
      </trkpt>
      <trkpt lat="42.867453983053565" lon="0.881885010749102">
        <ele>2015</ele>
        <time>2026-04-22T11:02:00Z</time>
      </trkpt>
      <trkpt lat="42.867417018860579" lon="0.881896996870637">
        <ele>2011</ele>
        <time>2026-04-22T11:02:14Z</time>
      </trkpt>
      <trkpt lat="42.867382988333702" lon="0.881876964122057">
        <ele>2010</ele>
        <time>2026-04-22T11:02:28Z</time>
      </trkpt>
      <trkpt lat="42.867366978898644" lon="0.881835976615548">
        <ele>2009</ele>
        <time>2026-04-22T11:02:42Z</time>
      </trkpt>
      <trkpt lat="42.867338983342052" lon="0.8817970007658">
        <ele>2004</ele>
        <time>2026-04-22T11:03:04Z</time>
      </trkpt>
      <trkpt lat="42.867306964471936" lon="0.881783002987504">
        <ele>2003</ele>
        <time>2026-04-22T11:03:14Z</time>
      </trkpt>
      <trkpt lat="42.867266982793808" lon="0.881803035736084">
        <ele>1999</ele>
        <time>2026-04-22T11:03:22Z</time>
      </trkpt>
      <trkpt lat="42.867262959480286" lon="0.881749978289008">
        <ele>1998</ele>
        <time>2026-04-22T11:03:58Z</time>
      </trkpt>
      <trkpt lat="42.867232030257583" lon="0.881723994389176">
        <ele>1993</ele>
        <time>2026-04-22T11:04:16Z</time>
      </trkpt>
      <trkpt lat="42.867195988073945" lon="0.881733968853951">
        <ele>1992</ele>
        <time>2026-04-22T11:04:34Z</time>
      </trkpt>
      <trkpt lat="42.867158018052578" lon="0.881725000217557">
        <ele>1988</ele>
        <time>2026-04-22T11:04:46Z</time>
      </trkpt>
      <trkpt lat="42.867130022495985" lon="0.881697004660964">
        <ele>1987</ele>
        <time>2026-04-22T11:04:54Z</time>
      </trkpt>
      <trkpt lat="42.867090040817857" lon="0.881617963314056">
        <ele>1984</ele>
        <time>2026-04-22T11:05:06Z</time>
      </trkpt>
      <trkpt lat="42.867067996412516" lon="0.881573036313057">
        <ele>1982</ele>
        <time>2026-04-22T11:05:14Z</time>
      </trkpt>
      <trkpt lat="42.867045029997826" lon="0.881522996351123">
        <ele>1980</ele>
        <time>2026-04-22T11:05:22Z</time>
      </trkpt>
      <trkpt lat="42.866945033892989" lon="0.881377989426255">
        <ele>1974</ele>
        <time>2026-04-22T11:05:48Z</time>
      </trkpt>
      <trkpt lat="42.866874961182475" lon="0.881245974451303">
        <ele>1969</ele>
        <time>2026-04-22T11:06:14Z</time>
      </trkpt>
      <trkpt lat="42.866856018081307" lon="0.881204986944795">
        <ele>1968</ele>
        <time>2026-04-22T11:06:20Z</time>
      </trkpt>
      <trkpt lat="42.866829028353095" lon="0.881177997216582">
        <ele>1966</ele>
        <time>2026-04-22T11:06:26Z</time>
      </trkpt>
      <trkpt lat="42.86679801531136" lon="0.881155030801892">
        <ele>1964</ele>
        <time>2026-04-22T11:06:32Z</time>
      </trkpt>
      <trkpt lat="42.866765996441245" lon="0.881125023588538">
        <ele>1962</ele>
        <time>2026-04-22T11:06:38Z</time>
      </trkpt>
      <trkpt lat="42.866704976186156" lon="0.881041036918759">
        <ele>1959</ele>
        <time>2026-04-22T11:06:50Z</time>
      </trkpt>
      <trkpt lat="42.86669097840786" lon="0.880998959764838">
        <ele>1957</ele>
        <time>2026-04-22T11:12:08Z</time>
      </trkpt>
      <trkpt lat="42.866687038913369" lon="0.880950009450316">
        <ele>1955</ele>
        <time>2026-04-22T11:12:18Z</time>
      </trkpt>
      <trkpt lat="42.866527028381824" lon="0.880712969228625">
        <ele>1956</ele>
        <time>2026-04-22T11:12:52Z</time>
      </trkpt>
      <trkpt lat="42.866514958441257" lon="0.880669970065355">
        <ele>1956</ele>
        <time>2026-04-22T11:12:58Z</time>
      </trkpt>
      <trkpt lat="42.866491992026567" lon="0.880572991445661">
        <ele>1956</ele>
        <time>2026-04-22T11:13:10Z</time>
      </trkpt>
      <trkpt lat="42.866485035046935" lon="0.880518006160855">
        <ele>1957</ele>
        <time>2026-04-22T11:13:16Z</time>
      </trkpt>
      <trkpt lat="42.86647598259151" lon="0.880469977855682">
        <ele>1957</ele>
        <time>2026-04-22T11:13:22Z</time>
      </trkpt>
      <trkpt lat="42.866469025611877" lon="0.880415998399258">
        <ele>1957</ele>
        <time>2026-04-22T11:13:28Z</time>
      </trkpt>
      <trkpt lat="42.86647698841989" lon="0.880367970094085">
        <ele>1957</ele>
        <time>2026-04-22T11:13:32Z</time>
      </trkpt>
      <trkpt lat="42.866483023390174" lon="0.880312984809279">
        <ele>1958</ele>
        <time>2026-04-22T11:13:38Z</time>
      </trkpt>
      <trkpt lat="42.866467013955116" lon="0.88025095872581">
        <ele>1958</ele>
        <time>2026-04-22T11:13:44Z</time>
      </trkpt>
      <trkpt lat="42.866425020620227" lon="0.880131013691425">
        <ele>1956</ele>
        <time>2026-04-22T11:13:56Z</time>
      </trkpt>
      <trkpt lat="42.866406999528408" lon="0.880091032013297">
        <ele>1956</ele>
        <time>2026-04-22T11:14:00Z</time>
      </trkpt>
      <trkpt lat="42.866384033113718" lon="0.880039986222982">
        <ele>1955</ele>
        <time>2026-04-22T11:14:04Z</time>
      </trkpt>
      <trkpt lat="42.866343967616558" lon="0.879900008440018">
        <ele>1953</ele>
        <time>2026-04-22T11:14:16Z</time>
      </trkpt>
      <trkpt lat="42.866323012858629" lon="0.879857009276748">
        <ele>1952</ele>
        <time>2026-04-22T11:14:20Z</time>
      </trkpt>
      <trkpt lat="42.866302980110049" lon="0.879818033427">
        <ele>1951</ele>
        <time>2026-04-22T11:14:24Z</time>
      </trkpt>
      <trkpt lat="42.866242965683341" lon="0.879717031493783">
        <ele>1949</ele>
        <time>2026-04-22T11:14:36Z</time>
      </trkpt>
      <trkpt lat="42.866227962076664" lon="0.879670009016991">
        <ele>1948</ele>
        <time>2026-04-22T11:14:40Z</time>
      </trkpt>
      <trkpt lat="42.866178005933762" lon="0.87958300486207">
        <ele>1947</ele>
        <time>2026-04-22T11:14:48Z</time>
      </trkpt>
      <trkpt lat="42.866017995402217" lon="0.879227025434375">
        <ele>1946</ele>
        <time>2026-04-22T11:15:20Z</time>
      </trkpt>
      <trkpt lat="42.865982037037611" lon="0.879081012681127">
        <ele>1944</ele>
        <time>2026-04-22T11:15:32Z</time>
      </trkpt>
      <trkpt lat="42.865957980975509" lon="0.879044970497489">
        <ele>1944</ele>
        <time>2026-04-22T11:15:36Z</time>
      </trkpt>
      <trkpt lat="42.865900984033942" lon="0.878988979384303">
        <ele>1943</ele>
        <time>2026-04-22T11:15:46Z</time>
      </trkpt>
      <trkpt lat="42.865868965163827" lon="0.878969030454755">
        <ele>1943</ele>
        <time>2026-04-22T11:15:56Z</time>
      </trkpt>
      <trkpt lat="42.865863014012575" lon="0.878915973007679">
        <ele>1940</ele>
        <time>2026-04-22T11:16:06Z</time>
      </trkpt>
      <trkpt lat="42.865828983485699" lon="0.878898035734892">
        <ele>1939</ele>
        <time>2026-04-22T11:16:22Z</time>
      </trkpt>
      <trkpt lat="42.865812974050641" lon="0.878846989944577">
        <ele>1937</ele>
        <time>2026-04-22T11:16:28Z</time>
      </trkpt>
      <trkpt lat="42.86581196822226" lon="0.87878798134625">
        <ele>1936</ele>
        <time>2026-04-22T11:16:34Z</time>
      </trkpt>
      <trkpt lat="42.865816997364163" lon="0.878669964149594">
        <ele>1935</ele>
        <time>2026-04-22T11:17:52Z</time>
      </trkpt>
      <trkpt lat="42.86580802872777" lon="0.878560999408364">
        <ele>1933</ele>
        <time>2026-04-22T11:18:06Z</time>
      </trkpt>
      <trkpt lat="42.86580802872777" lon="0.878502996638417">
        <ele>1932</ele>
        <time>2026-04-22T11:18:12Z</time>
      </trkpt>
      <trkpt lat="42.865795036777854" lon="0.87833896279335">
        <ele>1929</ele>
        <time>2026-04-22T11:18:24Z</time>
      </trkpt>
      <trkpt lat="42.865790007635951" lon="0.878275008872151">
        <ele>1929</ele>
        <time>2026-04-22T11:18:30Z</time>
      </trkpt>
      <trkpt lat="42.865790007635951" lon="0.878200996667147">
        <ele>1927</ele>
        <time>2026-04-22T11:18:36Z</time>
      </trkpt>
      <trkpt lat="42.865785984322429" lon="0.87814399972558">
        <ele>1927</ele>
        <time>2026-04-22T11:18:40Z</time>
      </trkpt>
      <trkpt lat="42.865780033171177" lon="0.878036040812731">
        <ele>1925</ele>
        <time>2026-04-22T11:18:48Z</time>
      </trkpt>
      <trkpt lat="42.865769974887371" lon="0.87792900390923">
        <ele>1924</ele>
        <time>2026-04-22T11:18:56Z</time>
      </trkpt>
      <trkpt lat="42.86576796323061" lon="0.877880975604057">
        <ele>1923</ele>
        <time>2026-04-22T11:19:00Z</time>
      </trkpt>
      <trkpt lat="42.865756982937455" lon="0.87781903333962">
        <ele>1923</ele>
        <time>2026-04-22T11:19:04Z</time>
      </trkpt>
      <trkpt lat="42.865733010694385" lon="0.877768993377686">
        <ele>1922</ele>
        <time>2026-04-22T11:19:10Z</time>
      </trkpt>
      <trkpt lat="42.86570199765265" lon="0.87773303501308">
        <ele>1921</ele>
        <time>2026-04-22T11:19:16Z</time>
      </trkpt>
      <trkpt lat="42.865666039288044" lon="0.877729011699557">
        <ele>1919</ele>
        <time>2026-04-22T11:19:22Z</time>
      </trkpt>
      <trkpt lat="42.865633014589548" lon="0.877695987001061">
        <ele>1917</ele>
        <time>2026-04-22T11:19:30Z</time>
      </trkpt>
      <trkpt lat="42.86559596657753" lon="0.877570006996393">
        <ele>1913</ele>
        <time>2026-04-22T11:19:42Z</time>
      </trkpt>
      <trkpt lat="42.865580962970853" lon="0.877517033368349">
        <ele>1912</ele>
        <time>2026-04-22T11:19:48Z</time>
      </trkpt>
      <trkpt lat="42.865543998777866" lon="0.877287033945322">
        <ele>1908</ele>
        <time>2026-04-22T11:20:10Z</time>
      </trkpt>
      <trkpt lat="42.86550804041326" lon="0.877179997041821">
        <ele>1906</ele>
        <time>2026-04-22T11:20:20Z</time>
      </trkpt>
      <trkpt lat="42.865452971309423" lon="0.877001965418458">
        <ele>1901</ele>
        <time>2026-04-22T11:20:38Z</time>
      </trkpt>
      <trkpt lat="42.865440985187888" lon="0.876957960426807">
        <ele>1900</ele>
        <time>2026-04-22T11:20:42Z</time>
      </trkpt>
      <trkpt lat="42.865387005731463" lon="0.876627964898944">
        <ele>1895</ele>
        <time>2026-04-22T11:21:06Z</time>
      </trkpt>
      <trkpt lat="42.865327997133136" lon="0.876484969630837">
        <ele>1893</ele>
        <time>2026-04-22T11:21:22Z</time>
      </trkpt>
      <trkpt lat="42.865313999354839" lon="0.876433001831174">
        <ele>1890</ele>
        <time>2026-04-22T11:21:28Z</time>
      </trkpt>
      <trkpt lat="42.865288015455008" lon="0.87631699629128">
        <ele>1888</ele>
        <time>2026-04-22T11:21:38Z</time>
      </trkpt>
      <trkpt lat="42.865220038220286" lon="0.876225968822837">
        <ele>1884</ele>
        <time>2026-04-22T11:21:50Z</time>
      </trkpt>
      <trkpt lat="42.865209979936481" lon="0.876163020730019">
        <ele>1882</ele>
        <time>2026-04-22T11:21:56Z</time>
      </trkpt>
      <trkpt lat="42.865191036835313" lon="0.876104012131691">
        <ele>1882</ele>
        <time>2026-04-22T11:22:02Z</time>
      </trkpt>
      <trkpt lat="42.865171004086733" lon="0.875967973843217">
        <ele>1879</ele>
        <time>2026-04-22T11:22:14Z</time>
      </trkpt>
      <trkpt lat="42.865119958296418" lon="0.875796983018517">
        <ele>1878</ele>
        <time>2026-04-22T11:22:26Z</time>
      </trkpt>
      <trkpt lat="42.865085005760193" lon="0.875763036310673">
        <ele>1879</ele>
        <time>2026-04-22T11:22:30Z</time>
      </trkpt>
      <trkpt lat="42.865060027688742" lon="0.875717019662261">
        <ele>1878</ele>
        <time>2026-04-22T11:22:34Z</time>
      </trkpt>
      <trkpt lat="42.865060027688742" lon="0.875654993578792">
        <ele>1875</ele>
        <time>2026-04-22T11:22:48Z</time>
      </trkpt>
      <trkpt lat="42.865046029910445" lon="0.875611994415522">
        <ele>1873</ele>
        <time>2026-04-22T11:22:52Z</time>
      </trkpt>
      <trkpt lat="42.865042006596923" lon="0.875542005524039">
        <ele>1872</ele>
        <time>2026-04-22T11:22:58Z</time>
      </trkpt>
      <trkpt lat="42.865033959969878" lon="0.87548098526895">
        <ele>1869</ele>
        <time>2026-04-22T11:23:04Z</time>
      </trkpt>
      <trkpt lat="42.865023985505104" lon="0.875410996377468">
        <ele>1868</ele>
        <time>2026-04-22T11:23:10Z</time>
      </trkpt>
      <trkpt lat="42.864980986341834" lon="0.875141015276313">
        <ele>1866</ele>
        <time>2026-04-22T11:23:46Z</time>
      </trkpt>
      <trkpt lat="42.864973023533821" lon="0.87509399279952">
        <ele>1866</ele>
        <time>2026-04-22T11:24:24Z</time>
      </trkpt>
      <trkpt lat="42.864914014935493" lon="0.875029033049941">
        <ele>1865</ele>
        <time>2026-04-22T11:24:48Z</time>
      </trkpt>
      <trkpt lat="42.864899011328816" lon="0.874987961724401">
        <ele>1864</ele>
        <time>2026-04-22T11:24:52Z</time>
      </trkpt>
      <trkpt lat="42.864890964701772" lon="0.87494102306664">
        <ele>1863</ele>
        <time>2026-04-22T11:25:06Z</time>
      </trkpt>
      <trkpt lat="42.864869004115462" lon="0.87489802390337">
        <ele>1863</ele>
        <time>2026-04-22T11:25:12Z</time>
      </trkpt>
      <trkpt lat="42.864863974973559" lon="0.874826023355126">
        <ele>1862</ele>
        <time>2026-04-22T11:25:18Z</time>
      </trkpt>
      <trkpt lat="42.864846037700772" lon="0.874776989221573">
        <ele>1862</ele>
        <time>2026-04-22T11:25:22Z</time>
      </trkpt>
      <trkpt lat="42.864800021052361" lon="0.874572973698378">
        <ele>1858</ele>
        <time>2026-04-22T11:25:40Z</time>
      </trkpt>
      <trkpt lat="42.864773031324148" lon="0.874458979815245">
        <ele>1856</ele>
        <time>2026-04-22T11:25:50Z</time>
      </trkpt>
      <trkpt lat="42.864729026332498" lon="0.874267034232616">
        <ele>1854</ele>
        <time>2026-04-22T11:26:06Z</time>
      </trkpt>
      <trkpt lat="42.864657025784254" lon="0.87401800788939">
        <ele>1849</ele>
        <time>2026-04-22T11:26:28Z</time>
      </trkpt>
      <trkpt lat="42.864647973328829" lon="0.873971991240978">
        <ele>1848</ele>
        <time>2026-04-22T11:26:32Z</time>
      </trkpt>
      <trkpt lat="42.864647973328829" lon="0.873913988471031">
        <ele>1848</ele>
        <time>2026-04-22T11:26:36Z</time>
      </trkpt>
      <trkpt lat="42.864639004692435" lon="0.873857997357845">
        <ele>1847</ele>
        <time>2026-04-22T11:26:40Z</time>
      </trkpt>
      <trkpt lat="42.864626012742519" lon="0.873814998194575">
        <ele>1846</ele>
        <time>2026-04-22T11:26:44Z</time>
      </trkpt>
      <trkpt lat="42.864577984437346" lon="0.873664962127805">
        <ele>1843</ele>
        <time>2026-04-22T11:26:58Z</time>
      </trkpt>
      <trkpt lat="42.864575972780585" lon="0.873616011813283">
        <ele>1842</ele>
        <time>2026-04-22T11:27:02Z</time>
      </trkpt>
      <trkpt lat="42.864567004144192" lon="0.873552979901433">
        <ele>1841</ele>
        <time>2026-04-22T11:27:08Z</time>
      </trkpt>
      <trkpt lat="42.864547977223992" lon="0.873487014323473">
        <ele>1841</ele>
        <time>2026-04-22T11:27:14Z</time>
      </trkpt>
      <trkpt lat="42.864503972232342" lon="0.873333038762212">
        <ele>1838</ele>
        <time>2026-04-22T11:27:28Z</time>
      </trkpt>
      <trkpt lat="42.864476982504129" lon="0.873279981315136">
        <ele>1837</ele>
        <time>2026-04-22T11:27:34Z</time>
      </trkpt>
      <trkpt lat="42.864444963634014" lon="0.873176967725158">
        <ele>1836</ele>
        <time>2026-04-22T11:28:20Z</time>
      </trkpt>
      <trkpt lat="42.864284031093121" lon="0.872798021882772">
        <ele>1830</ele>
        <time>2026-04-22T11:28:52Z</time>
      </trkpt>
      <trkpt lat="42.864252012223005" lon="0.872698025777936">
        <ele>1829</ele>
        <time>2026-04-22T11:29:00Z</time>
      </trkpt>
      <trkpt lat="42.864217981696129" lon="0.872646979987621">
        <ele>1828</ele>
        <time>2026-04-22T11:29:04Z</time>
      </trkpt>
      <trkpt lat="42.86417699418962" lon="0.872550001367927">
        <ele>1828</ele>
        <time>2026-04-22T11:29:14Z</time>
      </trkpt>
      <trkpt lat="42.864158973097801" lon="0.872500967234373">
        <ele>1827</ele>
        <time>2026-04-22T11:29:18Z</time>
      </trkpt>
      <trkpt lat="42.864150004461408" lon="0.872443970292807">
        <ele>1827</ele>
        <time>2026-04-22T11:29:22Z</time>
      </trkpt>
      <trkpt lat="42.864118991419673" lon="0.872408011928201">
        <ele>1827</ele>
        <time>2026-04-22T11:29:26Z</time>
      </trkpt>
      <trkpt lat="42.864042967557907" lon="0.872211959213018">
        <ele>1825</ele>
        <time>2026-04-22T11:29:42Z</time>
      </trkpt>
      <trkpt lat="42.86398496478796" lon="0.872065024450421">
        <ele>1823</ele>
        <time>2026-04-22T11:29:56Z</time>
      </trkpt>
      <trkpt lat="42.863969039171934" lon="0.87202001363039">
        <ele>1822</ele>
        <time>2026-04-22T11:30:00Z</time>
      </trkpt>
      <trkpt lat="42.863943977281451" lon="0.871926974505186">
        <ele>1820</ele>
        <time>2026-04-22T11:30:08Z</time>
      </trkpt>
      <trkpt lat="42.863911958411336" lon="0.871828990057111">
        <ele>1819</ele>
        <time>2026-04-22T11:30:16Z</time>
      </trkpt>
      <trkpt lat="42.863813973963261" lon="0.871707033365965">
        <ele>1817</ele>
        <time>2026-04-22T11:30:30Z</time>
      </trkpt>
      <trkpt lat="42.863794025033712" lon="0.871662022545934">
        <ele>1817</ele>
        <time>2026-04-22T11:30:34Z</time>
      </trkpt>
      <trkpt lat="42.863737028092146" lon="0.871583987027407">
        <ele>1816</ele>
        <time>2026-04-22T11:30:42Z</time>
      </trkpt>
      <trkpt lat="42.863513985648751" lon="0.871256003156304">
        <ele>1814</ele>
        <time>2026-04-22T11:31:14Z</time>
      </trkpt>
      <trkpt lat="42.863469980657101" lon="0.871170004829764">
        <ele>1813</ele>
        <time>2026-04-22T11:31:22Z</time>
      </trkpt>
      <trkpt lat="42.863447014242411" lon="0.871133962646127">
        <ele>1812</ele>
        <time>2026-04-22T11:31:26Z</time>
      </trkpt>
      <trkpt lat="42.8633819706738" lon="0.871092975139618">
        <ele>1811</ele>
        <time>2026-04-22T11:31:34Z</time>
      </trkpt>
      <trkpt lat="42.863333020359278" lon="0.870974035933614">
        <ele>1812</ele>
        <time>2026-04-22T11:31:46Z</time>
      </trkpt>
      <trkpt lat="42.863318016752601" lon="0.870905974879861">
        <ele>1812</ele>
        <time>2026-04-22T11:31:52Z</time>
      </trkpt>
      <trkpt lat="42.863312987610698" lon="0.870855012908578">
        <ele>1813</ele>
        <time>2026-04-22T11:31:56Z</time>
      </trkpt>
      <trkpt lat="42.863268982619047" lon="0.870762979611754">
        <ele>1812</ele>
        <time>2026-04-22T11:32:08Z</time>
      </trkpt>
      <trkpt lat="42.863254984840751" lon="0.870703971013427">
        <ele>1811</ele>
        <time>2026-04-22T11:32:14Z</time>
      </trkpt>
      <trkpt lat="42.863245010375977" lon="0.870657032355666">
        <ele>1811</ele>
        <time>2026-04-22T11:32:18Z</time>
      </trkpt>
      <trkpt lat="42.863220032304525" lon="0.870553012937307">
        <ele>1810</ele>
        <time>2026-04-22T11:32:26Z</time>
      </trkpt>
      <trkpt lat="42.863198993727565" lon="0.870500961318612">
        <ele>1810</ele>
        <time>2026-04-22T11:32:30Z</time>
      </trkpt>
      <trkpt lat="42.863155994564295" lon="0.870381016284227">
        <ele>1810</ele>
        <time>2026-04-22T11:32:38Z</time>
      </trkpt>
      <trkpt lat="42.863139985129237" lon="0.870330976322293">
        <ele>1809</ele>
        <time>2026-04-22T11:32:42Z</time>
      </trkpt>
      <trkpt lat="42.863121964037418" lon="0.870218994095922">
        <ele>1806</ele>
        <time>2026-04-22T11:32:54Z</time>
      </trkpt>
      <trkpt lat="42.863121964037418" lon="0.870158979669213">
        <ele>1806</ele>
        <time>2026-04-22T11:33:00Z</time>
      </trkpt>
      <trkpt lat="42.863106960430741" lon="0.870016990229487">
        <ele>1804</ele>
        <time>2026-04-22T11:33:10Z</time>
      </trkpt>
      <trkpt lat="42.863104026764631" lon="0.869895033538342">
        <ele>1803</ele>
        <time>2026-04-22T11:33:20Z</time>
      </trkpt>
      <trkpt lat="42.86310100927949" lon="0.869845999404788">
        <ele>1803</ele>
        <time>2026-04-22T11:33:30Z</time>
      </trkpt>
      <trkpt lat="42.863108972087502" lon="0.869790008291602">
        <ele>1802</ele>
        <time>2026-04-22T11:33:48Z</time>
      </trkpt>
      <trkpt lat="42.863095980137587" lon="0.869668973609805">
        <ele>1800</ele>
        <time>2026-04-22T11:34:06Z</time>
      </trkpt>
      <trkpt lat="42.86310201510787" lon="0.869621029123664">
        <ele>1800</ele>
        <time>2026-04-22T11:34:10Z</time>
      </trkpt>
      <trkpt lat="42.863110983744264" lon="0.86924702860415">
        <ele>1795</ele>
        <time>2026-04-22T11:34:40Z</time>
      </trkpt>
      <trkpt lat="42.863112995401025" lon="0.869199000298977">
        <ele>1794</ele>
        <time>2026-04-22T11:34:44Z</time>
      </trkpt>
      <trkpt lat="42.863105032593012" lon="0.869153989478946">
        <ele>1793</ele>
        <time>2026-04-22T11:34:48Z</time>
      </trkpt>
      <trkpt lat="42.863109977915883" lon="0.869104033336043">
        <ele>1792</ele>
        <time>2026-04-22T11:34:52Z</time>
      </trkpt>
      <trkpt lat="42.863126993179321" lon="0.868674963712692">
        <ele>1788</ele>
        <time>2026-04-22T11:35:24Z</time>
      </trkpt>
      <trkpt lat="42.863127999007702" lon="0.868572033941746">
        <ele>1787</ele>
        <time>2026-04-22T11:35:32Z</time>
      </trkpt>
      <trkpt lat="42.863109977915883" lon="0.868460973724723">
        <ele>1785</ele>
        <time>2026-04-22T11:35:40Z</time>
      </trkpt>
      <trkpt lat="42.863106960430741" lon="0.868401965126395">
        <ele>1785</ele>
        <time>2026-04-22T11:35:44Z</time>
      </trkpt>
      <trkpt lat="42.863106038421392" lon="0.86834697984159">
        <ele>1783</ele>
        <time>2026-04-22T11:35:48Z</time>
      </trkpt>
      <trkpt lat="42.863109977915883" lon="0.868242960423231">
        <ele>1782</ele>
        <time>2026-04-22T11:35:56Z</time>
      </trkpt>
      <trkpt lat="42.863107966259122" lon="0.868193004280329">
        <ele>1781</ele>
        <time>2026-04-22T11:36:00Z</time>
      </trkpt>
      <trkpt lat="42.863100003451109" lon="0.868074987083673">
        <ele>1779</ele>
        <time>2026-04-22T11:36:10Z</time>
      </trkpt>
      <trkpt lat="42.863082988187671" lon="0.867974990978837">
        <ele>1778</ele>
        <time>2026-04-22T11:36:18Z</time>
      </trkpt>
      <trkpt lat="42.863089023157954" lon="0.867871977388859">
        <ele>1777</ele>
        <time>2026-04-22T11:36:26Z</time>
      </trkpt>
      <trkpt lat="42.863052980974317" lon="0.867497976869345">
        <ele>1772</ele>
        <time>2026-04-22T11:36:54Z</time>
      </trkpt>
      <trkpt lat="42.863051975145936" lon="0.867394963279366">
        <ele>1771</ele>
        <time>2026-04-22T11:37:02Z</time>
      </trkpt>
      <trkpt lat="42.863005958497524" lon="0.867183990776539">
        <ele>1769</ele>
        <time>2026-04-22T11:37:18Z</time>
      </trkpt>
      <trkpt lat="42.862996989861131" lon="0.867115007713437">
        <ele>1769</ele>
        <time>2026-04-22T11:37:24Z</time>
      </trkpt>
      <trkpt lat="42.86297301761806" lon="0.866999002173543">
        <ele>1769</ele>
        <time>2026-04-22T11:37:34Z</time>
      </trkpt>
      <trkpt lat="42.862970000132918" lon="0.866945022717118">
        <ele>1769</ele>
        <time>2026-04-22T11:37:38Z</time>
      </trkpt>
      <trkpt lat="42.862953990697861" lon="0.866759028285742">
        <ele>1769</ele>
        <time>2026-04-22T11:37:52Z</time>
      </trkpt>
      <trkpt lat="42.862934963777661" lon="0.866718040779233">
        <ele>1769</ele>
        <time>2026-04-22T11:38:20Z</time>
      </trkpt>
      <trkpt lat="42.862921971827745" lon="0.866643022745848">
        <ele>1768</ele>
        <time>2026-04-22T11:39:26Z</time>
      </trkpt>
      <trkpt lat="42.86292901262641" lon="0.866588959470391">
        <ele>1768</ele>
        <time>2026-04-22T11:39:30Z</time>
      </trkpt>
      <trkpt lat="42.862922977656126" lon="0.866539003327489">
        <ele>1767</ele>
        <time>2026-04-22T11:39:34Z</time>
      </trkpt>
      <trkpt lat="42.862934963777661" lon="0.866257958114147">
        <ele>1764</ele>
        <time>2026-04-22T11:39:56Z</time>
      </trkpt>
      <trkpt lat="42.862933035939932" lon="0.866208001971245">
        <ele>1764</ele>
        <time>2026-04-22T11:40:02Z</time>
      </trkpt>
      <trkpt lat="42.862870004028082" lon="0.865988982841372">
        <ele>1761</ele>
        <time>2026-04-22T11:40:22Z</time>
      </trkpt>
      <trkpt lat="42.862862041220069" lon="0.865930980071425">
        <ele>1761</ele>
        <time>2026-04-22T11:40:28Z</time>
      </trkpt>
      <trkpt lat="42.862817030400038" lon="0.865464024245739">
        <ele>1762</ele>
        <time>2026-04-22T11:41:00Z</time>
      </trkpt>
      <trkpt lat="42.862807977944613" lon="0.865408033132553">
        <ele>1761</ele>
        <time>2026-04-22T11:41:04Z</time>
      </trkpt>
      <trkpt lat="42.86273798905313" lon="0.865135034546256">
        <ele>1759</ele>
        <time>2026-04-22T11:41:24Z</time>
      </trkpt>
      <trkpt lat="42.862726002931595" lon="0.86507803760469">
        <ele>1759</ele>
        <time>2026-04-22T11:41:28Z</time>
      </trkpt>
      <trkpt lat="42.86271502263844" lon="0.865021962672472">
        <ele>1759</ele>
        <time>2026-04-22T11:41:32Z</time>
      </trkpt>
      <trkpt lat="42.862618966028094" lon="0.86460898630321">
        <ele>1756</ele>
        <time>2026-04-22T11:42:00Z</time>
      </trkpt>
      <trkpt lat="42.862591976299882" lon="0.864547966048121">
        <ele>1756</ele>
        <time>2026-04-22T11:42:04Z</time>
      </trkpt>
      <trkpt lat="42.862587030977011" lon="0.864486023783684">
        <ele>1756</ele>
        <time>2026-04-22T11:42:10Z</time>
      </trkpt>
      <trkpt lat="42.86258501932025" lon="0.864433972164989">
        <ele>1755</ele>
        <time>2026-04-22T11:42:16Z</time>
      </trkpt>
      <trkpt lat="42.862506983801723" lon="0.864427015185356">
        <ele>1753</ele>
        <time>2026-04-22T11:42:34Z</time>
      </trkpt>
      <trkpt lat="42.862465996295214" lon="0.864450987428427">
        <ele>1752</ele>
        <time>2026-04-22T11:42:40Z</time>
      </trkpt>
      <trkpt lat="42.86239298991859" lon="0.864420980215073">
        <ele>1748</ele>
        <time>2026-04-22T11:42:50Z</time>
      </trkpt>
      <trkpt lat="42.862348984926939" lon="0.864428021013737">
        <ele>1746</ele>
        <time>2026-04-22T11:42:56Z</time>
      </trkpt>
      <trkpt lat="42.862314032390714" lon="0.864416034892201">
        <ele>1745</ele>
        <time>2026-04-22T11:43:00Z</time>
      </trkpt>
      <trkpt lat="42.862271033227444" lon="0.86441301740706">
        <ele>1743</ele>
        <time>2026-04-22T11:43:06Z</time>
      </trkpt>
      <trkpt lat="42.862224010750651" lon="0.864429026842117">
        <ele>1740</ele>
        <time>2026-04-22T11:43:12Z</time>
      </trkpt>
      <trkpt lat="42.862023012712598" lon="0.864639999344945">
        <ele>1733</ele>
        <time>2026-04-22T11:43:40Z</time>
      </trkpt>
      <trkpt lat="42.861994011327624" lon="0.864688027650118">
        <ele>1732</ele>
        <time>2026-04-22T11:43:44Z</time>
      </trkpt>
      <trkpt lat="42.861880017444491" lon="0.864848038181663">
        <ele>1727</ele>
        <time>2026-04-22T11:44:04Z</time>
      </trkpt>
      <trkpt lat="42.861869959160686" lon="0.864897994324565">
        <ele>1726</ele>
        <time>2026-04-22T11:44:08Z</time>
      </trkpt>
      <trkpt lat="42.86189996637404" lon="0.86516403593123">
        <ele>1724</ele>
        <time>2026-04-22T11:44:30Z</time>
      </trkpt>
      <trkpt lat="42.861893009394407" lon="0.865221032872796">
        <ele>1724</ele>
        <time>2026-04-22T11:44:34Z</time>
      </trkpt>
      <trkpt lat="42.86187699995935" lon="0.865280963480473">
        <ele>1722</ele>
        <time>2026-04-22T11:44:38Z</time>
      </trkpt>
      <trkpt lat="42.861884040758014" lon="0.865351958200336">
        <ele>1721</ele>
        <time>2026-04-22T11:44:42Z</time>
      </trkpt>
      <trkpt lat="42.861887980252504" lon="0.865463018417358">
        <ele>1719</ele>
        <time>2026-04-22T11:44:50Z</time>
      </trkpt>
      <trkpt lat="42.861882029101253" lon="0.865516997873783">
        <ele>1719</ele>
        <time>2026-04-22T11:44:54Z</time>
      </trkpt>
      <trkpt lat="42.861890997737646" lon="0.865572988986969">
        <ele>1719</ele>
        <time>2026-04-22T11:44:58Z</time>
      </trkpt>
      <trkpt lat="42.86189996637404" lon="0.865731993690133">
        <ele>1717</ele>
        <time>2026-04-22T11:45:10Z</time>
      </trkpt>
      <trkpt lat="42.86189996637404" lon="0.865782033652067">
        <ele>1716</ele>
        <time>2026-04-22T11:45:14Z</time>
      </trkpt>
      <trkpt lat="42.861893009394407" lon="0.865841964259744">
        <ele>1716</ele>
        <time>2026-04-22T11:45:18Z</time>
      </trkpt>
      <trkpt lat="42.861884040758014" lon="0.865892004221678">
        <ele>1715</ele>
        <time>2026-04-22T11:45:22Z</time>
      </trkpt>
      <trkpt lat="42.861882029101253" lon="0.865998035296798">
        <ele>1713</ele>
        <time>2026-04-22T11:45:30Z</time>
      </trkpt>
      <trkpt lat="42.861893009394407" lon="0.8660479914397">
        <ele>1712</ele>
        <time>2026-04-22T11:45:34Z</time>
      </trkpt>
      <trkpt lat="42.861889991909266" lon="0.866099959239364">
        <ele>1712</ele>
        <time>2026-04-22T11:45:38Z</time>
      </trkpt>
      <trkpt lat="42.861888986080885" lon="0.866147987544537">
        <ele>1711</ele>
        <time>2026-04-22T11:45:42Z</time>
      </trkpt>
      <trkpt lat="42.86187800578773" lon="0.866195010021329">
        <ele>1709</ele>
        <time>2026-04-22T11:45:46Z</time>
      </trkpt>
      <trkpt lat="42.861884040758014" lon="0.866244966164231">
        <ele>1708</ele>
        <time>2026-04-22T11:45:50Z</time>
      </trkpt>
      <trkpt lat="42.861889991909266" lon="0.866345968097448">
        <ele>1706</ele>
        <time>2026-04-22T11:45:58Z</time>
      </trkpt>
      <trkpt lat="42.86189803853631" lon="0.866399025544524">
        <ele>1706</ele>
        <time>2026-04-22T11:46:02Z</time>
      </trkpt>
      <trkpt lat="42.861912958323956" lon="0.866662971675396">
        <ele>1704</ele>
        <time>2026-04-22T11:46:22Z</time>
      </trkpt>
      <trkpt lat="42.861910024657845" lon="0.866844020783901">
        <ele>1702</ele>
        <time>2026-04-22T11:46:40Z</time>
      </trkpt>
      <trkpt lat="42.861879011616111" lon="0.866876961663365">
        <ele>1702</ele>
        <time>2026-04-22T11:46:46Z</time>
      </trkpt>
      <trkpt lat="42.861846992745996" lon="0.866894982755184">
        <ele>1702</ele>
        <time>2026-04-22T11:46:50Z</time>
      </trkpt>
      <trkpt lat="42.86183500662446" lon="0.867002019658685">
        <ele>1702</ele>
        <time>2026-04-22T11:47:00Z</time>
      </trkpt>
      <trkpt lat="42.861824026331306" lon="0.867050969973207">
        <ele>1703</ele>
        <time>2026-04-22T11:47:08Z</time>
      </trkpt>
      <trkpt lat="42.861808016896248" lon="0.867160018533468">
        <ele>1700</ele>
        <time>2026-04-22T11:47:24Z</time>
      </trkpt>
      <trkpt lat="42.861821008846164" lon="0.867220032960176">
        <ele>1701</ele>
        <time>2026-04-22T11:47:32Z</time>
      </trkpt>
      <trkpt lat="42.861838024109602" lon="0.867275018244982">
        <ele>1701</ele>
        <time>2026-04-22T11:47:38Z</time>
      </trkpt>
      <trkpt lat="42.861863002181053" lon="0.867310976609588">
        <ele>1702</ele>
        <time>2026-04-22T11:47:44Z</time>
      </trkpt>
      <trkpt lat="42.861874988302588" lon="0.867368979379535">
        <ele>1703</ele>
        <time>2026-04-22T11:47:52Z</time>
      </trkpt>
      <trkpt lat="42.861840035766363" lon="0.867547011002898">
        <ele>1701</ele>
        <time>2026-04-22T11:48:10Z</time>
      </trkpt>
      <trkpt lat="42.861817991361022" lon="0.867606019601226">
        <ele>1699</ele>
        <time>2026-04-22T11:48:16Z</time>
      </trkpt>
      <trkpt lat="42.861802987754345" lon="0.867654969915748">
        <ele>1699</ele>
        <time>2026-04-22T11:48:20Z</time>
      </trkpt>
      <trkpt lat="42.86179200746119" lon="0.867699980735779">
        <ele>1698</ele>
        <time>2026-04-22T11:48:24Z</time>
      </trkpt>
      <trkpt lat="42.861769963055849" lon="0.867757983505726">
        <ele>1698</ele>
        <time>2026-04-22T11:48:28Z</time>
      </trkpt>
      <trkpt lat="42.861742973327637" lon="0.868148999288678">
        <ele>1696</ele>
        <time>2026-04-22T11:48:58Z</time>
      </trkpt>
      <trkpt lat="42.86168597638607" lon="0.868349997326732">
        <ele>1695</ele>
        <time>2026-04-22T11:49:20Z</time>
      </trkpt>
      <trkpt lat="42.861654963344336" lon="0.868499027565122">
        <ele>1694</ele>
        <time>2026-04-22T11:49:32Z</time>
      </trkpt>
      <trkpt lat="42.861644988879561" lon="0.868556024506688">
        <ele>1693</ele>
        <time>2026-04-22T11:49:36Z</time>
      </trkpt>
      <trkpt lat="42.861645994707942" lon="0.868621990084648">
        <ele>1693</ele>
        <time>2026-04-22T11:49:40Z</time>
      </trkpt>
      <trkpt lat="42.861648006364703" lon="0.868676975369453">
        <ele>1693</ele>
        <time>2026-04-22T11:49:44Z</time>
      </trkpt>
      <trkpt lat="42.861622022464871" lon="0.868714023381472">
        <ele>1693</ele>
        <time>2026-04-22T11:49:50Z</time>
      </trkpt>
      <trkpt lat="42.861590003594756" lon="0.868763979524374">
        <ele>1693</ele>
        <time>2026-04-22T11:50:00Z</time>
      </trkpt>
      <trkpt lat="42.861551027745008" lon="0.868857018649578">
        <ele>1692</ele>
        <time>2026-04-22T11:50:12Z</time>
      </trkpt>
      <trkpt lat="42.86153401248157" lon="0.868900017812848">
        <ele>1691</ele>
        <time>2026-04-22T11:50:16Z</time>
      </trkpt>
      <trkpt lat="42.8615100402385" lon="0.86894704028964">
        <ele>1691</ele>
        <time>2026-04-22T11:50:20Z</time>
      </trkpt>
      <trkpt lat="42.86144700832665" lon="0.869215009734035">
        <ele>1690</ele>
        <time>2026-04-22T11:50:40Z</time>
      </trkpt>
      <trkpt lat="42.86142697557807" lon="0.869262032210827">
        <ele>1690</ele>
        <time>2026-04-22T11:50:44Z</time>
      </trkpt>
      <trkpt lat="42.861386993899941" lon="0.869470993056893">
        <ele>1689</ele>
        <time>2026-04-22T11:51:00Z</time>
      </trkpt>
      <trkpt lat="42.861378025263548" lon="0.869536036625504">
        <ele>1689</ele>
        <time>2026-04-22T11:51:04Z</time>
      </trkpt>
      <trkpt lat="42.861366039142013" lon="0.869595967233181">
        <ele>1689</ele>
        <time>2026-04-22T11:51:08Z</time>
      </trkpt>
      <trkpt lat="42.861270988360047" lon="0.869951024651527">
        <ele>1682</ele>
        <time>2026-04-22T11:51:38Z</time>
      </trkpt>
      <trkpt lat="42.861218014732003" lon="0.87034204043448">
        <ele>1676</ele>
        <time>2026-04-22T11:52:06Z</time>
      </trkpt>
      <trkpt lat="42.861107038334012" lon="0.870670024305582">
        <ele>1669</ele>
        <time>2026-04-22T11:52:30Z</time>
      </trkpt>
      <trkpt lat="42.861098991706967" lon="0.870721992105246">
        <ele>1667</ele>
        <time>2026-04-22T11:52:34Z</time>
      </trkpt>
      <trkpt lat="42.861032020300627" lon="0.871067997068167">
        <ele>1661</ele>
        <time>2026-04-22T11:53:02Z</time>
      </trkpt>
      <trkpt lat="42.861020034179091" lon="0.871137985959649">
        <ele>1659</ele>
        <time>2026-04-22T11:53:08Z</time>
      </trkpt>
      <trkpt lat="42.861013999208808" lon="0.871190037578344">
        <ele>1658</ele>
        <time>2026-04-22T11:53:12Z</time>
      </trkpt>
      <trkpt lat="42.861021040007472" lon="0.871237982064486">
        <ele>1657</ele>
        <time>2026-04-22T11:53:16Z</time>
      </trkpt>
      <trkpt lat="42.861051969230175" lon="0.871281987056136">
        <ele>1656</ele>
        <time>2026-04-22T11:53:20Z</time>
      </trkpt>
      <trkpt lat="42.861058004200459" lon="0.871463036164641">
        <ele>1652</ele>
        <time>2026-04-22T11:53:34Z</time>
      </trkpt>
      <trkpt lat="42.86106001585722" lon="0.871510980650783">
        <ele>1651</ele>
        <time>2026-04-22T11:53:38Z</time>
      </trkpt>
      <trkpt lat="42.861048029735684" lon="0.871662022545934">
        <ele>1648</ele>
        <time>2026-04-22T11:53:50Z</time>
      </trkpt>
      <trkpt lat="42.861053980886936" lon="0.871724970638752">
        <ele>1647</ele>
        <time>2026-04-22T11:53:54Z</time>
      </trkpt>
      <trkpt lat="42.861056998372078" lon="0.871781967580318">
        <ele>1646</ele>
        <time>2026-04-22T11:53:58Z</time>
      </trkpt>
      <trkpt lat="42.861078036949039" lon="0.871946001425385">
        <ele>1645</ele>
        <time>2026-04-22T11:54:10Z</time>
      </trkpt>
      <trkpt lat="42.861074013635516" lon="0.872072987258434">
        <ele>1643</ele>
        <time>2026-04-22T11:54:18Z</time>
      </trkpt>
      <trkpt lat="42.861081976443529" lon="0.872126966714859">
        <ele>1643</ele>
        <time>2026-04-22T11:54:22Z</time>
      </trkpt>
      <trkpt lat="42.861088011413813" lon="0.872186981141567">
        <ele>1643</ele>
        <time>2026-04-22T11:54:26Z</time>
      </trkpt>
      <trkpt lat="42.861128998920321" lon="0.8723009750247">
        <ele>1643</ele>
        <time>2026-04-22T11:54:34Z</time>
      </trkpt>
      <trkpt lat="42.861151965335011" lon="0.872489986941218">
        <ele>1643</ele>
        <time>2026-04-22T11:54:46Z</time>
      </trkpt>
      <trkpt lat="42.861165041103959" lon="0.87253499776125">
        <ele>1643</ele>
        <time>2026-04-22T11:54:50Z</time>
      </trkpt>
      <trkpt lat="42.861167974770069" lon="0.872635999694467">
        <ele>1643</ele>
        <time>2026-04-22T11:54:58Z</time>
      </trkpt>
      <trkpt lat="42.861191025003791" lon="0.872860969975591">
        <ele>1642</ele>
        <time>2026-04-22T11:55:14Z</time>
      </trkpt>
      <trkpt lat="42.86123301833868" lon="0.873020980507135">
        <ele>1642</ele>
        <time>2026-04-22T11:55:26Z</time>
      </trkpt>
      <trkpt lat="42.86125497892499" lon="0.873132962733507">
        <ele>1642</ele>
        <time>2026-04-22T11:55:34Z</time>
      </trkpt>
      <trkpt lat="42.861268976703286" lon="0.873184008523822">
        <ele>1643</ele>
        <time>2026-04-22T11:55:38Z</time>
      </trkpt>
      <trkpt lat="42.861280040815473" lon="0.873290039598942">
        <ele>1643</ele>
        <time>2026-04-22T11:55:46Z</time>
      </trkpt>
      <trkpt lat="42.861332008615136" lon="0.873507969081402">
        <ele>1642</ele>
        <time>2026-04-22T11:56:02Z</time>
      </trkpt>
      <trkpt lat="42.861374001950026" lon="0.873606037348509">
        <ele>1642</ele>
        <time>2026-04-22T11:56:10Z</time>
      </trkpt>
      <trkpt lat="42.861409960314631" lon="0.873707961291075">
        <ele>1641</ele>
        <time>2026-04-22T11:56:18Z</time>
      </trkpt>
      <trkpt lat="42.861424963921309" lon="0.874017002061009">
        <ele>1637</ele>
        <time>2026-04-22T11:56:40Z</time>
      </trkpt>
      <trkpt lat="42.861389005556703" lon="0.874441964551806">
        <ele>1636</ele>
        <time>2026-04-22T11:57:12Z</time>
      </trkpt>
      <trkpt lat="42.861403003334999" lon="0.874594012275338">
        <ele>1637</ele>
        <time>2026-04-22T11:57:24Z</time>
      </trkpt>
      <trkpt lat="42.861413983628154" lon="0.87464002892375">
        <ele>1637</ele>
        <time>2026-04-22T11:57:28Z</time>
      </trkpt>
      <trkpt lat="42.861395962536335" lon="0.874690990895033">
        <ele>1638</ele>
        <time>2026-04-22T11:57:34Z</time>
      </trkpt>
      <trkpt lat="42.8613839764148" lon="0.874762991443276">
        <ele>1638</ele>
        <time>2026-04-22T11:57:40Z</time>
      </trkpt>
      <trkpt lat="42.861395040526986" lon="0.874827029183507">
        <ele>1638</ele>
        <time>2026-04-22T11:57:46Z</time>
      </trkpt>
      <trkpt lat="42.861413983628154" lon="0.875223996117711">
        <ele>1637</ele>
        <time>2026-04-22T11:58:16Z</time>
      </trkpt>
      <trkpt lat="42.861408032476902" lon="0.875349976122379">
        <ele>1636</ele>
        <time>2026-04-22T11:58:24Z</time>
      </trkpt>
      <trkpt lat="42.861395962536335" lon="0.875515015795827">
        <ele>1635</ele>
        <time>2026-04-22T11:58:36Z</time>
      </trkpt>
      <trkpt lat="42.861382970586419" lon="0.875562960281968">
        <ele>1634</ele>
        <time>2026-04-22T11:58:40Z</time>
      </trkpt>
      <trkpt lat="42.861372996121645" lon="0.875610988587141">
        <ele>1634</ele>
        <time>2026-04-22T11:58:44Z</time>
      </trkpt>
      <trkpt lat="42.861392023041844" lon="0.87582497857511">
        <ele>1631</ele>
        <time>2026-04-22T11:59:00Z</time>
      </trkpt>
      <trkpt lat="42.861380958929658" lon="0.875870995223522">
        <ele>1630</ele>
        <time>2026-04-22T11:59:04Z</time>
      </trkpt>
      <trkpt lat="42.861352041363716" lon="0.876046009361744">
        <ele>1631</ele>
        <time>2026-04-22T11:59:18Z</time>
      </trkpt>
      <trkpt lat="42.861365033313632" lon="0.876278020441532">
        <ele>1630</ele>
        <time>2026-04-22T11:59:36Z</time>
      </trkpt>
      <trkpt lat="42.861357992514968" lon="0.876327976584435">
        <ele>1629</ele>
        <time>2026-04-22T11:59:40Z</time>
      </trkpt>
      <trkpt lat="42.861336031928658" lon="0.876371981576085">
        <ele>1627</ele>
        <time>2026-04-22T11:59:44Z</time>
      </trkpt>
      <trkpt lat="42.861308036372066" lon="0.876481030136347">
        <ele>1625</ele>
        <time>2026-04-22T11:59:52Z</time>
      </trkpt>
      <trkpt lat="42.861311975866556" lon="0.87683298625052">
        <ele>1624</ele>
        <time>2026-04-22T12:00:22Z</time>
      </trkpt>
      <trkpt lat="42.861280040815473" lon="0.877123000100255">
        <ele>1622</ele>
        <time>2026-04-22T12:00:44Z</time>
      </trkpt>
      <trkpt lat="42.861265959218144" lon="0.877175973728299">
        <ele>1621</ele>
        <time>2026-04-22T12:00:48Z</time>
      </trkpt>
      <trkpt lat="42.861198987811804" lon="0.877509992569685">
        <ele>1616</ele>
        <time>2026-04-22T12:01:12Z</time>
      </trkpt>
      <trkpt lat="42.861166968941689" lon="0.87760797701776">
        <ele>1615</ele>
        <time>2026-04-22T12:01:20Z</time>
      </trkpt>
      <trkpt lat="42.861124975606799" lon="0.877695987001061">
        <ele>1613</ele>
        <time>2026-04-22T12:01:28Z</time>
      </trkpt>
      <trkpt lat="42.861094968393445" lon="0.877801012247801">
        <ele>1611</ele>
        <time>2026-04-22T12:01:36Z</time>
      </trkpt>
      <trkpt lat="42.861075019463897" lon="0.877845017239451">
        <ele>1610</ele>
        <time>2026-04-22T12:01:40Z</time>
      </trkpt>
      <trkpt lat="42.861038977280259" lon="0.877947025001049">
        <ele>1609</ele>
        <time>2026-04-22T12:01:48Z</time>
      </trkpt>
      <trkpt lat="42.860998995602131" lon="0.878403000533581">
        <ele>1606</ele>
        <time>2026-04-22T12:02:20Z</time>
      </trkpt>
      <trkpt lat="42.860979968681931" lon="0.878512971103191">
        <ele>1605</ele>
        <time>2026-04-22T12:02:28Z</time>
      </trkpt>
      <trkpt lat="42.860980974510312" lon="0.878570973873138">
        <ele>1605</ele>
        <time>2026-04-22T12:02:32Z</time>
      </trkpt>
      <trkpt lat="42.8609539847821" lon="0.878730984404683">
        <ele>1604</ele>
        <time>2026-04-22T12:02:44Z</time>
      </trkpt>
      <trkpt lat="42.86093101836741" lon="0.878786975517869">
        <ele>1603</ele>
        <time>2026-04-22T12:02:48Z</time>
      </trkpt>
      <trkpt lat="42.860904028639197" lon="0.878896024078131">
        <ele>1601</ele>
        <time>2026-04-22T12:02:56Z</time>
      </trkpt>
      <trkpt lat="42.860834039747715" lon="0.879039019346237">
        <ele>1598</ele>
        <time>2026-04-22T12:03:08Z</time>
      </trkpt>
      <trkpt lat="42.86080596037209" lon="0.879080006852746">
        <ele>1597</ele>
        <time>2026-04-22T12:03:12Z</time>
      </trkpt>
      <trkpt lat="42.860800009220839" lon="0.879134992137551">
        <ele>1597</ele>
        <time>2026-04-22T12:03:16Z</time>
      </trkpt>
      <trkpt lat="42.860799003392458" lon="0.879188971593976">
        <ele>1596</ele>
        <time>2026-04-22T12:03:20Z</time>
      </trkpt>
      <trkpt lat="42.860789028927684" lon="0.879236999899149">
        <ele>1596</ele>
        <time>2026-04-22T12:03:24Z</time>
      </trkpt>
      <trkpt lat="42.860747035592794" lon="0.879263989627361">
        <ele>1595</ele>
        <time>2026-04-22T12:03:30Z</time>
      </trkpt>
      <trkpt lat="42.860704036429524" lon="0.879249991849065">
        <ele>1594</ele>
        <time>2026-04-22T12:03:36Z</time>
      </trkpt>
      <trkpt lat="42.860689032822847" lon="0.879316963255405">
        <ele>1593</ele>
        <time>2026-04-22T12:03:42Z</time>
      </trkpt>
      <trkpt lat="42.860692972317338" lon="0.879371026530862">
        <ele>1592</ele>
        <time>2026-04-22T12:03:46Z</time>
      </trkpt>
      <trkpt lat="42.86067302338779" lon="0.879465993493795">
        <ele>1590</ele>
        <time>2026-04-22T12:03:54Z</time>
      </trkpt>
      <trkpt lat="42.860658019781113" lon="0.879526007920504">
        <ele>1589</ele>
        <time>2026-04-22T12:04:00Z</time>
      </trkpt>
      <trkpt lat="42.860675035044551" lon="0.879571018740535">
        <ele>1588</ele>
        <time>2026-04-22T12:04:04Z</time>
      </trkpt>
      <trkpt lat="42.860659025609493" lon="0.879722982645035">
        <ele>1585</ele>
        <time>2026-04-22T12:04:16Z</time>
      </trkpt>
      <trkpt lat="42.860644022002816" lon="0.879773022606969">
        <ele>1584</ele>
        <time>2026-04-22T12:04:20Z</time>
      </trkpt>
      <trkpt lat="42.860624995082617" lon="0.87982096709311">
        <ele>1583</ele>
        <time>2026-04-22T12:04:24Z</time>
      </trkpt>
      <trkpt lat="42.860600017011166" lon="0.879862038418651">
        <ele>1582</ele>
        <time>2026-04-22T12:04:28Z</time>
      </trkpt>
      <trkpt lat="42.860579984262586" lon="0.879916017875075">
        <ele>1581</ele>
        <time>2026-04-22T12:04:32Z</time>
      </trkpt>
      <trkpt lat="42.860472025349736" lon="0.880019031465054">
        <ele>1577</ele>
        <time>2026-04-22T12:04:46Z</time>
      </trkpt>
      <trkpt lat="42.860422991216183" lon="0.88005599565804">
        <ele>1576</ele>
        <time>2026-04-22T12:04:52Z</time>
      </trkpt>
      <trkpt lat="42.860370017588139" lon="0.880115004256368">
        <ele>1574</ele>
        <time>2026-04-22T12:05:00Z</time>
      </trkpt>
      <trkpt lat="42.860343027859926" lon="0.880150962620974">
        <ele>1574</ele>
        <time>2026-04-22T12:05:04Z</time>
      </trkpt>
      <trkpt lat="42.860145969316363" lon="0.880367970094085">
        <ele>1573</ele>
        <time>2026-04-22T12:05:28Z</time>
      </trkpt>
      <trkpt lat="42.860131971538067" lon="0.880414992570877">
        <ele>1573</ele>
        <time>2026-04-22T12:05:32Z</time>
      </trkpt>
      <trkpt lat="42.86011696793139" lon="0.880464026704431">
        <ele>1573</ele>
        <time>2026-04-22T12:05:36Z</time>
      </trkpt>
      <trkpt lat="42.860045973211527" lon="0.880650021135807">
        <ele>1569</ele>
        <time>2026-04-22T12:05:52Z</time>
      </trkpt>
      <trkpt lat="42.860043039545417" lon="0.880751023069024">
        <ele>1567</ele>
        <time>2026-04-22T12:06:00Z</time>
      </trkpt>
      <trkpt lat="42.860063994303346" lon="0.880792010575533">
        <ele>1567</ele>
        <time>2026-04-22T12:06:04Z</time>
      </trkpt>
      <trkpt lat="42.860068017616868" lon="0.880902986973524">
        <ele>1566</ele>
        <time>2026-04-22T12:06:14Z</time>
      </trkpt>
      <trkpt lat="42.860106993466616" lon="0.880998959764838">
        <ele>1566</ele>
        <time>2026-04-22T12:06:34Z</time>
      </trkpt>
      <trkpt lat="42.86011504009366" lon="0.881047993898392">
        <ele>1565</ele>
        <time>2026-04-22T12:06:40Z</time>
      </trkpt>
      <trkpt lat="42.860139012336731" lon="0.881105996668339">
        <ele>1564</ele>
        <time>2026-04-22T12:06:46Z</time>
      </trkpt>
      <trkpt lat="42.860166002064943" lon="0.881139021366835">
        <ele>1563</ele>
        <time>2026-04-22T12:06:50Z</time>
      </trkpt>
      <trkpt lat="42.860183017328382" lon="0.881185960024595">
        <ele>1563</ele>
        <time>2026-04-22T12:06:54Z</time>
      </trkpt>
      <trkpt lat="42.860228028148413" lon="0.881271958351135">
        <ele>1561</ele>
        <time>2026-04-22T12:07:02Z</time>
      </trkpt>
      <trkpt lat="42.860260969027877" lon="0.881435992196202">
        <ele>1557</ele>
        <time>2026-04-22T12:07:14Z</time>
      </trkpt>
      <trkpt lat="42.860296005383134" lon="0.8815379999578">
        <ele>1557</ele>
        <time>2026-04-22T12:07:22Z</time>
      </trkpt>
      <trkpt lat="42.860331041738391" lon="0.881867995485663">
        <ele>1551</ele>
        <time>2026-04-22T12:07:46Z</time>
      </trkpt>
      <trkpt lat="42.860318971797824" lon="0.881919041275978">
        <ele>1549</ele>
        <time>2026-04-22T12:07:50Z</time>
      </trkpt>
      <trkpt lat="42.860296005383134" lon="0.881960028782487">
        <ele>1547</ele>
        <time>2026-04-22T12:07:54Z</time>
      </trkpt>
      <trkpt lat="42.86030899733305" lon="0.882075028494">
        <ele>1545</ele>
        <time>2026-04-22T12:08:02Z</time>
      </trkpt>
      <trkpt lat="42.860315032303333" lon="0.882134959101677">
        <ele>1544</ele>
        <time>2026-04-22T12:08:06Z</time>
      </trkpt>
      <trkpt lat="42.86026599816978" lon="0.882401000708342">
        <ele>1538</ele>
        <time>2026-04-22T12:08:26Z</time>
      </trkpt>
      <trkpt lat="42.860269015654922" lon="0.882577020674944">
        <ele>1538</ele>
        <time>2026-04-22T12:08:38Z</time>
      </trkpt>
      <trkpt lat="42.860252000391483" lon="0.882625970989466">
        <ele>1537</ele>
        <time>2026-04-22T12:08:42Z</time>
      </trkpt>
      <trkpt lat="42.860154015943408" lon="0.882795033976436">
        <ele>1533</ele>
        <time>2026-04-22T12:08:58Z</time>
      </trkpt>
      <trkpt lat="42.860125014558434" lon="0.882823029533029">
        <ele>1532</ele>
        <time>2026-04-22T12:09:02Z</time>
      </trkpt>
      <trkpt lat="42.860086960718036" lon="0.882908022031188">
        <ele>1530</ele>
        <time>2026-04-22T12:09:10Z</time>
      </trkpt>
      <trkpt lat="42.860063994303346" lon="0.882948003709316">
        <ele>1529</ele>
        <time>2026-04-22T12:09:14Z</time>
      </trkpt>
      <trkpt lat="42.859958969056606" lon="0.883185965940356">
        <ele>1524</ele>
        <time>2026-04-22T12:09:34Z</time>
      </trkpt>
      <trkpt lat="42.859942959621549" lon="0.883241035044193">
        <ele>1523</ele>
        <time>2026-04-22T12:09:38Z</time>
      </trkpt>
      <trkpt lat="42.859913036227226" lon="0.883331978693604">
        <ele>1522</ele>
        <time>2026-04-22T12:09:46Z</time>
      </trkpt>
      <trkpt lat="42.859881017357111" lon="0.88342702947557">
        <ele>1522</ele>
        <time>2026-04-22T12:09:54Z</time>
      </trkpt>
      <trkpt lat="42.859855033457279" lon="0.883462987840176">
        <ele>1521</ele>
        <time>2026-04-22T12:09:58Z</time>
      </trkpt>
      <trkpt lat="42.859830977395177" lon="0.883509004488587">
        <ele>1520</ele>
        <time>2026-04-22T12:10:02Z</time>
      </trkpt>
      <trkpt lat="42.859800970181823" lon="0.883531970903277">
        <ele>1520</ele>
        <time>2026-04-22T12:10:06Z</time>
      </trkpt>
      <trkpt lat="42.859756965190172" lon="0.883555021136999">
        <ele>1521</ele>
        <time>2026-04-22T12:10:10Z</time>
      </trkpt>
      <trkpt lat="42.85977297462523" lon="0.883614029735327">
        <ele>1522</ele>
        <time>2026-04-22T12:10:16Z</time>
      </trkpt>
      <trkpt lat="42.859788984060287" lon="0.883734980598092">
        <ele>1520</ele>
        <time>2026-04-22T12:10:26Z</time>
      </trkpt>
      <trkpt lat="42.859789989888668" lon="0.883792983368039">
        <ele>1519</ele>
        <time>2026-04-22T12:10:30Z</time>
      </trkpt>
      <trkpt lat="42.859788984060287" lon="0.883897002786398">
        <ele>1517</ele>
        <time>2026-04-22T12:10:38Z</time>
      </trkpt>
      <trkpt lat="42.859753025695682" lon="0.884113004431129">
        <ele>1513</ele>
        <time>2026-04-22T12:10:56Z</time>
      </trkpt>
      <trkpt lat="42.859753025695682" lon="0.884221969172359">
        <ele>1511</ele>
        <time>2026-04-22T12:11:04Z</time>
      </trkpt>
      <trkpt lat="42.859760988503695" lon="0.884277038276196">
        <ele>1510</ele>
        <time>2026-04-22T12:11:08Z</time>
      </trkpt>
      <trkpt lat="42.859760988503695" lon="0.884325988590717">
        <ele>1509</ele>
        <time>2026-04-22T12:11:12Z</time>
      </trkpt>
      <trkpt lat="42.859784038737416" lon="0.884431013837457">
        <ele>1507</ele>
        <time>2026-04-22T12:11:20Z</time>
      </trkpt>
      <trkpt lat="42.85979401320219" lon="0.884487004950643">
        <ele>1506</ele>
        <time>2026-04-22T12:11:24Z</time>
      </trkpt>
      <trkpt lat="42.859838018193841" lon="0.884712981060147">
        <ele>1504</ele>
        <time>2026-04-22T12:11:40Z</time>
      </trkpt>
      <trkpt lat="42.85983701236546" lon="0.884769978001714">
        <ele>1503</ele>
        <time>2026-04-22T12:11:44Z</time>
      </trkpt>
      <trkpt lat="42.859838018193841" lon="0.884830998256803">
        <ele>1503</ele>
        <time>2026-04-22T12:11:48Z</time>
      </trkpt>
      <trkpt lat="42.859827037900686" lon="0.884950021281838">
        <ele>1501</ele>
        <time>2026-04-22T12:11:56Z</time>
      </trkpt>
      <trkpt lat="42.859831983223557" lon="0.885073989629745">
        <ele>1501</ele>
        <time>2026-04-22T12:12:04Z</time>
      </trkpt>
      <trkpt lat="42.859886968508363" lon="0.885300971567631">
        <ele>1499</ele>
        <time>2026-04-22T12:12:20Z</time>
      </trkpt>
      <trkpt lat="42.859897026792169" lon="0.885529965162277">
        <ele>1496</ele>
        <time>2026-04-22T12:12:36Z</time>
      </trkpt>
      <trkpt lat="42.85988001152873" lon="0.885638007894158">
        <ele>1496</ele>
        <time>2026-04-22T12:12:44Z</time>
      </trkpt>
      <trkpt lat="42.859842963516712" lon="0.885743033140898">
        <ele>1494</ele>
        <time>2026-04-22T12:12:54Z</time>
      </trkpt>
      <trkpt lat="42.859828965738416" lon="0.885789971798658">
        <ele>1494</ele>
        <time>2026-04-22T12:12:58Z</time>
      </trkpt>
      <trkpt lat="42.859827959910035" lon="0.885841017588973">
        <ele>1494</ele>
        <time>2026-04-22T12:13:02Z</time>
      </trkpt>
      <trkpt lat="42.859835000708699" lon="0.885891979560256">
        <ele>1494</ele>
        <time>2026-04-22T12:13:10Z</time>
      </trkpt>
      <trkpt lat="42.859871964901686" lon="0.885923998430371">
        <ele>1494</ele>
        <time>2026-04-22T12:13:16Z</time>
      </trkpt>
      <trkpt lat="42.859885962679982" lon="0.885975966230035">
        <ele>1494</ele>
        <time>2026-04-22T12:13:22Z</time>
      </trkpt>
      <trkpt lat="42.859856961295009" lon="0.885904971510172">
        <ele>1495</ele>
        <time>2026-04-22T12:33:53Z</time>
      </trkpt>
      <trkpt lat="42.859828965738416" lon="0.885876975953579">
        <ele>1494</ele>
        <time>2026-04-22T12:33:57Z</time>
      </trkpt>
      <trkpt lat="42.859803987666965" lon="0.885836994275451">
        <ele>1492</ele>
        <time>2026-04-22T12:34:01Z</time>
      </trkpt>
      <trkpt lat="42.859789989888668" lon="0.885788965970278">
        <ele>1491</ele>
        <time>2026-04-22T12:34:05Z</time>
      </trkpt>
      <trkpt lat="42.859771968796849" lon="0.885742027312517">
        <ele>1490</ele>
        <time>2026-04-22T12:34:09Z</time>
      </trkpt>
      <trkpt lat="42.859728969633579" lon="0.885720988735557">
        <ele>1490</ele>
        <time>2026-04-22T12:34:13Z</time>
      </trkpt>
      <trkpt lat="42.859669039025903" lon="0.885634990409017">
        <ele>1488</ele>
        <time>2026-04-22T12:34:21Z</time>
      </trkpt>
      <trkpt lat="42.859562002122402" lon="0.885415971279144">
        <ele>1487</ele>
        <time>2026-04-22T12:34:37Z</time>
      </trkpt>
      <trkpt lat="42.859381036832929" lon="0.88521002791822">
        <ele>1484</ele>
        <time>2026-04-22T12:34:57Z</time>
      </trkpt>
      <trkpt lat="42.859153971076012" lon="0.884879026561975">
        <ele>1479</ele>
        <time>2026-04-22T12:35:25Z</time>
      </trkpt>
      <trkpt lat="42.859123041853309" lon="0.884833009913564">
        <ele>1478</ele>
        <time>2026-04-22T12:35:29Z</time>
      </trkpt>
      <trkpt lat="42.859076019376516" lon="0.884800991043448">
        <ele>1477</ele>
        <time>2026-04-22T12:35:33Z</time>
      </trkpt>
      <trkpt lat="42.85887099802494" lon="0.884630000218749">
        <ele>1475</ele>
        <time>2026-04-22T12:35:53Z</time>
      </trkpt>
      <trkpt lat="42.858825987204909" lon="0.884603010490537">
        <ele>1474</ele>
        <time>2026-04-22T12:35:57Z</time>
      </trkpt>
      <trkpt lat="42.8586779627949" lon="0.884465966373682">
        <ele>1471</ele>
        <time>2026-04-22T12:36:13Z</time>
      </trkpt>
      <trkpt lat="42.858618032187223" lon="0.884365970268846">
        <ele>1469</ele>
        <time>2026-04-22T12:36:21Z</time>
      </trkpt>
      <trkpt lat="42.858597999438643" lon="0.884233033284545">
        <ele>1468</ele>
        <time>2026-04-22T12:36:29Z</time>
      </trkpt>
      <trkpt lat="42.858584001660347" lon="0.884172013029456">
        <ele>1467</ele>
        <time>2026-04-22T12:36:33Z</time>
      </trkpt>
      <trkpt lat="42.858562963083386" lon="0.884038992226124">
        <ele>1465</ele>
        <time>2026-04-22T12:36:41Z</time>
      </trkpt>
      <trkpt lat="42.858542008325458" lon="0.883983001112938">
        <ele>1465</ele>
        <time>2026-04-22T12:36:45Z</time>
      </trkpt>
      <trkpt lat="42.85850403830409" lon="0.883850986137986">
        <ele>1464</ele>
        <time>2026-04-22T12:36:53Z</time>
      </trkpt>
      <trkpt lat="42.858416028320789" lon="0.883830031380057">
        <ele>1463</ele>
        <time>2026-04-22T12:37:01Z</time>
      </trkpt>
      <trkpt lat="42.858249982818961" lon="0.883657028898597">
        <ele>1458</ele>
        <time>2026-04-22T12:37:21Z</time>
      </trkpt>
      <trkpt lat="42.858243025839329" lon="0.883607994765043">
        <ele>1456</ele>
        <time>2026-04-22T12:37:25Z</time>
      </trkpt>
      <trkpt lat="42.8582479711622" lon="0.883552003651857">
        <ele>1455</ele>
        <time>2026-04-22T12:37:29Z</time>
      </trkpt>
      <trkpt lat="42.858256017789245" lon="0.883496012538671">
        <ele>1453</ele>
        <time>2026-04-22T12:37:33Z</time>
      </trkpt>
      <trkpt lat="42.858233973383904" lon="0.883448990061879">
        <ele>1453</ele>
        <time>2026-04-22T12:37:37Z</time>
      </trkpt>
      <trkpt lat="42.858073962852359" lon="0.883351005613804">
        <ele>1448</ele>
        <time>2026-04-22T12:37:53Z</time>
      </trkpt>
      <trkpt lat="42.858011014759541" lon="0.883272970095277">
        <ele>1446</ele>
        <time>2026-04-22T12:38:01Z</time>
      </trkpt>
      <trkpt lat="42.857968015596271" lon="0.883256960660219">
        <ele>1445</ele>
        <time>2026-04-22T12:38:05Z</time>
      </trkpt>
      <trkpt lat="42.857926022261381" lon="0.88323500007391">
        <ele>1444</ele>
        <time>2026-04-22T12:38:09Z</time>
      </trkpt>
      <trkpt lat="42.85788101144135" lon="0.883222008123994">
        <ele>1442</ele>
        <time>2026-04-22T12:38:13Z</time>
      </trkpt>
      <trkpt lat="42.85775201395154" lon="0.883145984262228">
        <ele>1438</ele>
        <time>2026-04-22T12:38:25Z</time>
      </trkpt>
      <trkpt lat="42.857468035072088" lon="0.883181020617485">
        <ele>1430</ele>
        <time>2026-04-22T12:38:49Z</time>
      </trkpt>
      <trkpt lat="42.857420006766915" lon="0.883184038102627">
        <ele>1430</ele>
        <time>2026-04-22T12:38:53Z</time>
      </trkpt>
      <trkpt lat="42.857385976240039" lon="0.883219996467233">
        <ele>1430</ele>
        <time>2026-04-22T12:38:57Z</time>
      </trkpt>
      <trkpt lat="42.857330990955234" lon="0.88321496732533">
        <ele>1429</ele>
        <time>2026-04-22T12:39:03Z</time>
      </trkpt>
      <trkpt lat="42.85730198957026" lon="0.883184038102627">
        <ele>1428</ele>
        <time>2026-04-22T12:39:07Z</time>
      </trkpt>
      <trkpt lat="42.857211967930198" lon="0.883001983165741">
        <ele>1423</ele>
        <time>2026-04-22T12:39:23Z</time>
      </trkpt>
      <trkpt lat="42.857130998745561" lon="0.882946997880936">
        <ele>1421</ele>
        <time>2026-04-22T12:39:31Z</time>
      </trkpt>
      <trkpt lat="42.857077019289136" lon="0.882788999006152">
        <ele>1418</ele>
        <time>2026-04-22T12:39:43Z</time>
      </trkpt>
      <trkpt lat="42.857138961553574" lon="0.882307961583138">
        <ele>1412</ele>
        <time>2026-04-22T12:40:15Z</time>
      </trkpt>
      <trkpt lat="42.857152037322521" lon="0.882250964641571">
        <ele>1411</ele>
        <time>2026-04-22T12:40:19Z</time>
      </trkpt>
      <trkpt lat="42.857221020385623" lon="0.882095983251929">
        <ele>1409</ele>
        <time>2026-04-22T12:40:31Z</time>
      </trkpt>
      <trkpt lat="42.857239041477442" lon="0.88203202933073">
        <ele>1409</ele>
        <time>2026-04-22T12:40:35Z</time>
      </trkpt>
      <trkpt lat="42.857277011498809" lon="0.881802029907703">
        <ele>1407</ele>
        <time>2026-04-22T12:40:51Z</time>
      </trkpt>
      <trkpt lat="42.857383964583278" lon="0.881378995254636">
        <ele>1399</ele>
        <time>2026-04-22T12:41:23Z</time>
      </trkpt>
      <trkpt lat="42.857420006766915" lon="0.881342031061649">
        <ele>1399</ele>
        <time>2026-04-22T12:41:27Z</time>
      </trkpt>
      <trkpt lat="42.857428975403309" lon="0.881295008584857">
        <ele>1399</ele>
        <time>2026-04-22T12:41:31Z</time>
      </trkpt>
      <trkpt lat="42.857459988445044" lon="0.881262989714742">
        <ele>1398</ele>
        <time>2026-04-22T12:41:41Z</time>
      </trkpt>
      <trkpt lat="42.857470968738198" lon="0.881229965016246">
        <ele>1396</ele>
        <time>2026-04-22T12:42:23Z</time>
      </trkpt>
      <trkpt lat="42.857470968738198" lon="0.881176991388202">
        <ele>1396</ele>
        <time>2026-04-22T12:42:27Z</time>
      </trkpt>
      <trkpt lat="42.857457976788282" lon="0.881184032186866">
        <ele>1398</ele>
        <time>2026-04-22T12:42:45Z</time>
      </trkpt>
      <trkpt lat="42.857448002323508" lon="0.881243962794542">
        <ele>1398</ele>
        <time>2026-04-22T12:42:51Z</time>
      </trkpt>
      <trkpt lat="42.857459988445044" lon="0.881290985271335">
        <ele>1398</ele>
        <time>2026-04-22T12:43:07Z</time>
      </trkpt>
      <trkpt lat="42.857420006766915" lon="0.881332978606224">
        <ele>1397</ele>
        <time>2026-04-22T12:43:23Z</time>
      </trkpt>
      <trkpt lat="42.857376001775265" lon="0.881329039111733">
        <ele>1398</ele>
        <time>2026-04-22T12:43:27Z</time>
      </trkpt>
      <trkpt lat="42.857343982905149" lon="0.881312023848295">
        <ele>1399</ele>
        <time>2026-04-22T12:43:31Z</time>
      </trkpt>
      <trkpt lat="42.857302995398641" lon="0.881298026069999">
        <ele>1400</ele>
        <time>2026-04-22T12:43:49Z</time>
      </trkpt>
      <trkpt lat="42.857257984578609" lon="0.88132300414145">
        <ele>1400</ele>
        <time>2026-04-22T12:43:55Z</time>
      </trkpt>
      <trkpt lat="42.857219008728862" lon="0.881359968334436">
        <ele>1399</ele>
        <time>2026-04-22T12:44:01Z</time>
      </trkpt>
      <trkpt lat="42.857180032879114" lon="0.881456024944782">
        <ele>1397</ele>
        <time>2026-04-22T12:44:09Z</time>
      </trkpt>
      <trkpt lat="42.857163017615676" lon="0.881503969430923">
        <ele>1396</ele>
        <time>2026-04-22T12:44:13Z</time>
      </trkpt>
      <trkpt lat="42.857090011239052" lon="0.881635984405875">
        <ele>1394</ele>
        <time>2026-04-22T12:44:25Z</time>
      </trkpt>
      <trkpt lat="42.857014993205667" lon="0.881794989109039">
        <ele>1393</ele>
        <time>2026-04-22T12:44:37Z</time>
      </trkpt>
      <trkpt lat="42.856979034841061" lon="0.881841005757451">
        <ele>1392</ele>
        <time>2026-04-22T12:44:41Z</time>
      </trkpt>
      <trkpt lat="42.856943998485804" lon="0.881874030455947">
        <ele>1392</ele>
        <time>2026-04-22T12:44:45Z</time>
      </trkpt>
      <trkpt lat="42.856811983510852" lon="0.881918035447598">
        <ele>1392</ele>
        <time>2026-04-22T12:44:57Z</time>
      </trkpt>
      <trkpt lat="42.85672196187079" lon="0.881909988820553">
        <ele>1393</ele>
        <time>2026-04-22T12:45:05Z</time>
      </trkpt>
      <trkpt lat="42.856624983251095" lon="0.881918035447598">
        <ele>1396</ele>
        <time>2026-04-22T12:45:13Z</time>
      </trkpt>
      <trkpt lat="42.856525992974639" lon="0.881916023790836">
        <ele>1396</ele>
        <time>2026-04-22T12:45:21Z</time>
      </trkpt>
      <trkpt lat="42.856422979384661" lon="0.88194502517581">
        <ele>1396</ele>
        <time>2026-04-22T12:45:29Z</time>
      </trkpt>
      <trkpt lat="42.856379980221391" lon="0.881987018510699">
        <ele>1395</ele>
        <time>2026-04-22T12:45:33Z</time>
      </trkpt>
      <trkpt lat="42.856256011873484" lon="0.882240990176797">
        <ele>1391</ele>
        <time>2026-04-22T12:45:49Z</time>
      </trkpt>
      <trkpt lat="42.856237990781665" lon="0.882453974336386">
        <ele>1386</ele>
        <time>2026-04-22T12:46:03Z</time>
      </trkpt>
      <trkpt lat="42.856299011036754" lon="0.882982034236193">
        <ele>1384</ele>
        <time>2026-04-22T12:46:35Z</time>
      </trkpt>
      <trkpt lat="42.856416022405028" lon="0.883485032245517">
        <ele>1384</ele>
        <time>2026-04-22T12:47:05Z</time>
      </trkpt>
      <trkpt lat="42.856436977162957" lon="0.883980989456177">
        <ele>1380</ele>
        <time>2026-04-22T12:47:35Z</time>
      </trkpt>
      <trkpt lat="42.856458015739918" lon="0.884105963632464">
        <ele>1381</ele>
        <time>2026-04-22T12:47:43Z</time>
      </trkpt>
      <trkpt lat="42.856495985761285" lon="0.884401006624103">
        <ele>1379</ele>
        <time>2026-04-22T12:48:01Z</time>
      </trkpt>
      <trkpt lat="42.856545019894838" lon="0.884663024917245">
        <ele>1377</ele>
        <time>2026-04-22T12:48:17Z</time>
      </trkpt>
      <trkpt lat="42.856588019058108" lon="0.884791016578674">
        <ele>1376</ele>
        <time>2026-04-22T12:48:25Z</time>
      </trkpt>
      <trkpt lat="42.856563962996006" lon="0.884922025725245">
        <ele>1376</ele>
        <time>2026-04-22T12:48:33Z</time>
      </trkpt>
      <trkpt lat="42.856624983251095" lon="0.885324021801353">
        <ele>1372</ele>
        <time>2026-04-22T12:48:59Z</time>
      </trkpt>
      <trkpt lat="42.856630012392998" lon="0.88538596406579">
        <ele>1372</ele>
        <time>2026-04-22T12:49:03Z</time>
      </trkpt>
      <trkpt lat="42.856652978807688" lon="0.885503981262445">
        <ele>1372</ele>
        <time>2026-04-22T12:49:11Z</time>
      </trkpt>
      <trkpt lat="42.856652978807688" lon="0.885563995689154">
        <ele>1371</ele>
        <time>2026-04-22T12:49:15Z</time>
      </trkpt>
      <trkpt lat="42.856746017932892" lon="0.885999016463757">
        <ele>1364</ele>
        <time>2026-04-22T12:49:43Z</time>
      </trkpt>
      <trkpt lat="42.856853976845741" lon="0.886272015050054">
        <ele>1360</ele>
        <time>2026-04-22T12:50:03Z</time>
      </trkpt>
      <trkpt lat="42.856919020414352" lon="0.886496985331178">
        <ele>1356</ele>
        <time>2026-04-22T12:50:19Z</time>
      </trkpt>
      <trkpt lat="42.856939975172281" lon="0.886549036949873">
        <ele>1356</ele>
        <time>2026-04-22T12:50:23Z</time>
      </trkpt>
      <trkpt lat="42.856955984607339" lon="0.886604022234678">
        <ele>1355</ele>
        <time>2026-04-22T12:50:27Z</time>
      </trkpt>
      <trkpt lat="42.856980040669441" lon="0.886655990034342">
        <ele>1354</ele>
        <time>2026-04-22T12:50:31Z</time>
      </trkpt>
      <trkpt lat="42.856996972113848" lon="0.886717010289431">
        <ele>1354</ele>
        <time>2026-04-22T12:50:35Z</time>
      </trkpt>
      <trkpt lat="42.857026979327202" lon="0.886765960603952">
        <ele>1352</ele>
        <time>2026-04-22T12:50:39Z</time>
      </trkpt>
      <trkpt lat="42.857050029560924" lon="0.886821029707789">
        <ele>1351</ele>
        <time>2026-04-22T12:50:43Z</time>
      </trkpt>
      <trkpt lat="42.857065033167601" lon="0.886880960315466">
        <ele>1351</ele>
        <time>2026-04-22T12:50:47Z</time>
      </trkpt>
      <trkpt lat="42.857167962938547" lon="0.887265019118786">
        <ele>1346</ele>
        <time>2026-04-22T12:51:15Z</time>
      </trkpt>
      <trkpt lat="42.857221020385623" lon="0.887425029650331">
        <ele>1344</ele>
        <time>2026-04-22T12:51:27Z</time>
      </trkpt>
      <trkpt lat="42.857238035649061" lon="0.887533994391561">
        <ele>1343</ele>
        <time>2026-04-22T12:51:35Z</time>
      </trkpt>
      <trkpt lat="42.857256978750229" lon="0.887585962191224">
        <ele>1341</ele>
        <time>2026-04-22T12:51:39Z</time>
      </trkpt>
      <trkpt lat="42.857310036197305" lon="0.887757036834955">
        <ele>1339</ele>
        <time>2026-04-22T12:51:51Z</time>
      </trkpt>
      <trkpt lat="42.857308024540544" lon="0.887998016551137">
        <ele>1334</ele>
        <time>2026-04-22T12:52:07Z</time>
      </trkpt>
      <trkpt lat="42.857290003448725" lon="0.888097006827593">
        <ele>1331</ele>
        <time>2026-04-22T12:52:15Z</time>
      </trkpt>
      <trkpt lat="42.857274999842048" lon="0.888222986832261">
        <ele>1329</ele>
        <time>2026-04-22T12:52:25Z</time>
      </trkpt>
      <trkpt lat="42.857265025377274" lon="0.888270009309053">
        <ele>1328</ele>
        <time>2026-04-22T12:52:29Z</time>
      </trkpt>
      <trkpt lat="42.857239963486791" lon="0.888323988765478">
        <ele>1327</ele>
        <time>2026-04-22T12:52:39Z</time>
      </trkpt>
      <trkpt lat="42.857286985963583" lon="0.888520963490009">
        <ele>1328</ele>
        <time>2026-04-22T12:56:52Z</time>
      </trkpt>
      <trkpt lat="42.857325039803982" lon="0.888781975954771">
        <ele>1325</ele>
        <time>2026-04-22T12:57:12Z</time>
      </trkpt>
      <trkpt lat="42.85732202231884" lon="0.888830004259944">
        <ele>1325</ele>
        <time>2026-04-22T12:57:16Z</time>
      </trkpt>
      <trkpt lat="42.857287991791964" lon="0.888837967067957">
        <ele>1325</ele>
        <time>2026-04-22T12:57:22Z</time>
      </trkpt>
      <trkpt lat="42.857255972921848" lon="0.888869985938072">
        <ele>1325</ele>
        <time>2026-04-22T13:00:10Z</time>
      </trkpt>
      <trkpt lat="42.857241975143552" lon="0.888916002586484">
        <ele>1324</ele>
        <time>2026-04-22T13:00:28Z</time>
      </trkpt>
      <trkpt lat="42.857223032042384" lon="0.888989008963108">
        <ele>1323</ele>
        <time>2026-04-22T13:01:04Z</time>
      </trkpt>
      <trkpt lat="42.857192019000649" lon="0.889020022004843">
        <ele>1320</ele>
        <time>2026-04-22T13:01:10Z</time>
      </trkpt>
      <trkpt lat="42.857162011787295" lon="0.889075007289648">
        <ele>1318</ele>
        <time>2026-04-22T13:01:16Z</time>
      </trkpt>
      <trkpt lat="42.857151031494141" lon="0.889274999499321">
        <ele>1314</ele>
        <time>2026-04-22T13:01:32Z</time>
      </trkpt>
      <trkpt lat="42.857164023444057" lon="0.889324033632874">
        <ele>1314</ele>
        <time>2026-04-22T13:01:36Z</time>
      </trkpt>
      <trkpt lat="42.857183972373605" lon="0.889367032796144">
        <ele>1313</ele>
        <time>2026-04-22T13:01:40Z</time>
      </trkpt>
      <trkpt lat="42.857181038707495" lon="0.889413971453905">
        <ele>1312</ele>
        <time>2026-04-22T13:01:44Z</time>
      </trkpt>
      <trkpt lat="42.857243986800313" lon="0.889557972550392">
        <ele>1309</ele>
        <time>2026-04-22T13:01:58Z</time>
      </trkpt>
      <trkpt lat="42.857272988185287" lon="0.889614969491959">
        <ele>1308</ele>
        <time>2026-04-22T13:02:04Z</time>
      </trkpt>
      <trkpt lat="42.857283968478441" lon="0.889674983918667">
        <ele>1308</ele>
        <time>2026-04-22T13:02:10Z</time>
      </trkpt>
      <trkpt lat="42.857239963486791" lon="0.88983298279345">
        <ele>1305</ele>
        <time>2026-04-22T13:02:24Z</time>
      </trkpt>
      <trkpt lat="42.857208028435707" lon="0.890040015801787">
        <ele>1300</ele>
        <time>2026-04-22T13:02:40Z</time>
      </trkpt>
      <trkpt lat="42.857208028435707" lon="0.89008703827858">
        <ele>1300</ele>
        <time>2026-04-22T13:02:44Z</time>
      </trkpt>
      <trkpt lat="42.857199981808662" lon="0.890134982764721">
        <ele>1298</ele>
        <time>2026-04-22T13:02:48Z</time>
      </trkpt>
      <trkpt lat="42.857177015393972" lon="0.890171024948359">
        <ele>1298</ele>
        <time>2026-04-22T13:02:52Z</time>
      </trkpt>
      <trkpt lat="42.857134016230702" lon="0.89019700884819">
        <ele>1295</ele>
        <time>2026-04-22T13:02:58Z</time>
      </trkpt>
      <trkpt lat="42.8571099601686" lon="0.890237996354699">
        <ele>1295</ele>
        <time>2026-04-22T13:03:02Z</time>
      </trkpt>
      <trkpt lat="42.857079030945897" lon="0.890290969982743">
        <ele>1292</ele>
        <time>2026-04-22T13:03:08Z</time>
      </trkpt>
      <trkpt lat="42.857177015393972" lon="0.890729008242488">
        <ele>1286</ele>
        <time>2026-04-22T13:03:40Z</time>
      </trkpt>
      <trkpt lat="42.857182966545224" lon="0.890789022669196">
        <ele>1285</ele>
        <time>2026-04-22T13:03:44Z</time>
      </trkpt>
      <trkpt lat="42.857190007343888" lon="0.890847025439143">
        <ele>1284</ele>
        <time>2026-04-22T13:03:48Z</time>
      </trkpt>
      <trkpt lat="42.857202999293804" lon="0.890908967703581">
        <ele>1284</ele>
        <time>2026-04-22T13:03:52Z</time>
      </trkpt>
      <trkpt lat="42.857229989022017" lon="0.891155982390046">
        <ele>1281</ele>
        <time>2026-04-22T13:04:08Z</time>
      </trkpt>
      <trkpt lat="42.857205010950565" lon="0.891237035393715">
        <ele>1280</ele>
        <time>2026-04-22T13:04:14Z</time>
      </trkpt>
      <trkpt lat="42.857214985415339" lon="0.891353040933609">
        <ele>1277</ele>
        <time>2026-04-22T13:04:22Z</time>
      </trkpt>
      <trkpt lat="42.857162011787295" lon="0.891324961557984">
        <ele>1276</ele>
        <time>2026-04-22T13:04:30Z</time>
      </trkpt>
      <trkpt lat="42.857124041765928" lon="0.891283974051476">
        <ele>1277</ele>
        <time>2026-04-22T13:04:34Z</time>
      </trkpt>
      <trkpt lat="42.857058998197317" lon="0.8912050165236">
        <ele>1275</ele>
        <time>2026-04-22T13:04:42Z</time>
      </trkpt>
      <trkpt lat="42.857024967670441" lon="0.891180960461497">
        <ele>1274</ele>
        <time>2026-04-22T13:04:46Z</time>
      </trkpt>
      <trkpt lat="42.856986997649074" lon="0.891157994046807">
        <ele>1272</ele>
        <time>2026-04-22T13:04:50Z</time>
      </trkpt>
      <trkpt lat="42.856820030137897" lon="0.891062021255493">
        <ele>1266</ele>
        <time>2026-04-22T13:05:06Z</time>
      </trkpt>
      <trkpt lat="42.85659397020936" lon="0.890794973820448">
        <ele>1259</ele>
        <time>2026-04-22T13:05:34Z</time>
      </trkpt>
      <trkpt lat="42.856559017673135" lon="0.890758009627461">
        <ele>1258</ele>
        <time>2026-04-22T13:05:38Z</time>
      </trkpt>
      <trkpt lat="42.856514006853104" lon="0.890769995748997">
        <ele>1258</ele>
        <time>2026-04-22T13:05:42Z</time>
      </trkpt>
      <trkpt lat="42.856514006853104" lon="0.890942998230457">
        <ele>1257</ele>
        <time>2026-04-22T13:05:54Z</time>
      </trkpt>
      <trkpt lat="42.856520963832736" lon="0.890993038192391">
        <ele>1256</ele>
        <time>2026-04-22T13:05:58Z</time>
      </trkpt>
      <trkpt lat="42.856531022116542" lon="0.891044000163674">
        <ele>1255</ele>
        <time>2026-04-22T13:06:02Z</time>
      </trkpt>
      <trkpt lat="42.856521969661117" lon="0.891100997105241">
        <ele>1254</ele>
        <time>2026-04-22T13:06:06Z</time>
      </trkpt>
      <trkpt lat="42.856518030166626" lon="0.891244998201728">
        <ele>1252</ele>
        <time>2026-04-22T13:06:16Z</time>
      </trkpt>
      <trkpt lat="42.856536973267794" lon="0.891305012628436">
        <ele>1250</ele>
        <time>2026-04-22T13:06:20Z</time>
      </trkpt>
      <trkpt lat="42.856516018509865" lon="0.891385981813073">
        <ele>1249</ele>
        <time>2026-04-22T13:06:26Z</time>
      </trkpt>
      <trkpt lat="42.856493974104524" lon="0.89152897708118">
        <ele>1247</ele>
        <time>2026-04-22T13:06:36Z</time>
      </trkpt>
      <trkpt lat="42.856453992426395" lon="0.891645988449454">
        <ele>1245</ele>
        <time>2026-04-22T13:06:44Z</time>
      </trkpt>
      <trkpt lat="42.856491962447762" lon="0.891793007031083">
        <ele>1243</ele>
        <time>2026-04-22T13:06:54Z</time>
      </trkpt>
      <trkpt lat="42.856503026559949" lon="0.89185000397265">
        <ele>1242</ele>
        <time>2026-04-22T13:06:58Z</time>
      </trkpt>
      <trkpt lat="42.856572009623051" lon="0.891987970098853">
        <ele>1243</ele>
        <time>2026-04-22T13:07:10Z</time>
      </trkpt>
      <trkpt lat="42.856650967150927" lon="0.892094001173973">
        <ele>1242</ele>
        <time>2026-04-22T13:07:22Z</time>
      </trkpt>
      <trkpt lat="42.856695977970958" lon="0.892129959538579">
        <ele>1241</ele>
        <time>2026-04-22T13:07:44Z</time>
      </trkpt>
      <trkpt lat="42.856737971305847" lon="0.892272032797337">
        <ele>1240</ele>
        <time>2026-04-22T13:07:56Z</time>
      </trkpt>
      <trkpt lat="42.856760015711188" lon="0.892369011417031">
        <ele>1237</ele>
        <time>2026-04-22T13:08:04Z</time>
      </trkpt>
      <trkpt lat="42.856777030974627" lon="0.892446963116527">
        <ele>1236</ele>
        <time>2026-04-22T13:08:10Z</time>
      </trkpt>
      <trkpt lat="42.856853976845741" lon="0.892651984468102">
        <ele>1236</ele>
        <time>2026-04-22T13:08:26Z</time>
      </trkpt>
      <trkpt lat="42.856875015422702" lon="0.89271099306643">
        <ele>1236</ele>
        <time>2026-04-22T13:08:32Z</time>
      </trkpt>
      <trkpt lat="42.856940981000662" lon="0.892768995836377">
        <ele>1235</ele>
        <time>2026-04-22T13:08:40Z</time>
      </trkpt>
      <trkpt lat="42.856983980163932" lon="0.892775030806661">
        <ele>1234</ele>
        <time>2026-04-22T13:08:44Z</time>
      </trkpt>
      <trkpt lat="42.85710702650249" lon="0.892844013869762">
        <ele>1230</ele>
        <time>2026-04-22T13:09:04Z</time>
      </trkpt>
      <trkpt lat="42.857171986252069" lon="0.892986003309488">
        <ele>1228</ele>
        <time>2026-04-22T13:09:14Z</time>
      </trkpt>
      <trkpt lat="42.857216997072101" lon="0.893123969435692">
        <ele>1226</ele>
        <time>2026-04-22T13:09:24Z</time>
      </trkpt>
      <trkpt lat="42.857257984578609" lon="0.893321027979255">
        <ele>1226</ele>
        <time>2026-04-22T13:09:36Z</time>
      </trkpt>
      <trkpt lat="42.857276005670428" lon="0.893415994942188">
        <ele>1225</ele>
        <time>2026-04-22T13:09:42Z</time>
      </trkpt>
      <trkpt lat="42.857296038419008" lon="0.893807010725141">
        <ele>1224</ele>
        <time>2026-04-22T13:10:06Z</time>
      </trkpt>
      <trkpt lat="42.857292015105486" lon="0.893895020708442">
        <ele>1223</ele>
        <time>2026-04-22T13:10:12Z</time>
      </trkpt>
      <trkpt lat="42.857304001227021" lon="0.894126025959849">
        <ele>1223</ele>
        <time>2026-04-22T13:10:26Z</time>
      </trkpt>
      <trkpt lat="42.857326967641711" lon="0.89417296461761">
        <ele>1222</ele>
        <time>2026-04-22T13:10:34Z</time>
      </trkpt>
      <trkpt lat="42.857304001227021" lon="0.894319983199239">
        <ele>1220</ele>
        <time>2026-04-22T13:10:44Z</time>
      </trkpt>
      <trkpt lat="42.857274999842048" lon="0.894410004839301">
        <ele>1218</ele>
        <time>2026-04-22T13:10:50Z</time>
      </trkpt>
      <trkpt lat="42.857282962650061" lon="0.894565992057323">
        <ele>1216</ele>
        <time>2026-04-22T13:11:00Z</time>
      </trkpt>
      <trkpt lat="42.857308024540544" lon="0.894636986777186">
        <ele>1215</ele>
        <time>2026-04-22T13:11:06Z</time>
      </trkpt>
      <trkpt lat="42.857355969026685" lon="0.894991960376501">
        <ele>1211</ele>
        <time>2026-04-22T13:11:28Z</time>
      </trkpt>
      <trkpt lat="42.857345994561911" lon="0.895092962309718">
        <ele>1211</ele>
        <time>2026-04-22T13:11:34Z</time>
      </trkpt>
      <trkpt lat="42.857351023703814" lon="0.895187007263303">
        <ele>1211</ele>
        <time>2026-04-22T13:11:40Z</time>
      </trkpt>
      <trkpt lat="42.857354963198304" lon="0.895342994481325">
        <ele>1209</ele>
        <time>2026-04-22T13:11:50Z</time>
      </trkpt>
      <trkpt lat="42.857400979846716" lon="0.895480960607529">
        <ele>1207</ele>
        <time>2026-04-22T13:12:00Z</time>
      </trkpt>
      <trkpt lat="42.857432998716831" lon="0.895560001954436">
        <ele>1205</ele>
        <time>2026-04-22T13:12:06Z</time>
      </trkpt>
      <trkpt lat="42.857460994273424" lon="0.895882034674287">
        <ele>1203</ele>
        <time>2026-04-22T13:12:26Z</time>
      </trkpt>
      <trkpt lat="42.857456970959902" lon="0.896016983315349">
        <ele>1201</ele>
        <time>2026-04-22T13:12:34Z</time>
      </trkpt>
      <trkpt lat="42.857456970959902" lon="0.896339016035199">
        <ele>1197</ele>
        <time>2026-04-22T13:12:52Z</time>
      </trkpt>
      <trkpt lat="42.857419000938535" lon="0.896542025730014">
        <ele>1194</ele>
        <time>2026-04-22T13:13:04Z</time>
      </trkpt>
      <trkpt lat="42.857426041737199" lon="0.896662976592779">
        <ele>1191</ele>
        <time>2026-04-22T13:13:12Z</time>
      </trkpt>
      <trkpt lat="42.857438027858734" lon="0.896719973534346">
        <ele>1189</ele>
        <time>2026-04-22T13:13:16Z</time>
      </trkpt>
      <trkpt lat="42.857454959303141" lon="0.896847965195775">
        <ele>1188</ele>
        <time>2026-04-22T13:13:24Z</time>
      </trkpt>
      <trkpt lat="42.857454037293792" lon="0.896914014592767">
        <ele>1187</ele>
        <time>2026-04-22T13:13:28Z</time>
      </trkpt>
      <trkpt lat="42.857440039515495" lon="0.897120963782072">
        <ele>1187</ele>
        <time>2026-04-22T13:13:40Z</time>
      </trkpt>
      <trkpt lat="42.857406008988619" lon="0.897479960694909">
        <ele>1186</ele>
        <time>2026-04-22T13:14:02Z</time>
      </trkpt>
      <trkpt lat="42.857400979846716" lon="0.897792018949986">
        <ele>1180</ele>
        <time>2026-04-22T13:14:22Z</time>
      </trkpt>
      <trkpt lat="42.857423024252057" lon="0.897891009226441">
        <ele>1181</ele>
        <time>2026-04-22T13:14:28Z</time>
      </trkpt>
      <trkpt lat="42.857437022030354" lon="0.89795102365315">
        <ele>1180</ele>
        <time>2026-04-22T13:14:32Z</time>
      </trkpt>
      <trkpt lat="42.857485972344875" lon="0.898283030837774">
        <ele>1174</ele>
        <time>2026-04-22T13:14:52Z</time>
      </trkpt>
      <trkpt lat="42.857536012306809" lon="0.898733977228403">
        <ele>1174</ele>
        <time>2026-04-22T13:15:20Z</time>
      </trkpt>
      <trkpt lat="42.857536012306809" lon="0.898798014968634">
        <ele>1173</ele>
        <time>2026-04-22T13:15:24Z</time>
      </trkpt>
      <trkpt lat="42.857530983164907" lon="0.899080988019705">
        <ele>1163</ele>
        <time>2026-04-22T13:15:42Z</time>
      </trkpt>
      <trkpt lat="42.857590997591615" lon="0.899474015459418">
        <ele>1158</ele>
        <time>2026-04-22T13:16:06Z</time>
      </trkpt>
      <trkpt lat="42.85755998454988" lon="0.899722035974264">
        <ele>1156</ele>
        <time>2026-04-22T13:16:22Z</time>
      </trkpt>
      <trkpt lat="42.857545986771584" lon="0.899803005158901">
        <ele>1158</ele>
        <time>2026-04-22T13:16:28Z</time>
      </trkpt>
      <trkpt lat="42.857501981779933" lon="0.899823037907481">
        <ele>1162</ele>
        <time>2026-04-22T13:16:32Z</time>
      </trkpt>
      <trkpt lat="42.857479015365243" lon="0.89988699182868">
        <ele>1165</ele>
        <time>2026-04-22T13:16:36Z</time>
      </trkpt>
      <trkpt lat="42.857467029243708" lon="0.899953041225672">
        <ele>1167</ele>
        <time>2026-04-22T13:16:42Z</time>
      </trkpt>
      <trkpt lat="42.857471974566579" lon="0.900008026510477">
        <ele>1167</ele>
        <time>2026-04-22T13:16:48Z</time>
      </trkpt>
      <trkpt lat="42.857498964294791" lon="0.900068962946534">
        <ele>1165</ele>
        <time>2026-04-22T13:17:00Z</time>
      </trkpt>
      <trkpt lat="42.857501981779933" lon="0.900121014565229">
        <ele>1155</ele>
        <time>2026-04-22T13:17:14Z</time>
      </trkpt>
      <trkpt lat="42.857498964294791" lon="0.90018798597157">
        <ele>1152</ele>
        <time>2026-04-22T13:17:20Z</time>
      </trkpt>
      <trkpt lat="42.857508016750216" lon="0.900270966812968">
        <ele>1148</ele>
        <time>2026-04-22T13:17:26Z</time>
      </trkpt>
      <trkpt lat="42.857518997043371" lon="0.900327963754535">
        <ele>1147</ele>
        <time>2026-04-22T13:17:30Z</time>
      </trkpt>
      <trkpt lat="42.857554033398628" lon="0.900443969294429">
        <ele>1145</ele>
        <time>2026-04-22T13:17:38Z</time>
      </trkpt>
      <trkpt lat="42.857606001198292" lon="0.900774970650673">
        <ele>1145</ele>
        <time>2026-04-22T13:18:00Z</time>
      </trkpt>
      <trkpt lat="42.857641037553549" lon="0.901079988107085">
        <ele>1139</ele>
        <time>2026-04-22T13:18:20Z</time>
      </trkpt>
      <trkpt lat="42.857728041708469" lon="0.901351980865002">
        <ele>1133</ele>
        <time>2026-04-22T13:18:38Z</time>
      </trkpt>
      <trkpt lat="42.857770035043359" lon="0.901477038860321">
        <ele>1130</ele>
        <time>2026-04-22T13:18:46Z</time>
      </trkpt>
      <trkpt lat="42.857815967872739" lon="0.901597989723086">
        <ele>1129</ele>
        <time>2026-04-22T13:18:54Z</time>
      </trkpt>
      <trkpt lat="42.857847986742854" lon="0.90173696167767">
        <ele>1126</ele>
        <time>2026-04-22T13:19:02Z</time>
      </trkpt>
      <trkpt lat="42.857976984232664" lon="0.901965033262968">
        <ele>1124</ele>
        <time>2026-04-22T13:19:20Z</time>
      </trkpt>
      <trkpt lat="42.858012020587921" lon="0.902084978297353">
        <ele>1123</ele>
        <time>2026-04-22T13:19:28Z</time>
      </trkpt>
      <trkpt lat="42.858154010027647" lon="0.902254963293672">
        <ele>1121</ele>
        <time>2026-04-22T13:19:44Z</time>
      </trkpt>
      <trkpt lat="42.858242020010948" lon="0.902284970507026">
        <ele>1119</ele>
        <time>2026-04-22T13:19:52Z</time>
      </trkpt>
      <trkpt lat="42.858340004459023" lon="0.902319001033902">
        <ele>1117</ele>
        <time>2026-04-22T13:20:00Z</time>
      </trkpt>
      <trkpt lat="42.858432959765196" lon="0.902337022125721">
        <ele>1114</ele>
        <time>2026-04-22T13:20:08Z</time>
      </trkpt>
      <trkpt lat="42.858638986945152" lon="0.902372980490327">
        <ele>1114</ele>
        <time>2026-04-22T13:20:24Z</time>
      </trkpt>
      <trkpt lat="42.858734037727118" lon="0.902429977431893">
        <ele>1112</ele>
        <time>2026-04-22T13:20:32Z</time>
      </trkpt>
      <trkpt lat="42.858807966113091" lon="0.902512958273292">
        <ele>1111</ele>
        <time>2026-04-22T13:20:40Z</time>
      </trkpt>
      <trkpt lat="42.858862029388547" lon="0.902632987126708">
        <ele>1108</ele>
        <time>2026-04-22T13:20:48Z</time>
      </trkpt>
      <trkpt lat="42.858963031321764" lon="0.902717979624867">
        <ele>1108</ele>
        <time>2026-04-22T13:20:58Z</time>
      </trkpt>
      <trkpt lat="42.859184984117746" lon="0.902758967131376">
        <ele>1106</ele>
        <time>2026-04-22T13:21:20Z</time>
      </trkpt>
      <trkpt lat="42.859126981347799" lon="0.902901962399483">
        <ele>1106</ele>
        <time>2026-04-22T13:21:30Z</time>
      </trkpt>
      <trkpt lat="42.859205016866326" lon="0.903017967939377">
        <ele>1111</ele>
        <time>2026-04-22T13:22:58Z</time>
      </trkpt>
      <trkpt lat="42.859310964122415" lon="0.903051998466253">
        <ele>1111</ele>
        <time>2026-04-22T13:23:08Z</time>
      </trkpt>
      <trkpt lat="42.859415989369154" lon="0.90300003066659">
        <ele>1109</ele>
        <time>2026-04-22T13:23:20Z</time>
      </trkpt>
      <trkpt lat="42.859683958813548" lon="0.903021991252899">
        <ele>1108</ele>
        <time>2026-04-22T13:23:42Z</time>
      </trkpt>
      <trkpt lat="42.859823014587164" lon="0.903051998466253">
        <ele>1104</ele>
        <time>2026-04-22T13:23:54Z</time>
      </trkpt>
      <trkpt lat="42.859943965449929" lon="0.903094997629523">
        <ele>1100</ele>
        <time>2026-04-22T13:24:04Z</time>
      </trkpt>
      <trkpt lat="42.860077992081642" lon="0.903100026771426">
        <ele>1099</ele>
        <time>2026-04-22T13:24:16Z</time>
      </trkpt>
      <trkpt lat="42.860187040641904" lon="0.903190970420837">
        <ele>1099</ele>
        <time>2026-04-22T13:24:28Z</time>
      </trkpt>
      <trkpt lat="42.860298017039895" lon="0.903266994282603">
        <ele>1102</ele>
        <time>2026-04-22T13:24:38Z</time>
      </trkpt>
      <trkpt lat="42.86039499565959" lon="0.903308987617493">
        <ele>1102</ele>
        <time>2026-04-22T13:24:46Z</time>
      </trkpt>
      <trkpt lat="42.860489962622523" lon="0.903372019529343">
        <ele>1099</ele>
        <time>2026-04-22T13:24:54Z</time>
      </trkpt>
      <trkpt lat="42.860585013404489" lon="0.903418036177754">
        <ele>1097</ele>
        <time>2026-04-22T13:25:02Z</time>
      </trkpt>
      <trkpt lat="42.860686015337706" lon="0.903442008420825">
        <ele>1095</ele>
        <time>2026-04-22T13:25:10Z</time>
      </trkpt>
      <trkpt lat="42.860918026417494" lon="0.903577962890267">
        <ele>1097</ele>
        <time>2026-04-22T13:25:30Z</time>
      </trkpt>
      <trkpt lat="42.861153976991773" lon="0.903486013412476">
        <ele>1097</ele>
        <time>2026-04-22T13:25:50Z</time>
      </trkpt>
      <trkpt lat="42.861271994188428" lon="0.903458017855883">
        <ele>1096</ele>
        <time>2026-04-22T13:26:00Z</time>
      </trkpt>
      <trkpt lat="42.861406020820141" lon="0.903525995090604">
        <ele>1093</ele>
        <time>2026-04-22T13:26:10Z</time>
      </trkpt>
      <trkpt lat="42.861493024975061" lon="0.903593972325325">
        <ele>1088</ele>
        <time>2026-04-22T13:26:16Z</time>
      </trkpt>
      <trkpt lat="42.861586986109614" lon="0.903672007843852">
        <ele>1085</ele>
        <time>2026-04-22T13:26:24Z</time>
      </trkpt>
      <trkpt lat="42.861711960285902" lon="0.903749959543347">
        <ele>1083</ele>
        <time>2026-04-22T13:26:36Z</time>
      </trkpt>
      <trkpt lat="42.86181497387588" lon="0.903815003111959">
        <ele>1080</ele>
        <time>2026-04-22T13:26:44Z</time>
      </trkpt>
      <trkpt lat="42.862200038507581" lon="0.904063023626804">
        <ele>1075</ele>
        <time>2026-04-22T13:27:18Z</time>
      </trkpt>
      <trkpt lat="42.862410005182028" lon="0.904266033321619">
        <ele>1073</ele>
        <time>2026-04-22T13:27:40Z</time>
      </trkpt>
      <trkpt lat="42.86254202015698" lon="0.904507013037801">
        <ele>1069</ele>
        <time>2026-04-22T13:27:58Z</time>
      </trkpt>
      <trkpt lat="42.862649979069829" lon="0.904767019674182">
        <ele>1065</ele>
        <time>2026-04-22T13:28:14Z</time>
      </trkpt>
      <trkpt lat="42.862699013203382" lon="0.904887970536947">
        <ele>1063</ele>
        <time>2026-04-22T13:28:22Z</time>
      </trkpt>
      <trkpt lat="42.862691972404718" lon="0.905015040189028">
        <ele>1061</ele>
        <time>2026-04-22T13:28:32Z</time>
      </trkpt>
      <trkpt lat="42.862615026533604" lon="0.905089974403381">
        <ele>1057</ele>
        <time>2026-04-22T13:28:40Z</time>
      </trkpt>
      <trkpt lat="42.862675962969661" lon="0.905194999650121">
        <ele>1054</ele>
        <time>2026-04-22T13:28:48Z</time>
      </trkpt>
      <trkpt lat="42.862919960170984" lon="0.90560001321137">
        <ele>1054</ele>
        <time>2026-04-22T13:29:16Z</time>
      </trkpt>
      <trkpt lat="42.863023979589343" lon="0.905722975730896">
        <ele>1052</ele>
        <time>2026-04-22T13:29:26Z</time>
      </trkpt>
      <trkpt lat="42.863133028149605" lon="0.905872005969286">
        <ele>1049</ele>
        <time>2026-04-22T13:29:38Z</time>
      </trkpt>
      <trkpt lat="42.863224977627397" lon="0.905987005680799">
        <ele>1048</ele>
        <time>2026-04-22T13:29:48Z</time>
      </trkpt>
      <trkpt lat="42.863408960402012" lon="0.90609597042203">
        <ele>1048</ele>
        <time>2026-04-22T13:30:04Z</time>
      </trkpt>
      <trkpt lat="42.863624962046742" lon="0.906208036467433">
        <ele>1052</ele>
        <time>2026-04-22T13:30:22Z</time>
      </trkpt>
      <trkpt lat="42.863730993121862" lon="0.906256986781955">
        <ele>1055</ele>
        <time>2026-04-22T13:30:32Z</time>
      </trkpt>
      <trkpt lat="42.86383300088346" lon="0.906321024522185">
        <ele>1052</ele>
        <time>2026-04-22T13:30:42Z</time>
      </trkpt>
      <trkpt lat="42.864076998084784" lon="0.90661003254354">
        <ele>1048</ele>
        <time>2026-04-22T13:31:12Z</time>
      </trkpt>
      <trkpt lat="42.864187974482775" lon="0.906679015606642">
        <ele>1047</ele>
        <time>2026-04-22T13:31:22Z</time>
      </trkpt>
      <trkpt lat="42.864254023879766" lon="0.906846988946199">
        <ele>1047</ele>
        <time>2026-04-22T13:31:34Z</time>
      </trkpt>
      <trkpt lat="42.864327030256391" lon="0.90699702501297">
        <ele>1046</ele>
        <time>2026-04-22T13:31:46Z</time>
      </trkpt>
      <trkpt lat="42.864347985014319" lon="0.907156029716134">
        <ele>1045</ele>
        <time>2026-04-22T13:31:58Z</time>
      </trkpt>
      <trkpt lat="42.864449992775917" lon="0.907227024435997">
        <ele>1042</ele>
        <time>2026-04-22T13:32:08Z</time>
      </trkpt>
      <trkpt lat="42.86454102024436" lon="0.907308999449015">
        <ele>1040</ele>
        <time>2026-04-22T13:32:18Z</time>
      </trkpt>
      <trkpt lat="42.864605979993939" lon="0.907589038833976">
        <ele>1035</ele>
        <time>2026-04-22T13:32:36Z</time>
      </trkpt>
      <trkpt lat="42.864631041884422" lon="0.907744020223618">
        <ele>1032</ele>
        <time>2026-04-22T13:32:46Z</time>
      </trkpt>
      <trkpt lat="42.864679992198944" lon="0.907902019098401">
        <ele>1030</ele>
        <time>2026-04-22T13:32:56Z</time>
      </trkpt>
      <trkpt lat="42.864714022725821" lon="0.908035961911082">
        <ele>1028</ele>
        <time>2026-04-22T13:33:04Z</time>
      </trkpt>
      <trkpt lat="42.864781999960542" lon="0.908432006835938">
        <ele>1024</ele>
        <time>2026-04-22T13:33:32Z</time>
      </trkpt>
      <trkpt lat="42.864809995517135" lon="0.908690001815557">
        <ele>1019</ele>
        <time>2026-04-22T13:33:48Z</time>
      </trkpt>
      <trkpt lat="42.86482198163867" lon="0.908812964335084">
        <ele>1015</ele>
        <time>2026-04-22T13:33:56Z</time>
      </trkpt>
      <trkpt lat="42.864857017993927" lon="0.908926958218217">
        <ele>1015</ele>
        <time>2026-04-22T13:34:06Z</time>
      </trkpt>
      <trkpt lat="42.864904040470719" lon="0.909048998728395">
        <ele>1013</ele>
        <time>2026-04-22T13:34:16Z</time>
      </trkpt>
      <trkpt lat="42.864930024370551" lon="0.909196017310023">
        <ele>1012</ele>
        <time>2026-04-22T13:34:26Z</time>
      </trkpt>
      <trkpt lat="42.864931030198932" lon="0.909329038113356">
        <ele>1009</ele>
        <time>2026-04-22T13:34:34Z</time>
      </trkpt>
      <trkpt lat="42.864938993006945" lon="0.909454012289643">
        <ele>1007</ele>
        <time>2026-04-22T13:34:42Z</time>
      </trkpt>
      <trkpt lat="42.864964976906776" lon="0.909574963152409">
        <ele>1005</ele>
        <time>2026-04-22T13:34:50Z</time>
      </trkpt>
      <trkpt lat="42.865001019090414" lon="0.909689040854573">
        <ele>1005</ele>
        <time>2026-04-22T13:34:58Z</time>
      </trkpt>
      <trkpt lat="42.86503697745502" lon="0.909808985888958">
        <ele>1003</ele>
        <time>2026-04-22T13:35:06Z</time>
      </trkpt>
      <trkpt lat="42.865070002153516" lon="0.909973019734025">
        <ele>1001</ele>
        <time>2026-04-22T13:35:16Z</time>
      </trkpt>
      <trkpt lat="42.865214003250003" lon="0.910245012491941">
        <ele>998</ele>
        <time>2026-04-22T13:35:36Z</time>
      </trkpt>
      <trkpt lat="42.865296984091401" lon="0.910504013299942">
        <ele>994</ele>
        <time>2026-04-22T13:35:52Z</time>
      </trkpt>
      <trkpt lat="42.865298995748162" lon="0.910657988861203">
        <ele>993</ele>
        <time>2026-04-22T13:36:00Z</time>
      </trkpt>
      <trkpt lat="42.86533797159791" lon="0.910795032978058">
        <ele>991</ele>
        <time>2026-04-22T13:36:08Z</time>
      </trkpt>
      <trkpt lat="42.865350041538477" lon="0.910940961912274">
        <ele>989</ele>
        <time>2026-04-22T13:36:16Z</time>
      </trkpt>
      <trkpt lat="42.865463029593229" lon="0.911438008770347">
        <ele>983</ele>
        <time>2026-04-22T13:36:46Z</time>
      </trkpt>
      <trkpt lat="42.865520026534796" lon="0.911764986813068">
        <ele>981</ele>
        <time>2026-04-22T13:37:06Z</time>
      </trkpt>
      <trkpt lat="42.865533018484712" lon="0.911924997344613">
        <ele>980</ele>
        <time>2026-04-22T13:37:16Z</time>
      </trkpt>
      <trkpt lat="42.865537963807583" lon="0.912096993997693">
        <ele>976</ele>
        <time>2026-04-22T13:37:26Z</time>
      </trkpt>
      <trkpt lat="42.865598984062672" lon="0.912375021725893">
        <ele>976</ele>
        <time>2026-04-22T13:37:42Z</time>
      </trkpt>
      <trkpt lat="42.865623040124774" lon="0.912517011165619">
        <ele>975</ele>
        <time>2026-04-22T13:37:50Z</time>
      </trkpt>
      <trkpt lat="42.865627985447645" lon="0.912669980898499">
        <ele>972</ele>
        <time>2026-04-22T13:37:58Z</time>
      </trkpt>
      <trkpt lat="42.86567903123796" lon="0.912966029718518">
        <ele>968</ele>
        <time>2026-04-22T13:38:14Z</time>
      </trkpt>
      <trkpt lat="42.865732004866004" lon="0.913117993623018">
        <ele>969</ele>
        <time>2026-04-22T13:38:22Z</time>
      </trkpt>
      <trkpt lat="42.865792019292712" lon="0.913260988891125">
        <ele>970</ele>
        <time>2026-04-22T13:38:32Z</time>
      </trkpt>
      <trkpt lat="42.86589402705431" lon="0.913687041029334">
        <ele>967</ele>
        <time>2026-04-22T13:38:58Z</time>
      </trkpt>
      <trkpt lat="42.866041967645288" lon="0.914098005741835">
        <ele>968</ele>
        <time>2026-04-22T13:39:26Z</time>
      </trkpt>
      <trkpt lat="42.866147998720407" lon="0.914358012378216">
        <ele>962</ele>
        <time>2026-04-22T13:39:44Z</time>
      </trkpt>
      <trkpt lat="42.866340028122067" lon="0.914559010416269">
        <ele>963</ele>
        <time>2026-04-22T13:40:02Z</time>
      </trkpt>
      <trkpt lat="42.86641102284193" lon="0.914671998471022">
        <ele>966</ele>
        <time>2026-04-22T13:40:10Z</time>
      </trkpt>
      <trkpt lat="42.866514958441257" lon="0.914780963212252">
        <ele>969</ele>
        <time>2026-04-22T13:40:20Z</time>
      </trkpt>
      <trkpt lat="42.866644961759448" lon="0.915034012869">
        <ele>971</ele>
        <time>2026-04-22T13:40:38Z</time>
      </trkpt>
      <trkpt lat="42.866721991449594" lon="0.915124034509063">
        <ele>970</ele>
        <time>2026-04-22T13:40:48Z</time>
      </trkpt>
      <trkpt lat="42.866810001432896" lon="0.915214978158474">
        <ele>970</ele>
        <time>2026-04-22T13:40:58Z</time>
      </trkpt>
      <trkpt lat="42.866934975609183" lon="0.915208021178842">
        <ele>968</ele>
        <time>2026-04-22T13:41:08Z</time>
      </trkpt>
      <trkpt lat="42.866822993382812" lon="0.914950026199222">
        <ele>967</ele>
        <time>2026-04-22T13:41:24Z</time>
      </trkpt>
      <trkpt lat="42.866760967299342" lon="0.914826979860663">
        <ele>958</ele>
        <time>2026-04-22T13:41:36Z</time>
      </trkpt>
      <trkpt lat="42.866706987842917" lon="0.914522968232632">
        <ele>950</ele>
        <time>2026-04-22T13:42:04Z</time>
      </trkpt>
      <trkpt lat="42.866635993123055" lon="0.914405034855008">
        <ele>946</ele>
        <time>2026-04-22T13:42:14Z</time>
      </trkpt>
      <trkpt lat="42.866632975637913" lon="0.914263967424631">
        <ele>940</ele>
        <time>2026-04-22T13:42:26Z</time>
      </trkpt>
      <trkpt lat="42.866575978696346" lon="0.914138993248343">
        <ele>931</ele>
        <time>2026-04-22T13:42:40Z</time>
      </trkpt>
      <trkpt lat="42.866523005068302" lon="0.914021981880069">
        <ele>930</ele>
        <time>2026-04-22T13:42:50Z</time>
      </trkpt>
      <trkpt lat="42.86649601534009" lon="0.913875969126821">
        <ele>929</ele>
        <time>2026-04-22T13:43:02Z</time>
      </trkpt>
      <trkpt lat="42.866529962047935" lon="0.913726016879082">
        <ele>930</ele>
        <time>2026-04-22T13:43:12Z</time>
      </trkpt>
      <trkpt lat="42.86658301949501" lon="0.913543039932847">
        <ele>932</ele>
        <time>2026-04-22T13:43:26Z</time>
      </trkpt>
      <trkpt lat="42.866607997566462" lon="0.913370959460735">
        <ele>928</ele>
        <time>2026-04-22T13:43:38Z</time>
      </trkpt>
      <trkpt lat="42.866581007838249" lon="0.913240034133196">
        <ele>923</ele>
        <time>2026-04-22T13:43:48Z</time>
      </trkpt>
      <trkpt lat="42.866700030863285" lon="0.913232993334532">
        <ele>923</ele>
        <time>2026-04-22T13:44:00Z</time>
      </trkpt>
      <trkpt lat="42.86675401031971" lon="0.913382023572922">
        <ele>923</ele>
        <time>2026-04-22T13:44:14Z</time>
      </trkpt>
      <trkpt lat="42.866784017533064" lon="0.913527030497789">
        <ele>920</ele>
        <time>2026-04-22T13:44:26Z</time>
      </trkpt>
      <trkpt lat="42.866869010031223" lon="0.913631971925497">
        <ele>921</ele>
        <time>2026-04-22T13:44:38Z</time>
      </trkpt>
      <trkpt lat="42.867050981149077" lon="0.913739008828998">
        <ele>923</ele>
        <time>2026-04-22T13:44:56Z</time>
      </trkpt>
      <trkpt lat="42.867145026102662" lon="0.913784019649029">
        <ele>925</ele>
        <time>2026-04-22T13:45:06Z</time>
      </trkpt>
      <trkpt lat="42.8672069683671" lon="0.913891978561878">
        <ele>927</ele>
        <time>2026-04-22T13:45:12Z</time>
      </trkpt>
      <trkpt lat="42.867286009714007" lon="0.913963979110122">
        <ele>931</ele>
        <time>2026-04-22T13:45:20Z</time>
      </trkpt>
      <trkpt lat="42.867374019697309" lon="0.914064981043339">
        <ele>936</ele>
        <time>2026-04-22T13:45:28Z</time>
      </trkpt>
      <trkpt lat="42.867452977225184" lon="0.914123989641666">
        <ele>938</ele>
        <time>2026-04-22T13:45:38Z</time>
      </trkpt>
      <trkpt lat="42.86752900108695" lon="0.914196996018291">
        <ele>938</ele>
        <time>2026-04-22T13:45:46Z</time>
      </trkpt>
      <trkpt lat="42.867713989689946" lon="0.914328005164862">
        <ele>939</ele>
        <time>2026-04-22T13:46:08Z</time>
      </trkpt>
      <trkpt lat="42.867794036865234" lon="0.914392964914441">
        <ele>936</ele>
        <time>2026-04-22T13:46:20Z</time>
      </trkpt>
      <trkpt lat="42.867895038798451" lon="0.914538977667689">
        <ele>930</ele>
        <time>2026-04-22T13:46:34Z</time>
      </trkpt>
      <trkpt lat="42.867968967184424" lon="0.91469001956284">
        <ele>930</ele>
        <time>2026-04-22T13:46:46Z</time>
      </trkpt>
      <trkpt lat="42.868007021024823" lon="0.914759002625942">
        <ele>928</ele>
        <time>2026-04-22T13:46:52Z</time>
      </trkpt>
      <trkpt lat="42.868023030459881" lon="0.914823962375522">
        <ele>928</ele>
        <time>2026-04-22T13:46:56Z</time>
      </trkpt>
      <trkpt lat="42.86808799020946" lon="0.914994031190872">
        <ele>926</ele>
        <time>2026-04-22T13:47:08Z</time>
      </trkpt>
      <trkpt lat="42.868097964674234" lon="0.915054967626929">
        <ele>925</ele>
        <time>2026-04-22T13:47:12Z</time>
      </trkpt>
      <trkpt lat="42.868243977427483" lon="0.915329977869987">
        <ele>922</ele>
        <time>2026-04-22T13:47:32Z</time>
      </trkpt>
      <trkpt lat="42.868274990469217" lon="0.915473978966475">
        <ele>921</ele>
        <time>2026-04-22T13:47:40Z</time>
      </trkpt>
      <trkpt lat="42.86832301877439" lon="0.915856026113033">
        <ele>918</ele>
        <time>2026-04-22T13:48:02Z</time>
      </trkpt>
      <trkpt lat="42.868342967703938" lon="0.915915034711361">
        <ele>917</ele>
        <time>2026-04-22T13:48:06Z</time>
      </trkpt>
      <trkpt lat="42.868341961875558" lon="0.916030034422874">
        <ele>916</ele>
        <time>2026-04-22T13:48:14Z</time>
      </trkpt>
      <trkpt lat="42.868327964097261" lon="0.916115026921034">
        <ele>917</ele>
        <time>2026-04-22T13:48:20Z</time>
      </trkpt>
      <trkpt lat="42.868326036259532" lon="0.916275037452579">
        <ele>916</ele>
        <time>2026-04-22T13:48:36Z</time>
      </trkpt>
      <trkpt lat="42.868309020996094" lon="0.916561027988791">
        <ele>915</ele>
        <time>2026-04-22T13:48:54Z</time>
      </trkpt>
      <trkpt lat="42.868336010724306" lon="0.916791027411819">
        <ele>918</ele>
        <time>2026-04-22T13:49:06Z</time>
      </trkpt>
      <trkpt lat="42.8683449793607" lon="0.916868979111314">
        <ele>919</ele>
        <time>2026-04-22T13:49:10Z</time>
      </trkpt>
      <trkpt lat="42.868372974917293" lon="0.916982972994447">
        <ele>922</ele>
        <time>2026-04-22T13:49:18Z</time>
      </trkpt>
      <trkpt lat="42.868421003222466" lon="0.917103001847863">
        <ele>920</ele>
        <time>2026-04-22T13:49:28Z</time>
      </trkpt>
      <trkpt lat="42.868448998779058" lon="0.917178019881248">
        <ele>918</ele>
        <time>2026-04-22T13:49:34Z</time>
      </trkpt>
      <trkpt lat="42.868450004607439" lon="0.917240967974067">
        <ele>917</ele>
        <time>2026-04-22T13:49:38Z</time>
      </trkpt>
      <trkpt lat="42.868465008214116" lon="0.917301988229156">
        <ele>915</ele>
        <time>2026-04-22T13:49:42Z</time>
      </trkpt>
      <trkpt lat="42.868533991277218" lon="0.917528970167041">
        <ele>910</ele>
        <time>2026-04-22T13:49:58Z</time>
      </trkpt>
      <trkpt lat="42.868541032075882" lon="0.917598037049174">
        <ele>911</ele>
        <time>2026-04-22T13:50:02Z</time>
      </trkpt>
      <trkpt lat="42.868554024025798" lon="0.917644975706935">
        <ele>912</ele>
        <time>2026-04-22T13:50:06Z</time>
      </trkpt>
      <trkpt lat="42.868576990440488" lon="0.91776299290359">
        <ele>915</ele>
        <time>2026-04-22T13:50:14Z</time>
      </trkpt>
      <trkpt lat="42.868589982390404" lon="0.917958039790392">
        <ele>912</ele>
        <time>2026-04-22T13:50:28Z</time>
      </trkpt>
      <trkpt lat="42.868592999875546" lon="0.918088965117931">
        <ele>909</ele>
        <time>2026-04-22T13:50:36Z</time>
      </trkpt>
      <trkpt lat="42.86860297434032" lon="0.918245036154985">
        <ele>907</ele>
        <time>2026-04-22T13:50:46Z</time>
      </trkpt>
      <trkpt lat="42.868622001260519" lon="0.918365987017751">
        <ele>904</ele>
        <time>2026-04-22T13:50:54Z</time>
      </trkpt>
      <trkpt lat="42.868642034009099" lon="0.91849397867918">
        <ele>903</ele>
        <time>2026-04-22T13:51:02Z</time>
      </trkpt>
      <trkpt lat="42.868690984323621" lon="0.918906033039093">
        <ele>898</ele>
        <time>2026-04-22T13:51:28Z</time>
      </trkpt>
      <trkpt lat="42.868685033172369" lon="0.919041987508535">
        <ele>897</ele>
        <time>2026-04-22T13:51:36Z</time>
      </trkpt>
      <trkpt lat="42.868684027343988" lon="0.919185988605022">
        <ele>896</ele>
        <time>2026-04-22T13:51:44Z</time>
      </trkpt>
      <trkpt lat="42.868657959625125" lon="0.91943996027112">
        <ele>894</ele>
        <time>2026-04-22T13:52:02Z</time>
      </trkpt>
      <trkpt lat="42.868669023737311" lon="0.919583961367607">
        <ele>893</ele>
        <time>2026-04-22T13:52:12Z</time>
      </trkpt>
      <trkpt lat="42.868713028728962" lon="0.919854026287794">
        <ele>887</ele>
        <time>2026-04-22T13:52:32Z</time>
      </trkpt>
      <trkpt lat="42.868715962395072" lon="0.920008001849055">
        <ele>885</ele>
        <time>2026-04-22T13:52:44Z</time>
      </trkpt>
      <trkpt lat="42.868741024285555" lon="0.920148985460401">
        <ele>883</ele>
        <time>2026-04-22T13:52:54Z</time>
      </trkpt>
      <trkpt lat="42.868784023448825" lon="0.920444028452039">
        <ele>875</ele>
        <time>2026-04-22T13:53:12Z</time>
      </trkpt>
      <trkpt lat="42.8687749709934" lon="0.920733036473393">
        <ele>876</ele>
        <time>2026-04-22T13:53:44Z</time>
      </trkpt>
      <trkpt lat="42.868762984871864" lon="0.920892041176558">
        <ele>876</ele>
        <time>2026-04-22T13:53:58Z</time>
      </trkpt>
      <trkpt lat="42.86862401291728" lon="0.921163028106093">
        <ele>874</ele>
        <time>2026-04-22T13:54:28Z</time>
      </trkpt>
      <trkpt lat="42.868577996268868" lon="0.9213060233742">
        <ele>869</ele>
        <time>2026-04-22T13:54:42Z</time>
      </trkpt>
      <trkpt lat="42.868504989892244" lon="0.921420017257333">
        <ele>867</ele>
        <time>2026-04-22T13:54:54Z</time>
      </trkpt>
      <trkpt lat="42.868385966867208" lon="0.921627972275019">
        <ele>862</ele>
        <time>2026-04-22T13:55:14Z</time>
      </trkpt>
      <trkpt lat="42.868343973532319" lon="0.921755963936448">
        <ele>860</ele>
        <time>2026-04-22T13:55:24Z</time>
      </trkpt>
      <trkpt lat="42.868330981582403" lon="0.921879010275006">
        <ele>858</ele>
        <time>2026-04-22T13:55:32Z</time>
      </trkpt>
      <trkpt lat="42.868285970762372" lon="0.922315958887339">
        <ele>854</ele>
        <time>2026-04-22T13:56:02Z</time>
      </trkpt>
      <trkpt lat="42.868315977975726" lon="0.922722984105349">
        <ele>855</ele>
        <time>2026-04-22T13:56:30Z</time>
      </trkpt>
      <trkpt lat="42.868395019322634" lon="0.922790039330721">
        <ele>856</ele>
        <time>2026-04-22T13:56:42Z</time>
      </trkpt>
      <trkpt lat="42.868358977138996" lon="0.92291995882988">
        <ele>855</ele>
        <time>2026-04-22T13:56:52Z</time>
      </trkpt>
      <trkpt lat="42.868224028497934" lon="0.923119029030204">
        <ele>852</ele>
        <time>2026-04-22T13:57:08Z</time>
      </trkpt>
      <trkpt lat="42.868174994364381" lon="0.923245009034872">
        <ele>851</ele>
        <time>2026-04-22T13:57:16Z</time>
      </trkpt>
      <trkpt lat="42.868084972724319" lon="0.923491017892957">
        <ele>848</ele>
        <time>2026-04-22T13:57:32Z</time>
      </trkpt>
      <trkpt lat="42.868033004924655" lon="0.923610962927341">
        <ele>846</ele>
        <time>2026-04-22T13:57:40Z</time>
      </trkpt>
      <trkpt lat="42.867994029074907" lon="0.923744989559054">
        <ele>845</ele>
        <time>2026-04-22T13:57:48Z</time>
      </trkpt>
      <trkpt lat="42.867943989112973" lon="0.924311019480228">
        <ele>840</ele>
        <time>2026-04-22T13:58:20Z</time>
      </trkpt>
      <trkpt lat="42.867950024083257" lon="0.924573037773371">
        <ele>837</ele>
        <time>2026-04-22T13:58:36Z</time>
      </trkpt>
      <trkpt lat="42.86793602630496" lon="0.924848970025778">
        <ele>832</ele>
        <time>2026-04-22T13:58:52Z</time>
      </trkpt>
      <trkpt lat="42.867928985506296" lon="0.925004035234451">
        <ele>832</ele>
        <time>2026-04-22T13:59:00Z</time>
      </trkpt>
      <trkpt lat="42.867933008819818" lon="0.925147030502558">
        <ele>833</ele>
        <time>2026-04-22T13:59:08Z</time>
      </trkpt>
      <trkpt lat="42.867988999933004" lon="0.92543100938201">
        <ele>832</ele>
        <time>2026-04-22T13:59:24Z</time>
      </trkpt>
      <trkpt lat="42.868011966347694" lon="0.925710964947939">
        <ele>830</ele>
        <time>2026-04-22T13:59:40Z</time>
      </trkpt>
      <trkpt lat="42.868002997711301" lon="0.925854966044426">
        <ele>831</ele>
        <time>2026-04-22T13:59:48Z</time>
      </trkpt>
      <trkpt lat="42.868004003539681" lon="0.926457960158587">
        <ele>831</ele>
        <time>2026-04-22T14:00:22Z</time>
      </trkpt>
      <trkpt lat="42.868002997711301" lon="0.926602967083454">
        <ele>829</ele>
        <time>2026-04-22T14:00:30Z</time>
      </trkpt>
      <trkpt lat="42.868002997711301" lon="0.926749985665083">
        <ele>827</ele>
        <time>2026-04-22T14:00:38Z</time>
      </trkpt>
      <trkpt lat="42.867996962741017" lon="0.926891975104809">
        <ele>826</ele>
        <time>2026-04-22T14:00:46Z</time>
      </trkpt>
      <trkpt lat="42.868006015196443" lon="0.927092973142862">
        <ele>825</ele>
        <time>2026-04-22T14:00:58Z</time>
      </trkpt>
    </trkseg>
  </trk>

</gpx>